[[{"header":{"parameterUnit":"m.s-1","parameterCategory":1,"la1":30.6,"la2":29.2853,"lo1":-89.7004,"lo2":-87.6739,"dy":0.0162,"dx":0.0183,"nx":112,"ny":82,"refTime":"2023-07-04T18:00:00:Z","depth":0,"parameterNumber":2,"parameterNumberName":"U-component_of_WINDS"},"data":[0.0,0.0,0.0,0.0,0.0,0.0,0.0,0.0,0.0,0.0,0.0,0.0,0.0,0.0,0.0,0.0,0.0,0.0,0.0,0.0,0.0,0.0,0.0,0.0,0.0,0.0,0.0,0.0,0.0,0.0,0.0,0.0,0.0,0.0,0.0,0.0,0.0,0.0,0.0,0.0,0.0,0.0,0.0,0.0,0.0,0.0,0.0,0.0,0.0,0.0,0.0,0.0,0.0,0.0,0.0,0.0,0.0,0.0,0.0,0.0,0.0,0.0,0.0,0.0,0.0,0.0,0.0,0.0,0.0,0.0,0.0,0.0,0.0,0.0,0.0,0.0,0.0,0.0,0.0,0.0,0.0,0.0,0.0,0.0,0.0,0.0,0.0,0.0,0.0,0.0,0.0,0.6136,0.6297,0.642,0.642,0.642,0.6326,0.6142,0.0,0.0,0.0,0.0,0.0,0.0,0.0,0.0,0.0,0.0,0.0,0.0,0.0,0.0,0.0,0.0,0.0,0.0,0.0,0.0,0.0,0.0,0.0,0.0,0.0,0.0,0.0,0.0,0.0,0.0,0.0,0.0,0.0,0.0,0.0,0.0,0.0,0.0,0.0,0.0,0.0,0.0,0.0,0.0,0.0,0.0,0.0,0.0,0.0,0.0,0.0,0.0,0.0,0.0,0.0,0.0,0.0,0.0,0.0,0.0,0.0,0.0,0.0,0.0,0.0,0.0,0.0,0.0,0.0,0.0,0.0,0.0,0.0,0.0,0.0,0.0,0.0,0.0,0.0,0.0,0.0,0.0,0.0,0.0,0.0,0.0,0.0,0.0,0.0,0.0,0.0,0.0,0.0,0.0,0.0,0.0,0.0,0.0,0.0,0.0,0.0,0.0,0.0,0.0,0.6178,0.6302,0.6384,0.642,0.642,0.642,0.639,0.6444,0.0,0.0,0.0,0.0,0.0,0.0,0.0,0.0,0.0,0.0,0.0,0.0,0.0,0.0,0.0,0.0,0.0,0.0,0.0,0.0,0.0,0.0,0.0,0.0,0.0,0.0,0.0,0.0,0.0,0.0,0.0,0.0,0.0,0.0,0.0,0.0,0.0,0.0,0.0,0.0,0.0,0.0,0.0,0.0,0.0,0.0,0.0,0.0,0.0,0.0,0.0,0.0,0.0,0.0,0.0,0.0,0.0,0.0,0.0,0.0,0.0,0.0,0.0,0.0,0.0,0.0,0.0,0.0,0.0,0.0,0.0,0.0,0.0,0.0,0.0,0.0,0.0,0.0,0.0,0.0,0.0,0.0,0.0,0.0,0.0,0.0,0.0,0.0,0.0,0.0,0.0,0.0,0.0,0.0,0.0,0.0,0.0,0.0,0.0,0.0,0.0,0.0,0.0,0.6159,0.6354,0.653,0.6652,0.6708,0.6708,0.6708,0.6756,0.67,0.6892,0.0,0.0,0.0,0.0,0.0,0.0,0.0,0.0,0.0,0.0,0.0,0.0,0.0,0.0,0.0,0.0,0.0,0.0,0.0,0.0,0.0,0.0,0.0,0.0,0.0,0.0,0.0,0.0,0.0,0.0,0.0,0.0,0.0,0.0,0.0,0.0,0.0,0.0,0.0,0.0,0.0,0.0,0.0,0.0,0.0,0.0,0.0,0.0,0.0,0.0,0.0,0.0,0.0,0.0,0.0,0.0,0.0,0.0,0.0,0.0,0.0,0.0,0.0,0.0,0.0,0.0,0.0,0.0,0.0,0.0,0.0,0.0,0.0,0.0,0.0,0.0,0.0,0.0,0.0,0.0,0.0,0.0,0.0,0.0,0.0,0.0,0.0,0.0,0.0,0.0,0.0,0.0,0.0,0.0,0.0,0.0,0.0,0.0,0.0,0.0,0.0,0.0,0.6392,0.6581,0.6725,0.6875,0.7023,0.7023,0.7023,0.7011,0.6968,0.7127,0.0,0.0,0.0,0.0,0.0,0.0,0.0,0.0,0.0,0.0,0.0,0.0,0.0,0.0,0.0,0.0,0.0,0.0,0.0,0.0,0.0,0.0,0.0,0.0,0.0,0.0,0.0,0.0,0.0,0.0,0.0,0.0,0.0,0.0,0.0,0.0,0.0,0.0,0.0,0.0,0.0,0.0,0.0,0.0,0.0,0.0,0.0,0.0,0.0,0.0,0.0,0.0,0.0,0.0,0.0,0.0,0.0,0.0,0.0,0.0,0.0,0.0,0.0,0.0,0.0,0.0,0.0,0.0,0.0,0.0,0.0,0.0,0.0,0.0,0.0,0.0,0.0,0.0,0.0,0.0,0.0,0.0,0.0,0.0,0.0,0.0,0.0,0.0,0.0,0.0,0.0,0.0,0.0,0.0,0.0,0.0,0.0,0.0,0.0,0.0,0.0,0.0,0.6817,0.6978,0.7003,0.7019,0.7023,0.7023,0.7023,0.7077,0.7161,0.719,0.0,0.0,0.0,0.0,0.0,0.0,0.0,0.0,0.0,0.0,0.0,0.0,0.0,0.0,0.0,0.0,0.0,0.0,0.0,0.0,0.0,0.0,0.0,0.0,0.0,0.0,0.0,0.0,0.0,0.0,0.0,0.0,0.0,0.0,0.0,0.0,0.0,0.0,0.0,0.0,0.0,0.0,0.0,0.0,0.0,0.0,0.0,0.0,0.0,0.0,0.0,0.0,0.0,0.0,0.0,0.0,0.0,0.0,0.0,0.0,0.0,0.0,0.0,0.0,0.0,0.0,0.0,0.0,0.0,0.0,0.0,0.0,0.0,0.0,0.0,0.0,0.0,0.0,0.0,0.0,0.0,0.0,0.0,0.0,0.0,0.0,0.0,0.0,0.0,0.0,0.0,0.0,0.0,0.0,0.0,0.0,0.0,0.0,0.0,0.0,0.0,0.0,0.7009,0.7144,0.0,0.722,0.7285,0.7285,0.7285,0.735,0.7527,0.0,0.0,0.0,0.0,0.0,0.0,0.0,0.0,0.0,0.0,0.0,0.0,0.0,0.0,0.0,0.0,0.0,0.0,0.0,0.0,0.0,0.0,0.0,0.0,0.0,0.0,0.0,0.0,0.0,0.0,0.0,0.0,0.0,0.0,0.0,0.0,0.0,0.0,0.0,0.0,0.0,0.0,0.0,0.0,0.0,0.0,0.0,0.0,0.0,0.0,0.0,0.0,0.0,0.0,0.0,0.0,0.0,0.0,0.0,0.0,0.0,0.0,0.0,0.0,0.0,0.0,0.0,0.0,0.0,0.0,0.0,0.0,0.0,0.0,0.0,0.0,0.0,0.0,0.0,0.0,0.0,0.0,0.0,0.0,0.0,0.0,0.0,0.0,0.0,0.0,0.0,0.0,0.0,0.0,0.0,0.0,0.0,0.0,0.0,0.0,0.0,0.0,0.7037,0.7186,0.7318,0.0,0.7411,0.7484,0.7484,0.7484,0.763,0.7962,0.0,0.0,0.0,0.0,0.0,0.0,0.0,0.0,0.0,0.0,0.0,0.0,0.0,0.0,0.0,0.0,0.0,0.0,0.0,0.0,0.0,0.0,0.0,0.0,0.0,0.0,0.0,0.0,0.0,0.0,0.0,0.0,0.0,0.0,0.0,0.0,0.0,0.0,0.0,0.0,0.0,0.0,0.0,0.0,0.0,0.0,0.0,0.0,0.0,0.0,0.0,0.0,0.0,0.0,0.0,0.0,0.0,0.0,0.0,0.0,0.0,0.0,0.0,0.0,0.0,0.0,0.0,0.0,0.0,0.0,0.0,0.0,0.0,0.0,0.0,0.0,0.0,0.0,0.0,0.0,0.0,0.0,0.0,0.0,0.0,0.0,0.0,0.0,0.0,0.0,0.0,0.0,0.0,0.0,0.0,0.0,0.0,0.0,0.0,0.0,0.0,0.0,0.75,0.7488,0.7484,0.7484,0.7484,0.7484,0.7484,0.7484,0.7776,0.0,0.0,0.0,0.0,0.0,0.0,0.0,0.0,0.0,0.0,0.0,0.0,0.0,0.0,0.0,0.0,0.0,0.0,0.0,0.0,0.0,0.0,0.0,0.0,0.0,0.0,0.0,0.0,0.0,0.0,0.0,0.0,0.0,0.0,0.0,0.0,0.0,0.0,0.0,0.0,0.0,0.0,0.0,0.0,0.0,0.0,0.0,0.0,0.0,0.0,0.0,0.0,0.0,0.0,0.0,0.0,0.0,0.0,0.0,0.0,0.0,0.0,0.0,0.0,0.0,0.0,0.0,0.0,0.0,0.0,0.0,0.0,0.0,0.0,0.0,0.0,0.0,0.0,0.0,0.0,0.0,0.0,0.0,0.0,0.0,0.0,0.0,0.0,0.0,0.0,0.0,0.0,0.0,0.0,0.0,0.0,0.0,0.0,0.0,0.0,0.0,0.0,0.0,0.7517,0.7488,0.7484,0.7484,0.7484,0.7484,0.7484,0.7484,0.7555,0.7762,0.0,0.0,0.0,0.0,0.0,0.0,0.0,0.0,0.0,0.0,0.0,0.0,0.0,0.0,0.0,0.0,0.0,0.0,0.0,0.0,0.0,0.0,0.0,0.0,0.0,0.0,0.0,0.0,0.0,0.0,0.0,0.0,0.0,0.0,0.0,0.0,0.0,0.0,0.0,0.0,0.0,0.0,0.0,0.0,0.0,0.0,0.0,0.0,0.0,0.0,0.0,0.0,0.0,0.0,0.0,0.0,0.0,0.0,0.0,0.0,0.0,0.0,0.0,0.0,0.0,0.0,0.0,0.0,0.0,0.0,0.0,0.0,0.0,0.0,0.0,0.0,0.0,0.0,0.0,0.0,0.0,0.0,0.0,0.0,0.0,0.0,0.0,0.0,0.0,0.0,0.0,0.0,0.0,0.0,0.0,0.0,0.0,0.0,0.0,0.0,0.0,0.0,0.7526,0.7488,0.7484,0.7484,0.7484,0.7484,0.7484,0.7484,0.7589,0.7658,0.0,0.0,0.0,0.0,0.0,0.0,0.0,0.0,0.0,0.0,0.0,0.0,0.0,0.0,0.0,0.0,0.0,0.0,0.0,0.0,0.0,0.0,0.0,0.0,0.0,0.0,0.0,0.0,0.0,0.0,0.0,0.0,0.0,0.0,0.0,0.0,0.0,0.0,0.0,0.0,0.0,0.0,0.0,0.0,0.0,0.0,0.0,0.0,0.0,0.0,0.0,0.0,0.0,0.0,0.0,0.0,0.0,0.0,0.0,0.0,0.0,0.0,0.0,0.0,0.0,0.0,0.0,0.0,0.0,0.0,0.0,0.0,0.0,0.0,0.0,0.0,0.0,0.0,0.0,0.0,0.0,0.0,0.0,0.0,0.0,0.0,0.0,0.0,0.0,0.0,0.0,0.0,0.0,0.0,0.0,0.0,0.0,0.0,0.0,0.0,0.0,0.0,0.7526,0.7488,0.7484,0.7484,0.7484,0.7484,0.7484,0.7484,0.7635,0.7899,0.0,0.0,0.0,0.0,0.0,0.0,0.0,0.0,0.0,0.0,0.0,0.0,0.0,0.0,0.0,0.0,0.0,0.0,0.0,0.0,0.0,0.0,0.0,0.0,0.0,0.0,0.0,0.0,0.0,0.0,0.0,0.0,0.0,0.0,0.0,0.0,0.0,0.0,0.0,0.0,0.0,0.0,0.0,0.0,0.0,0.0,0.0,0.0,0.0,0.0,0.0,0.0,0.0,0.0,0.0,0.0,0.0,0.0,0.0,0.0,0.361,0.0,0.0,0.0,0.0,0.0,0.0,0.0,0.0,0.0,0.0,0.0,0.0,0.0,0.0,0.0,0.0,0.0,0.0,0.0,0.0,0.0,0.0,0.0,0.0,0.0,0.0,0.0,0.0,0.0,0.0,0.0,0.0,0.0,0.0,0.0,0.0,0.0,0.0,0.0,0.0,0.0,0.7526,0.7488,0.7484,0.7484,0.7484,0.7484,0.7484,0.7484,0.7559,0.7599,0.7552,0.0,0.0,0.0,0.0,0.0,0.0,0.0,0.0,0.0,0.0,0.0,0.0,0.0,0.0,0.0,0.0,0.0,0.0,0.0,0.0,0.0,0.0,0.0,0.0,0.0,0.0,0.0,0.0,0.0,0.0,0.0,0.0,0.0,0.0,0.0,0.0,0.0,0.0,0.0,0.0,0.0,0.0,0.0,0.0,0.0,0.0,0.0,0.0,0.0,0.0,0.0,0.0,0.0,0.0,0.0,0.0,0.0,0.0,0.0,0.0,0.3943,0.0,0.0,0.0,0.0,0.0,0.0,0.0,0.0,0.0,0.0,0.0,0.0,0.0,0.0,0.0,0.0,0.0,0.0,0.0,0.0,0.0,0.0,0.0,0.0,0.0,0.0,0.0,0.0,0.0,0.0,0.0,0.0,0.0,0.0,0.0,0.0,0.0,0.0,0.0,0.0,0.7513,0.7488,0.7484,0.7484,0.7484,0.7484,0.7484,0.7484,0.752,0.7501,0.7488,0.0,0.0,0.0,0.0,0.0,0.0,0.0,0.0,0.0,0.0,0.0,0.0,0.0,0.0,0.0,0.0,0.0,0.0,0.0,0.0,0.0,0.0,0.0,0.0,0.0,0.0,0.0,0.0,0.0,0.0,0.0,0.0,0.0,0.0,0.0,0.0,0.0,0.0,0.0,0.0,0.0,0.0,0.0,0.0,0.0,0.0,0.0,0.0,0.0,0.0,0.0,0.0,0.0,0.2013,0.2303,0.2238,0.296,0.2888,0.2311,0.3331,0.3075,0.2148,0.3707,0.0,0.0,0.0,0.0,0.0,0.0,0.0,0.0,0.0,0.0,0.0,0.0,0.0,0.0,0.0,0.0,0.0,0.0,0.0,0.0,0.0,0.0,0.0,0.0,0.7407,0.7539,0.0,0.0,0.0,0.0,0.0,0.0,0.0,0.0,0.0,0.0,0.0,0.0,0.7477,0.7509,0.7484,0.7484,0.7484,0.7484,0.7484,0.7484,0.7484,0.7484,0.7497,0.7459,0.0,0.0,0.0,0.0,0.0,0.0,0.0,0.0,0.0,0.0,0.0,0.0,0.0,0.0,0.0,0.0,0.0,0.0,0.0,0.0,0.0,0.0,0.0,0.0,0.0,0.0,0.0,0.0,0.0,0.0,0.0,0.0,0.2487,0.2766,0.0,0.0,0.0,0.0,0.0,0.0,0.0,0.0,0.0,0.0,0.0,0.0,0.0,0.2161,0.1592,0.1946,0.186,0.131,0.1346,0.1363,0.1364,0.1512,0.1445,0.1376,0.1865,0.0,0.2415,0.1991,0.0,0.0,0.0,0.0,0.0,0.0,0.0,0.0,0.0,0.0,0.0,0.0,0.0,0.0,0.0,0.0,0.0,0.0,0.0,0.0,0.0,0.0,0.5977,0.654,0.6729,0.69,0.0,0.766,0.7717,0.7765,0.7624,0.0,0.0,0.0,0.0,0.0,0.0,0.0,0.753,0.7509,0.7484,0.7484,0.7484,0.7484,0.7484,0.7484,0.7484,0.7484,0.7536,0.7388,0.7225,0.7385,0.0,0.0,0.0,0.0,0.0,0.0,0.0,0.0,0.0,0.0,0.0,0.0,0.0,0.0,0.0,0.0,0.0,0.0,0.0,0.0,0.0,0.0,0.0,0.0,0.0,0.0,0.0,0.0,0.0,0.3046,0.2759,0.2579,0.2386,0.2194,0.0,0.0,0.0,0.0,0.0,0.0,0.0,0.0,0.0,0.1328,0.1612,0.1633,0.1314,0.1557,0.1504,0.1219,0.1251,0.1192,0.1193,0.121,0.1293,0.1293,0.1446,0.1587,0.1861,0.1996,0.2261,0.2576,0.0,0.0,0.0,0.0,0.368,0.3515,0.4269,0.4493,0.0,0.4298,0.0,0.0,0.0,0.0,0.0,0.0,0.0,0.0,0.0,0.0,0.5513,0.5976,0.6015,0.6247,0.6868,0.7056,0.7216,0.0,0.7525,0.7535,0.7477,0.0,0.0,0.0,0.0,0.0,0.7491,0.7526,0.7484,0.7484,0.7484,0.7484,0.7484,0.7484,0.7484,0.7484,0.7484,0.7491,0.7335,0.7358,0.7321,0.0,0.0,0.0,0.0,0.0,0.0,0.0,0.0,0.0,0.0,0.0,0.0,0.0,0.0,0.0,0.0,0.0,0.0,0.0,0.0,0.0,0.0,0.0,0.0,0.0,0.0,0.0,0.0,0.3044,0.2747,0.2319,0.2098,0.1911,0.0,0.0,0.0,0.0,0.0,0.0,0.1448,0.1479,0.1377,0.1274,0.1283,0.1228,0.1178,0.1185,0.119,0.119,0.1213,0.1224,0.1224,0.1247,0.1335,0.1335,0.1335,0.1335,0.133,0.1996,0.2006,0.1555,0.2005,0.2041,0.2021,0.2933,0.315,0.3105,0.386,0.3932,0.3778,0.3869,0.0,0.4111,0.4549,0.0,0.0,0.0,0.0,0.4643,0.4899,0.4891,0.501,0.5271,0.5392,0.5547,0.617,0.6374,0.6551,0.0,0.7474,0.7466,0.7491,0.0,0.0,0.0,0.0,0.7308,0.7488,0.7479,0.7484,0.7484,0.7484,0.7484,0.7484,0.7484,0.7484,0.7484,0.7484,0.7484,0.7484,0.7381,0.7292,0.7245,0.0,0.0,0.0,0.0,0.0,0.0,0.0,0.0,0.0,0.0,0.0,0.0,0.0,0.0,0.0,0.0,0.0,0.0,0.0,0.0,0.0,0.0,0.0,0.0,0.0,0.0,0.0,0.0,0.0,0.2284,0.1829,0.0,0.0,0.0,0.0,0.1534,0.1474,0.1426,0.1324,0.1327,0.1274,0.1236,0.1192,0.1208,0.1209,0.1239,0.1331,0.1331,0.1333,0.1333,0.1333,0.1335,0.1335,0.1335,0.1335,0.1335,0.1335,0.133,0.1369,0.1382,0.1453,0.1549,0.1759,0.2422,0.2465,0.2337,0.2923,0.2893,0.256,0.2662,0.2886,0.3267,0.4138,0.3916,0.0,0.0,0.3986,0.3599,0.3857,0.3906,0.3984,0.4618,0.4776,0.4932,0.5544,0.5673,0.5996,0.0,0.7464,0.7475,0.752,0.0,0.7487,0.7487,0.7495,0.7492,0.7524,0.7476,0.7484,0.7484,0.7484,0.7484,0.7484,0.7484,0.7484,0.7484,0.7484,0.7484,0.7484,0.7468,0.7454,0.7504,0.7322,0.0,0.0,0.0,0.0,0.0,0.0,0.0,0.0,0.0,0.0,0.0,0.0,0.0,0.0,0.0,0.0,0.0,0.0,0.0,0.0,0.0,0.0,0.0,0.0,0.0,0.0,0.0,0.0,0.2165,0.1721,0.0,0.1659,0.1549,0.1435,0.138,0.1356,0.1314,0.1253,0.1273,0.1289,0.1301,0.1235,0.1241,0.1241,0.1251,0.1335,0.1335,0.1335,0.1335,0.1335,0.1335,0.1335,0.1335,0.1335,0.1335,0.1335,0.1335,0.1322,0.1301,0.1301,0.1363,0.1493,0.1974,0.2063,0.2067,0.2572,0.2589,0.2582,0.2846,0.3023,0.3213,0.3798,0.3847,0.3659,0.3951,0.3895,0.3685,0.3746,0.3763,0.3841,0.4075,0.4153,0.4325,0.4941,0.5083,0.5325,0.6263,0.6691,0.6918,0.6935,0.6954,0.7138,0.7563,0.7352,0.7354,0.7737,0.7825,0.7825,0.7825,0.7825,0.7825,0.7825,0.7825,0.7825,0.7825,0.7825,0.7825,0.7825,0.7825,0.7744,0.7725,0.7662,0.7492,0.0,0.0,0.0,0.0,0.0,0.0,0.0,0.0,0.0,0.0,0.0,0.0,0.0,0.0,0.0,0.0,0.0,0.0,0.0,0.0,0.0,0.0,0.0,0.0,0.0,0.0,0.2291,0.2229,0.1649,0.141,0.1661,0.1417,0.13,0.1312,0.128,0.1227,0.1227,0.1246,0.1335,0.1335,0.1335,0.1335,0.1335,0.1335,0.1335,0.1335,0.1335,0.1335,0.1335,0.1335,0.1335,0.1335,0.1335,0.1335,0.1335,0.1335,0.1335,0.1335,0.1335,0.1335,0.1335,0.1725,0.1803,0.1726,0.204,0.2198,0.2353,0.2589,0.2826,0.2982,0.3294,0.3372,0.3377,0.3561,0.3649,0.3657,0.3846,0.3854,0.3854,0.3854,0.3854,0.3951,0.4415,0.451,0.4695,0.5186,0.5894,0.6331,0.6331,0.642,0.6659,0.7368,0.7181,0.7252,0.7935,0.7975,0.8012,0.8012,0.8012,0.8012,0.8012,0.8041,0.8033,0.8008,0.8037,0.8033,0.8012,0.7898,0.7864,0.775,0.775,0.7752,0.7668,0.0,0.0,0.0,0.0,0.0,0.0,0.0,0.0,0.0,0.0,0.0,0.0,0.0,0.0,0.0,0.0,0.0,0.0,0.0,0.0,0.0,0.0,0.0,0.2363,0.2136,0.2082,0.2366,0.1698,0.1461,0.2042,0.1568,0.1226,0.1333,0.1335,0.1335,0.1335,0.1335,0.1335,0.1335,0.1335,0.1335,0.1335,0.1335,0.1335,0.1335,0.1335,0.1335,0.1335,0.1335,0.1336,0.1337,0.1337,0.1338,0.1338,0.1338,0.1338,0.1338,0.1336,0.1335,0.1335,0.1726,0.1649,0.1337,0.1338,0.1574,0.1886,0.1886,0.2201,0.2516,0.2516,0.2516,0.2606,0.3149,0.325,0.335,0.3845,0.3952,0.3952,0.4036,0.4036,0.4036,0.4038,0.404,0.404,0.4042,0.5045,0.5874,0.5865,0.5868,0.6157,0.6827,0.6937,0.0,0.7961,0.8004,0.7946,0.8024,0.802,0.802,0.802,0.8108,0.8087,0.802,0.8116,0.8095,0.8024,0.7861,0.7756,0.7748,0.7735,0.7815,0.7986,0.0,0.0,0.0,0.0,0.0,0.0,0.0,0.0,0.0,0.0,0.0,0.0,0.0,0.0,0.0,0.0,0.0,0.0,0.0,0.0,0.0,0.0,0.1787,0.1808,0.1803,0.1701,0.1542,0.136,0.1309,0.1539,0.1394,0.1248,0.1335,0.1335,0.1335,0.1335,0.1335,0.1335,0.1335,0.1335,0.1335,0.1335,0.1335,0.1335,0.1335,0.1335,0.1335,0.1335,0.1335,0.1269,0.129,0.129,0.1303,0.1323,0.1323,0.1323,0.1318,0.1274,0.1335,0.1335,0.1414,0.1429,0.1293,0.1316,0.1405,0.1487,0.1899,0.2063,0.2228,0.2477,0.2559,0.2562,0.2744,0.2833,0.2919,0.3355,0.3528,0.3613,0.395,0.4036,0.4055,0.4122,0.4134,0.4155,0.4214,0.4489,0.4875,0.5225,0.5268,0.5568,0.6288,0.6061,0.0,0.6784,0.7332,0.7662,0.7628,0.8123,0.8459,0.8459,0.8417,0.8472,0.8406,0.8455,0.8451,0.8414,0.8406,0.8291,0.8156,0.7973,0.794,0.0,0.0,0.0,0.0,0.0,0.0,0.0,0.0,0.0,0.0,0.0,0.0,0.0,0.0,0.0,0.0,0.0,0.0,0.0,0.0,0.0,0.0,0.1614,0.1498,0.1476,0.1511,0.1462,0.123,0.1246,0.1335,0.1335,0.1335,0.1335,0.1335,0.1335,0.1335,0.1335,0.1335,0.1335,0.1335,0.1269,0.1276,0.1276,0.1289,0.1295,0.1295,0.1295,0.1295,0.1295,0.1295,0.1305,0.0,0.1322,0.1331,0.1263,0.1263,0.1263,0.0,0.0,0.0,0.0,0.0,0.1307,0.1324,0.1341,0.1263,0.1348,0.1599,0.1683,0.1767,0.202,0.202,0.2108,0.2297,0.2388,0.2478,0.3016,0.3108,0.3195,0.3456,0.3542,0.3554,0.3601,0.3698,0.371,0.3664,0.3673,0.0,0.4331,0.4619,0.499,0.5717,0.5558,0.562,0.6355,0.6835,0.7014,0.7014,0.7699,0.8131,0.8131,0.8325,0.0,0.0,0.0,0.8332,0.8337,0.8422,0.0,0.0,0.0,0.8183,0.8255,0.0,0.0,0.0,0.8049,0.8013,0.0,0.0,0.0,0.0,0.0,0.0,0.0,0.0,0.0,0.0,0.0,0.0,0.0,0.0,0.0,0.0,0.1467,0.1335,0.1335,0.1335,0.1335,0.1335,0.1335,0.1335,0.1335,0.1335,0.1335,0.1335,0.1335,0.1337,0.1262,0.0,0.0,0.0,0.0,0.1308,0.1308,0.1334,0.1263,0.1263,0.1263,0.1263,0.1263,0.1263,0.1265,0.1353,0.1353,0.127,0.1273,0.1273,0.1273,0.1272,0.1266,0.1263,0.1264,0.1267,0.1353,0.1353,0.1272,0.0,0.0,0.1273,0.1273,0.1273,0.1273,0.1273,0.1448,0.1909,0.2006,0.2103,0.2676,0.2778,0.2868,0.2867,0.2867,0.2867,0.2867,0.2867,0.2867,0.2867,0.2867,0.3047,0.3408,0.3942,0.4448,0.514,0.5303,0.551,0.6183,0.6271,0.6245,0.6231,0.0,0.0,0.7372,0.7767,0.8103,0.8189,0.806,0.7909,0.7911,0.816,0.8334,0.8334,0.8334,0.8412,0.8568,0.8568,0.8568,0.8552,0.8231,0.8085,0.0,0.0,0.0,0.0,0.0,0.0,0.0,0.0,0.0,0.0,0.0,0.0,0.0,0.0,0.0,0.1614,0.145,0.1335,0.1335,0.1335,0.1335,0.1335,0.1335,0.1335,0.1335,0.1335,0.1335,0.1335,0.1335,0.1268,0.1292,0.1294,0.1305,0.1329,0.1336,0.1339,0.1339,0.1261,0.1263,0.1263,0.0,0.0,0.1263,0.1263,0.136,0.1382,0.1382,0.1396,0.1418,0.1418,0.1418,0.1414,0.1281,0.1263,0.1267,0.1373,0.1382,0.1385,0.141,0.1418,0.1418,0.1418,0.1418,0.1418,0.1418,0.1418,0.0,0.1514,0.1516,0.1696,0.224,0.2333,0.2422,0.2778,0.2867,0.2867,0.2867,0.2867,0.2867,0.2867,0.2867,0.2957,0.3047,0.3406,0.3939,0.4452,0.4554,0.4559,0.4718,0.5265,0.5422,0.5063,0.5653,0.6254,0.6688,0.6748,0.7228,0.8101,0.8169,0.8134,0.8099,0.8186,0.8281,0.8549,0.8549,0.8582,0.8568,0.8568,0.8568,0.8564,0.8508,0.8463,0.0,0.0,0.0,0.0,0.0,0.0,0.0,0.0,0.0,0.0,0.0,-0.0203,0.0,0.0,0.0588,0.0528,0.0386,0.0314,0.0314,0.0314,0.055,0.1257,0.1335,0.1335,0.1335,0.1335,0.1264,0.1279,0.128,0.1293,0.1324,0.1325,0.1332,0.1263,0.1363,0.1371,0.1371,0.1384,0.1391,0.1391,0.1391,0.1391,0.1391,0.1391,0.1399,0.1412,0.1412,0.1421,0.1436,0.1436,0.1436,0.1432,0.1403,0.1391,0.1393,0.1408,0.1412,0.1414,0.143,0.1436,0.1436,0.1436,0.1436,0.1436,0.1436,0.1436,0.1436,0.1436,0.1436,0.1436,0.1705,0.1794,0.1884,0.2062,0.2152,0.2152,0.2152,0.2152,0.2152,0.2152,0.2152,0.2241,0.2511,0.278,0.305,0.3494,0.3583,0.3583,0.3583,0.3941,0.4101,0.3793,0.4399,0.4922,0.5185,0.5447,0.5911,0.6864,0.7044,0.7404,0.7852,0.794,0.8204,0.8384,0.8384,0.8472,0.8568,0.8568,0.8568,0.8568,0.8568,0.8568,0.0,0.0,0.0,0.0,0.0,0.0,0.0,0.0,-0.1867,-0.1724,-0.1318,-0.0984,-0.1174,-0.0814,-0.0599,-0.078,-0.0863,-0.0863,-0.0863,-0.0867,-0.0474,0.0553,0.0945,0.1021,0.0943,0.1184,0.1276,0.1138,0.1226,0.1242,0.1016,0.0932,0.0849,0.0852,0.0867,0.1051,0.1401,0.1335,0.1256,0.1256,0.1256,0.1256,0.1256,0.1345,0.1436,0.1436,0.1436,0.1436,0.1436,0.1436,0.1436,0.1436,0.1436,0.1436,0.1436,0.1436,0.1436,0.1436,0.1436,0.1436,0.1436,0.1436,0.1436,0.1436,0.1436,0.1436,0.1436,0.1436,0.1436,0.1436,0.1436,0.1436,0.1436,0.1436,0.1436,0.1436,0.1436,0.1436,0.1436,0.1436,0.1436,0.1525,0.1974,0.2064,0.2242,0.2778,0.2867,0.2867,0.2867,0.2867,0.2867,0.2778,0.3224,0.3582,0.3671,0.4293,0.4828,0.5361,0.5625,0.616,0.6881,0.7319,0.7672,0.7841,0.8025,0.8204,0.8476,0.8476,0.8476,0.8564,0.8564,0.8564,-0.3344,-0.3303,-0.3136,-0.3062,-0.3207,-0.3359,0.0,0.0,-0.2623,-0.1757,-0.1543,-0.1468,-0.132,-0.1244,-0.1323,-0.172,-0.172,-0.172,-0.172,-0.1833,-0.1857,-0.1776,-0.0477,0.0236,-0.0314,0.064,0.1055,0.0569,0.0995,0.0847,-0.0173,-0.0519,-0.0785,-0.0711,-0.0713,-0.0089,0.1431,0.0986,0.0807,0.0807,0.0807,0.0807,0.0807,0.1166,0.1436,0.1436,0.1436,0.1436,0.1436,0.1436,0.1436,0.1436,0.1436,0.1436,0.1436,0.1436,0.1436,0.1436,0.1436,0.1436,0.1436,0.1436,0.1436,0.1436,0.1436,0.1436,0.1436,0.1436,0.1436,0.1436,0.1436,0.1436,0.1436,0.1436,0.1436,0.1436,0.1436,0.1436,0.1436,0.1436,0.1436,0.1436,0.1436,0.1525,0.1793,0.2777,0.2867,0.2867,0.2867,0.2867,0.2778,0.2333,0.2333,0.2601,0.2956,0.4024,0.4559,0.4467,0.4645,0.4825,0.4917,0.5802,0.6422,0.6593,0.7492,0.7944,0.7944,0.7944,0.8028,0.8288,0.8288,0.838,-0.4234,-0.3809,0.0,0.0,-0.3958,-0.393,-0.365,-0.3475,-0.3308,-0.2957,-0.2899,-0.2821,-0.2741,-0.2741,-0.282,0.0,-0.2974,-0.299,-0.3033,-0.3144,-0.3179,-0.3218,-0.238,-0.1715,-0.1552,-0.1071,-0.0833,-0.1097,-0.0852,-0.095,-0.1323,-0.2031,-0.2127,-0.1697,-0.2056,-0.1252,0.0985,0.0806,0.0538,0.0269,0.0269,0.0269,0.0269,0.0807,0.0987,0.0987,0.0987,0.0987,0.0987,0.0987,0.1166,0.1436,0.1436,0.1436,0.1436,0.1436,0.1436,0.1436,0.1436,0.1436,0.1436,0.1436,0.1436,0.1436,0.1436,0.1436,0.1436,0.1436,0.1436,0.1436,0.1436,0.1436,0.1436,0.1436,0.1436,0.1436,0.1436,0.1436,0.1436,0.1436,0.1436,0.1436,0.1436,0.1436,0.1524,0.1973,0.2062,0.2062,0.2062,0.2062,0.1973,0.1794,0.1705,0.1794,0.1973,0.2508,0.2955,0.3491,0.358,0.3846,0.4378,0.4823,0.5445,0.6242,0.6602,0.7228,0.7944,0.7944,0.7944,0.8028,0.8113,0.8288,-0.4791,0.0,0.0,-0.4436,-0.4455,-0.4424,-0.4121,-0.3969,-0.3912,-0.3828,-0.3763,-0.3841,-0.3919,-0.3997,-0.3997,-0.4075,-0.4155,-0.4189,-0.4208,-0.4326,-0.438,-0.4475,-0.4172,-0.3676,-0.3246,-0.2548,-0.2301,-0.2424,-0.2441,-0.2551,-0.2587,-0.3487,-0.3669,-0.3132,-0.3671,-0.3044,-0.1075,-0.0,0.0359,-0.0,-0.0,-0.0,-0.0,0.0359,0.0538,0.0538,0.0538,0.0538,0.0538,0.0538,0.0718,0.0987,0.1173,0.1176,0.1267,0.1366,0.1359,0.1166,0.1166,0.1256,0.1436,0.1436,0.1436,0.1436,0.1436,0.1436,0.1436,0.1436,0.1436,0.1436,0.1436,0.1436,0.1436,0.1436,0.1436,0.1436,0.1436,0.1436,0.1436,0.1436,0.1436,0.1436,0.1436,0.1442,0.1448,0.1448,0.1455,0.1454,0.1438,0.1436,0.1436,0.1436,0.1436,0.1436,0.1436,0.1436,0.1704,0.2419,0.251,0.2776,0.3487,0.3755,0.4467,0.5622,0.5891,0.6536,0.7745,0.7745,0.7767,0.79,0.8076,0.8162,0.0,0.0,-0.4917,-0.4342,-0.4613,-0.4854,-0.4457,-0.438,-0.4302,-0.3919,-0.3763,-0.3919,-0.4307,-0.4384,-0.454,-0.4937,-0.4937,-0.4977,-0.517,-0.5287,-0.5409,-0.5443,-0.5561,-0.5633,0.0,-0.3507,-0.2424,-0.303,-0.3178,-0.3395,-0.384,-0.5018,-0.566,-0.5578,-0.5581,-0.5589,-0.5515,-0.1798,-0.0,-0.0,-0.0,-0.0,-0.0,-0.0,-0.0,-0.0,-0.0,-0.0,-0.0,-0.0,-0.0,0.009,0.055,0.0739,0.0741,0.1228,0.1114,0.0718,0.0718,0.0987,0.1436,0.1436,0.1436,0.1436,0.1436,0.1436,0.1436,0.1436,0.1436,0.1436,0.1436,0.1436,0.1436,0.1436,0.1436,0.1436,0.1436,0.1436,0.1436,0.1436,0.1436,0.1436,0.1436,0.1459,0.1479,0.1479,0.1504,0.1502,0.1443,0.1436,0.1436,0.1436,0.1436,0.1436,0.1436,0.1436,0.1436,0.1436,0.1436,0.1436,0.1524,0.2419,0.3401,0.4378,0.5272,0.6317,0.7458,0.7458,0.7622,0.7858,0.7858,0.8232,0.0,0.0,-0.4709,-0.4916,-0.4955,-0.4937,-0.4857,-0.4779,-0.4781,-0.4626,-0.4332,-0.4204,-0.4277,-0.4356,-0.4356,-0.451,-0.4807,-0.5086,-0.5281,-0.5344,-0.5445,-0.5648,-0.5708,0.0,0.0,0.0,0.0,-0.4782,-0.4903,-0.4921,-0.5099,-0.5471,-0.566,-0.5662,-0.4489,-0.4405,-0.5689,-0.4414,-0.2517,-0.0,-0.0,-0.0,-0.0,-0.0,-0.0,-0.0,-0.0,-0.0,-0.0,-0.0,-0.0,-0.0,0.0188,0.0472,0.0756,0.1237,0.1324,0.1122,0.0467,0.0374,0.0561,0.0841,0.1122,0.1402,0.1495,0.1495,0.1495,0.1495,0.1495,0.1495,0.1495,0.1495,0.1495,0.1495,0.1495,0.1495,0.1495,0.1495,0.1495,0.1495,0.1495,0.1495,0.1495,0.1504,0.151,0.151,0.1519,0.1519,0.1498,0.1495,0.1495,0.1495,0.1495,0.1495,0.1495,0.1495,0.1495,0.1495,0.1495,0.1495,0.1495,0.1775,0.2427,0.3451,0.4471,0.5508,0.6482,0.7143,0.755,0.7691,0.7875,0.8059,0.0,-0.5653,-0.5143,-0.5334,-0.5246,-0.509,-0.509,-0.5015,-0.5018,-0.5018,-0.4579,-0.4259,-0.437,-0.4345,-0.4259,-0.4148,-0.4548,-0.4859,-0.5087,-0.5121,-0.5289,-0.5617,-0.5733,0.0,0.0,0.0,0.0,-0.5733,-0.5733,-0.5733,-0.5733,-0.5738,-0.5473,-0.5022,-0.3851,-0.3408,-0.3687,-0.3687,-0.2426,-0.0,-0.0,-0.0,-0.0,-0.0,-0.0,-0.0,-0.0,-0.0,-0.0,-0.0,-0.0,-0.0,-0.0,0.0193,0.0482,0.0777,0.0877,0.0778,0.0192,-0.0,0.0095,0.0381,0.0668,0.0954,0.1144,0.1335,0.1526,0.1526,0.1526,0.1526,0.1526,0.1526,0.1526,0.1526,0.1526,0.1526,0.1526,0.1526,0.1526,0.1526,0.1526,0.1526,0.1526,0.1535,0.1546,0.1557,0.1558,0.1551,0.1529,0.1526,0.1526,0.1526,0.1526,0.1526,0.1526,0.1526,0.1526,0.1526,0.1526,0.1526,0.1526,0.1526,0.2002,0.2954,0.3711,0.4482,0.5468,0.662,0.7127,0.7177,0.7654,0.8037,-0.6722,-0.632,-0.611,-0.5723,-0.5479,-0.5321,-0.5321,-0.5168,-0.5012,-0.5002,-0.4512,-0.4242,0.0,0.0,-0.4104,-0.3907,-0.4241,-0.4542,-0.4675,-0.4706,-0.4957,0.0,0.0,0.0,0.0,0.0,0.0,-0.5733,0.0,-0.5733,-0.5733,-0.5733,-0.5104,-0.3939,-0.3939,-0.2774,-0.0359,-0.0179,-0.0179,-0.018,-0.018,-0.018,-0.018,-0.0092,-0.0,-0.0,-0.0,-0.0,-0.0,-0.0,-0.0,-0.0,-0.0,-0.0,-0.0,-0.0,-0.0,-0.0,-0.0,-0.0,-0.0,-0.0,-0.0,0.0096,0.0574,0.1052,0.153,0.1627,0.1531,0.153,0.153,0.153,0.153,0.153,0.153,0.153,0.153,0.153,0.153,0.153,0.153,0.153,0.153,0.1555,0.1583,0.1613,0.1617,0.1596,0.1538,0.153,0.153,0.153,0.153,0.153,0.153,0.153,0.153,0.153,0.153,0.153,0.153,0.153,0.1913,0.2866,0.2962,0.3469,0.4508,0.5582,0.6224,0.6334,0.7437,0.8035,-0.7798,-0.6935,-0.5924,-0.5848,-0.5712,-0.5479,-0.5321,-0.5243,-0.5038,-0.4487,-0.4049,-0.3587,0.0,0.0,0.0,-0.3878,-0.4486,0.0,-0.5181,-0.5278,0.0,0.0,0.0,-0.5733,-0.5733,-0.5733,0.0,0.0,-0.5733,-0.5733,-0.5733,-0.5741,-0.5563,-0.5203,-0.5211,-0.4942,-0.4222,-0.2869,-0.2151,-0.2152,-0.2152,-0.2258,-0.229,-0.0737,-0.0,-0.0,-0.0,-0.0,-0.0,-0.0,-0.0,-0.0,-0.0,-0.0,-0.0,-0.0,-0.0,-0.0,-0.0,-0.0,-0.0,-0.0,-0.0,-0.0,0.01,0.0299,0.0597,0.1395,0.1594,0.1594,0.1594,0.1594,0.1594,0.1594,0.1594,0.1594,0.1594,0.1594,0.1594,0.1594,0.1594,0.1594,0.1594,0.16,0.1608,0.1615,0.1617,0.1611,0.1596,0.1594,0.1594,0.1594,0.1594,0.1594,0.1594,0.1594,0.1594,0.1594,0.1594,0.1594,0.1594,0.1594,0.1693,0.1991,0.2783,0.3286,0.36,0.4593,0.5202,0.5227,0.6334,0.6933,-0.7943,-0.7319,-0.6479,-0.6177,-0.6173,-0.6136,-0.5481,-0.5231,-0.501,-0.4265,-0.3678,0.0,0.0,0.0,0.0,0.0,0.0,0.0,-0.5103,-0.5217,-0.5331,0.0,-0.5733,0.0,-0.5733,-0.5733,-0.5754,0.0,-0.5763,-0.5733,-0.5733,-0.5738,-0.5765,-0.5814,-0.582,-0.5735,-0.5737,-0.469,-0.4129,-0.4129,-0.4256,-0.4389,-0.4438,-0.3293,-0.2288,-0.1349,0.0,-0.0,-0.0,-0.0,-0.0,-0.0,-0.0,-0.0,-0.0,-0.0,-0.0,-0.0,-0.0,-0.0,-0.0,-0.0,-0.0,-0.0,-0.0,-0.0,0.0101,0.0707,0.1111,0.1313,0.1516,0.1617,0.1617,0.1617,0.1617,0.1617,0.1617,0.1617,0.1617,0.1617,0.1617,0.1617,0.1617,0.1617,0.1617,0.1617,0.1617,0.1617,0.1617,0.1617,0.1617,0.1617,0.1617,0.1617,0.1617,0.1617,0.1617,0.1617,0.1617,0.1617,0.1617,0.1617,0.1617,0.1617,0.2221,0.2521,0.2521,0.3624,0.4124,0.4124,0.5229,0.5729,-0.7816,-0.7633,-0.7484,-0.6799,-0.7019,-0.7075,-0.5722,-0.5303,-0.5003,-0.4172,0.0,0.0,-0.3233,0.0,-0.3379,-0.3416,0.0,-0.4663,-0.4772,-0.4886,-0.5172,-0.563,-0.5733,-0.5733,-0.5733,-0.5746,-0.5798,-0.5896,-0.5825,-0.5779,-0.5779,-0.5779,-0.5825,-0.5923,-0.5926,-0.5836,-0.5752,-0.5743,-0.5697,-0.5716,-0.5982,-0.6132,-0.6171,-0.6294,-0.5408,-0.3543,-0.17,0.0,-0.0403,-0.0404,-0.0303,-0.0,-0.0,-0.0,-0.0,-0.0,-0.0,-0.0,-0.0,-0.0,-0.0,-0.0,-0.0,-0.0,-0.0,-0.0,-0.0,-0.0,0.0303,0.0808,0.1313,0.1415,0.1516,0.1617,0.1617,0.1617,0.1617,0.1617,0.1617,0.1617,0.1617,0.1617,0.1617,0.1617,0.1617,0.1617,0.1617,0.1617,0.1617,0.1617,0.1617,0.1617,0.1617,0.1617,0.1617,0.1617,0.1617,0.1617,0.1617,0.1617,0.1617,0.1617,0.1617,0.1617,0.1617,0.1617,0.1617,0.2521,0.3024,0.3022,0.4124,0.4624,-0.8694,-0.8475,-0.8475,-0.8322,-0.8394,-0.8059,-0.6656,-0.6294,0.0,0.0,0.0,-0.2936,-0.2641,-0.2816,0.0,-0.3677,0.0,0.0,0.0,0.0,-0.562,0.0,0.0,0.0,0.0,0.0,0.0,0.0,0.0,-0.6026,-0.6026,-0.6026,-0.6034,-0.6053,-0.6053,-0.6053,-0.6056,-0.5937,-0.5928,-0.6029,-0.5947,-0.6015,-0.631,-0.626,-0.6139,-0.5827,-0.5448,0.0,-0.2619,-0.262,-0.1612,-0.0,-0.0,-0.0,-0.0,-0.0,-0.0,-0.0,-0.0,-0.0,-0.0,-0.0,-0.0,-0.0,-0.0,-0.0,-0.0,-0.0,0.0101,0.0202,0.0303,0.0606,0.101,0.1516,0.1617,0.1617,0.1617,0.1617,0.1617,0.1617,0.1617,0.1617,0.1617,0.1617,0.1617,0.1617,0.1617,0.1617,0.1617,0.1617,0.1617,0.1617,0.1617,0.1617,0.1617,0.1617,0.1617,0.1617,0.1617,0.1617,0.1617,0.1617,0.1617,0.1617,0.1617,0.1617,0.1617,0.1818,0.1919,0.1919,0.3024,0.3524,-0.9463,-0.9311,-0.9236,-0.8775,-0.9008,-0.8757,-0.6781,0.0,0.0,0.0,0.0,-0.2745,-0.2474,0.0,0.0,0.0,0.0,0.0,0.0,0.0,0.0,0.0,0.0,0.0,0.0,0.0,0.0,0.0,0.0,-0.6154,-0.6089,-0.6146,-0.6181,-0.6181,-0.6181,-0.6181,-0.6181,-0.6059,-0.6029,-0.6086,-0.6092,-0.6154,-0.6271,-0.6333,-0.6294,-0.645,-0.6364,0.0,-0.4841,-0.4845,-0.4237,-0.3228,-0.2116,-0.1713,-0.1513,-0.0404,-0.0,-0.0,-0.0,-0.0,-0.0,-0.0,-0.0,-0.0,-0.0,-0.0,-0.0,-0.0,-0.0,-0.0,-0.0,0.0202,0.0606,0.1415,0.1617,0.1617,0.1617,0.1617,0.1617,0.1617,0.1617,0.1617,0.1617,0.1617,0.1617,0.1617,0.1617,0.1617,0.1617,0.1617,0.1617,0.1617,0.1617,0.1617,0.1617,0.1617,0.1617,0.1617,0.1617,0.1617,0.1617,0.1617,0.1617,0.1617,0.1617,0.1617,0.1617,0.1617,0.1617,0.1617,0.2119,0.2321,-0.9906,-0.9992,-0.9992,-0.9382,-0.9685,-0.9527,-0.722,-0.6494,0.0,0.0,0.0,-0.2635,-0.2521,0.0,0.0,0.0,0.0,0.0,0.0,0.0,0.0,0.0,0.0,0.0,0.0,0.0,0.0,0.0,0.0,0.0,-0.6165,-0.6252,-0.6306,-0.6306,-0.6306,-0.6306,-0.6306,-0.6187,-0.6138,-0.6162,-0.6236,-0.6282,-0.6309,-0.6396,-0.6437,-0.6437,-0.635,0.0,0.0,-0.6364,-0.6369,-0.6271,-0.4539,-0.393,-0.3729,-0.2016,-0.1108,-0.0705,-0.0706,-0.0404,-0.0,-0.0,-0.0,-0.0,-0.0,-0.0,-0.0,-0.0,-0.0,-0.0,-0.0,-0.0,0.0202,0.101,0.1314,0.1415,0.1617,0.1617,0.1617,0.1617,0.1617,0.1617,0.1617,0.1617,0.1617,0.1617,0.1617,0.1617,0.1617,0.1617,0.1617,0.1617,0.1617,0.1617,0.1617,0.1617,0.1617,0.1617,0.1617,0.1617,0.1617,0.1617,0.1617,0.1617,0.1617,0.1617,0.1617,0.1617,0.1617,0.1617,0.1617,0.1617,-1.0013,-1.0438,-1.0962,-1.0887,-1.0962,-1.0522,-0.8895,0.0,0.0,0.0,-0.3594,-0.2635,-0.2521,-0.2371,0.0,0.0,0.0,0.0,0.0,0.0,0.0,0.0,0.0,0.0,0.0,0.0,0.0,0.0,0.0,0.0,-0.6404,-0.6415,-0.642,-0.642,-0.642,-0.642,-0.642,-0.6309,-0.6304,-0.6401,-0.6312,-0.6323,-0.642,-0.6431,-0.6437,-0.6437,-0.6437,0.0,0.0,-0.6439,-0.645,-0.6364,-0.616,-0.6062,-0.607,-0.5866,-0.4541,-0.2922,-0.2922,-0.1612,-0.0,-0.0,-0.0,-0.0,-0.0,-0.0,-0.0,-0.0,-0.0,-0.0,-0.0,-0.0,-0.0,0.0101,0.0505,0.101,0.1516,0.1617,0.1617,0.1617,0.1617,0.1617,0.1617,0.1617,0.1617,0.1617,0.1617,0.1617,0.1617,0.1617,0.1617,0.1617,0.1617,0.1617,0.1617,0.1617,0.1617,0.1617,0.1617,0.1617,0.1617,0.1617,0.1617,0.1617,0.1617,0.1617,0.1617,0.1617,0.1617,0.1617,0.1617,0.1617,-1.0593,-1.0887,-1.1111,-1.1111,-1.0923,-1.0419,-0.91,0.0,0.0,-0.5217,-0.4047,-0.3183,-0.2631,-0.2359,-0.2327,0.0,0.0,0.0,0.0,0.0,0.0,0.0,0.0,0.0,0.0,0.0,0.0,0.0,0.0,0.0,-0.6437,-0.6437,-0.6437,-0.6437,-0.6437,-0.6437,-0.6437,-0.6391,-0.6391,-0.6437,-0.6391,-0.6393,-0.6437,-0.6437,-0.6437,-0.6437,-0.6437,0.0,0.0,-0.6437,-0.6439,-0.6448,-0.6448,-0.645,-0.6353,-0.6364,-0.5856,-0.5144,-0.5148,-0.4543,-0.3632,-0.2317,-0.1914,-0.1714,-0.0404,-0.0,-0.0,-0.0,-0.0,-0.0,-0.0,-0.0,-0.0,-0.0,0.0202,0.0404,0.0606,0.101,0.1314,0.1516,0.1617,0.1617,0.1617,0.1617,0.1617,0.1617,0.1617,0.1617,0.1617,0.1617,0.1617,0.1617,0.1617,0.1617,0.1617,0.1617,0.1617,0.1617,0.1617,0.1617,0.1617,0.1617,0.1617,0.1617,0.1617,0.1617,0.1617,0.1617,0.1617,0.1617,0.1617,0.1617,-1.0857,-1.0977,-1.1111,-1.1111,-1.0845,-1.0319,0.0,0.0,0.0,-0.5934,-0.4912,-0.4125,-0.3395,-0.3049,-0.2887,0.0,0.0,0.0,0.0,0.0,0.0,0.0,0.0,0.0,0.0,0.0,0.0,0.0,0.0,0.0,-0.6437,-0.6437,-0.6437,-0.6437,-0.6437,-0.6437,-0.6437,-0.6437,-0.6437,-0.6437,-0.6437,-0.6437,-0.6437,-0.6437,-0.6437,-0.6437,-0.6437,0.0,0.0,-0.6437,-0.6437,-0.6437,-0.6437,-0.6437,-0.6437,-0.635,-0.6356,-0.6356,-0.6361,-0.6369,-0.6168,-0.464,-0.4133,-0.3833,-0.2321,-0.1413,-0.0807,-0.0202,-0.0,-0.0,-0.0,-0.0,-0.0,-0.0,-0.0,-0.0,-0.0,0.0404,0.0909,0.1516,0.1516,0.1415,0.1617,0.1617,0.1617,0.1617,0.1617,0.1617,0.1617,0.1617,0.1617,0.1617,0.1617,0.1617,0.1617,0.1617,0.1617,0.1617,0.1617,0.1617,0.1617,0.1617,0.1617,0.1617,0.1617,0.1617,0.1617,0.1617,0.1617,0.1617,0.1617,0.1617,-1.045,-1.0771,-1.1111,-1.1111,-1.0918,-1.0653,0.0,0.0,0.0,-0.7606,-0.6463,-0.5495,-0.5143,-0.4773,-0.4452,-0.3964,-0.4014,0.0,0.0,0.0,0.0,0.0,0.0,0.0,0.0,0.0,0.0,0.0,0.0,0.0,-0.6437,-0.6437,-0.6437,-0.6437,-0.6437,-0.6437,-0.6437,-0.6437,-0.6437,-0.6437,-0.6437,-0.6437,-0.6437,-0.6437,-0.6437,0.0,0.0,0.0,0.0,-0.6437,-0.6437,-0.6437,-0.6437,-0.6437,-0.6437,-0.6437,-0.6437,-0.6437,-0.6437,-0.6448,-0.6364,-0.6364,-0.6369,-0.6377,-0.6377,-0.4845,-0.2719,-0.0605,-0.0,-0.0,-0.0,-0.0,-0.0,-0.0,-0.0,-0.0,-0.0,-0.0,0.0303,0.1415,0.1212,0.101,0.1516,0.1617,0.1617,0.1617,0.1617,0.1617,0.1617,0.1617,0.1617,0.1617,0.1617,0.1617,0.1617,0.1617,0.1617,0.1617,0.1617,0.1617,0.1617,0.1617,0.1617,0.1617,0.1617,0.1617,0.1617,0.1617,0.1617,0.1617,0.1617,0.1617,-0.9748,-1.0102,-1.0396,-1.0206,-1.0105,-1.0033,-1.0018,0.0,0.0,-0.7959,-0.7026,-0.616,-0.5559,-0.4955,-0.4639,-0.4659,-0.4271,0.0,0.0,0.0,0.0,0.0,0.0,0.0,0.0,0.0,0.0,0.0,0.0,0.0,-0.6437,-0.6437,-0.6437,-0.6437,-0.6437,-0.6437,-0.6437,-0.6437,-0.6437,-0.6437,-0.6437,-0.6437,-0.6437,-0.6437,-0.6437,0.0,0.0,0.0,0.0,-0.6437,-0.6437,-0.6437,-0.6437,-0.6437,-0.6437,-0.6437,-0.6437,-0.6437,-0.6437,-0.6439,-0.6445,-0.6445,-0.6448,-0.6448,-0.6448,-0.5952,-0.4947,-0.2821,-0.2217,-0.2217,-0.2217,-0.1109,-0.0,-0.0,-0.0,-0.0,-0.0,-0.0,0.0101,0.0404,0.0707,0.0707,0.0505,0.0909,0.1314,0.1516,0.1617,0.1617,0.1617,0.1617,0.1617,0.1617,0.1617,0.1617,0.1617,0.1617,0.1617,0.1617,0.1617,0.1617,0.1617,0.1617,0.1617,0.1617,0.1617,0.1617,0.1617,0.1617,0.1617,0.1617,0.1617,0.1617,0.0,-0.9724,-1.0089,-0.9917,-0.9805,0.0,0.0,0.0,0.0,0.0,0.0,-0.7187,-0.6622,-0.6063,-0.566,-0.5577,0.0,0.0,0.0,0.0,0.0,0.0,0.0,0.0,0.0,0.0,0.0,0.0,0.0,0.0,-0.6437,-0.6437,-0.6437,-0.6437,-0.6437,-0.6437,-0.6437,-0.6437,-0.6437,-0.6437,-0.6437,-0.6437,-0.6437,-0.6437,-0.6437,0.0,0.0,0.0,0.0,-0.6437,-0.6437,-0.6437,-0.6437,-0.6437,-0.6437,-0.6437,-0.6437,-0.6437,-0.6437,-0.6437,-0.6437,-0.6437,-0.6437,-0.6437,-0.6437,-0.6353,-0.6165,-0.474,-0.4437,-0.4438,-0.4438,-0.3428,-0.2217,-0.141,-0.0605,-0.0,-0.0,-0.0,-0.0,-0.0,0.0303,0.0404,0.0101,0.0404,0.0909,0.1516,0.1617,0.1617,0.1617,0.1617,0.1617,0.1617,0.1617,0.1617,0.1617,0.1617,0.1617,0.1617,0.1617,0.1617,0.1617,0.1617,0.1617,0.1617,0.1617,0.1617,0.1617,0.1617,0.1617,0.1617,0.1617,0.1617,0.0,0.0,0.0,0.0,0.0,0.0,0.0,0.0,0.0,0.0,0.0,0.0,0.0,0.0,-0.726,-0.6597,0.0,0.0,0.0,0.0,0.0,0.0,0.0,0.0,0.0,0.0,0.0,0.0,0.0,0.0,-0.6534,-0.6537,-0.6437,-0.6437,-0.6437,-0.6437,-0.6437,-0.6437,-0.6437,-0.6437,-0.6437,-0.6437,-0.6437,-0.6437,-0.6437,0.0,0.0,0.0,0.0,-0.6437,-0.6437,-0.6437,-0.6437,-0.6437,-0.6437,-0.6437,-0.6437,-0.6437,-0.6437,-0.6437,-0.6437,-0.6437,-0.6437,-0.6437,-0.6437,-0.6448,-0.6361,-0.6361,-0.6366,-0.6374,-0.6374,-0.6374,-0.5864,-0.393,-0.1913,-0.0403,-0.0302,-0.0101,-0.0,-0.0,-0.0,-0.0,-0.0,-0.0,0.0303,0.1314,0.1516,0.1617,0.1617,0.1617,0.1617,0.1617,0.1617,0.1617,0.1617,0.1617,0.1617,0.1617,0.1617,0.1617,0.1617,0.1617,0.1617,0.1617,0.1617,0.1617,0.1617,0.1617,0.1617,0.1617,0.1617,0.1617,-0.8138,0.0,-0.9029,0.0,0.0,0.0,0.0,0.0,0.0,0.0,0.0,0.0,0.0,0.0,0.0,0.0,0.0,0.0,0.0,0.0,0.0,0.0,0.0,0.0,0.0,0.0,0.0,0.0,0.0,0.0,-0.8226,-0.763,-0.7332,-0.7332,-0.6736,-0.6437,-0.6437,-0.6437,-0.6437,-0.6437,-0.6437,-0.6437,-0.6437,-0.6437,-0.6437,0.0,0.0,0.0,-0.6437,-0.6437,-0.6437,-0.6437,-0.6437,-0.6437,-0.6437,-0.6437,-0.6437,-0.6437,-0.6437,-0.6437,-0.6437,-0.6437,-0.6437,-0.6437,-0.6437,-0.6439,-0.6442,-0.6442,-0.6445,-0.6445,-0.6445,-0.6356,-0.6263,-0.5754,-0.5249,-0.444,-0.2821,-0.1108,-0.0,-0.0,-0.0,-0.0,-0.0,-0.0,0.0101,0.0303,0.1111,0.1516,0.1212,0.1415,0.1617,0.1617,0.1617,0.1617,0.1617,0.1617,0.1617,0.1617,0.1617,0.1617,0.1617,0.1617,0.1617,0.1617,0.1617,0.1617,0.1617,0.1617,0.1617,0.1617,0.1617,0.1617,-0.7908,-0.8331,-0.8715,-0.8471,-0.8713,-0.9017,0.0,0.0,0.0,0.0,0.0,0.0,0.0,0.0,0.0,0.0,0.0,0.0,0.0,0.0,0.0,0.0,0.0,0.0,0.0,0.0,0.0,0.0,0.0,0.0,-0.8825,-0.8425,-0.8127,-0.8127,-0.773,-0.7132,-0.6437,-0.6437,-0.6437,-0.6437,-0.6437,-0.6437,-0.6437,-0.6437,-0.6437,0.0,0.0,0.0,-0.6437,-0.6437,-0.6437,-0.6437,-0.6437,-0.6437,-0.6437,-0.6437,-0.6437,-0.6437,-0.6437,-0.6437,-0.6437,-0.6437,-0.6437,-0.6437,-0.6437,-0.6437,-0.6437,-0.6437,-0.6437,-0.6437,-0.6437,-0.6442,-0.635,-0.635,-0.6361,-0.6062,-0.4941,-0.3731,-0.2621,-0.1611,-0.1512,-0.1513,-0.1513,-0.0605,-0.0202,-0.1009,-0.0,0.0909,0.0909,0.1314,0.1617,0.1617,0.1617,0.1617,0.1617,0.1617,0.1617,0.1617,0.1617,0.1617,0.1617,0.1617,0.1617,0.1617,0.1617,0.1617,0.1617,0.1617,0.1617,0.1617,0.1617,0.1617,-0.7924,-0.8393,-0.8759,-0.8476,-0.865,-0.8952,0.0,0.0,0.0,0.0,0.0,0.0,0.0,0.0,0.0,0.0,0.0,0.0,0.0,0.0,0.0,0.0,0.0,0.0,0.0,0.0,0.0,0.0,0.0,0.0,-0.9118,-0.9023,-0.9023,-0.9023,-0.8825,-0.8127,-0.6734,-0.6734,-0.6734,-0.6734,-0.6634,-0.6537,-0.6537,-0.6437,-0.6437,-0.6437,0.0,0.0,-0.6437,-0.6437,-0.6437,-0.6437,-0.6437,-0.6437,-0.6437,-0.6437,-0.6437,-0.6437,-0.6437,-0.6437,-0.6437,-0.6437,-0.6437,-0.6437,-0.6437,-0.6437,-0.6437,-0.6437,-0.6437,-0.6437,-0.6437,-0.6437,-0.6437,-0.6437,-0.6448,-0.6358,-0.6358,-0.6366,-0.5861,-0.4031,-0.3728,-0.3729,-0.3729,-0.2217,-0.131,-0.232,-0.111,-0.0,0.0101,0.0808,0.1314,0.1212,0.1313,0.1516,0.1617,0.1617,0.1617,0.1617,0.1617,0.1617,0.1617,0.1617,0.1617,0.1617,0.1617,0.1617,0.1617,0.1617,0.1617,0.1617,0.1617,0.1617,-0.7611,-0.8326,-0.8964,-0.8384,-0.8397,-0.8576,0.0,0.0,0.0,0.0,0.0,0.0,0.0,0.0,0.0,0.0,0.0,0.0,0.0,0.0,0.0,0.0,0.0,0.0,0.0,0.0,0.0,0.0,0.0,0.0,-1.0801,-1.0212,-0.9821,-0.9821,-0.9122,-0.8726,-0.8425,-0.8425,-0.8425,-0.8425,-0.773,-0.7431,-0.7431,-0.6734,-0.6437,-0.6437,0.0,-0.6437,-0.6437,-0.6437,-0.6437,-0.6437,-0.6437,-0.6437,-0.6437,-0.6437,-0.6437,-0.6437,-0.6437,-0.6437,-0.6437,-0.6437,-0.6437,-0.6437,-0.6437,-0.6437,-0.6437,-0.6437,-0.6437,-0.6437,-0.6437,-0.6437,-0.6437,-0.6437,-0.6439,-0.6439,-0.6439,-0.6353,-0.6263,-0.5957,-0.5861,-0.5866,-0.5866,-0.566,-0.4849,-0.3325,-0.131,-0.0705,-0.2822,-0.111,-0.0,-0.0605,0.0303,0.1111,0.1516,0.1617,0.1617,0.1617,0.1617,0.1617,0.1617,0.1617,0.1617,0.1617,0.1617,0.1617,0.1617,0.1617,0.1617,0.1617,0.1617,0.1617,-0.763,-0.8072,-0.8645,-0.8557,-0.8887,-0.9237,0.0,0.0,0.0,0.0,0.0,0.0,0.0,0.0,0.0,0.0,0.0,0.0,0.0,0.0,0.0,0.0,0.0,0.0,0.0,0.0,0.0,0.0,0.0,0.0,-1.1194,-1.0806,-1.0609,-1.0609,-1.0306,-1.0109,-1.0109,-1.0109,-0.9616,-0.8825,-0.8425,-0.8226,-0.8226,-0.7829,-0.773,-0.763,0.0,-0.7033,-0.7033,-0.6537,-0.6437,-0.6437,-0.6437,-0.6437,-0.6437,-0.6437,-0.6437,-0.6437,-0.6437,-0.6437,-0.6437,-0.6437,-0.6437,-0.6437,-0.6437,-0.6437,-0.6437,-0.6437,-0.6437,-0.6437,-0.6437,-0.6437,-0.6437,-0.6437,-0.6437,-0.6437,-0.6437,-0.6442,-0.6448,-0.6448,-0.6353,-0.6356,-0.6356,-0.6364,-0.6062,-0.5044,-0.4135,-0.3428,-0.3426,-0.343,-0.3128,-0.2318,-0.1915,-0.1613,-0.131,-0.0806,0.0101,0.1516,0.1617,0.1617,0.1617,0.1617,0.1617,0.1617,0.1617,0.1617,0.1617,0.1617,0.1617,0.1617,0.1617,0.1617,-0.7819,-0.8138,-0.8488,0.0,0.0,0.0,0.0,0.0,0.0,0.0,0.0,0.0,0.0,0.0,0.0,0.0,0.0,0.0,0.0,0.0,0.0,0.0,0.0,0.0,0.0,0.0,0.0,0.0,0.0,0.0,-1.1194,-1.1292,-1.1292,-1.1194,-1.1487,-1.1487,-1.1194,-1.1292,-1.0699,-0.9316,-0.9122,-0.9122,-0.9122,-0.8924,-0.8825,-0.8726,-0.8127,-0.7928,-0.7829,-0.7232,-0.6933,-0.6933,-0.6933,-0.6833,-0.6637,-0.6437,-0.6437,-0.6437,-0.6437,-0.6437,-0.6437,-0.6437,-0.6437,-0.6437,-0.6437,-0.6437,-0.6437,-0.6437,-0.6437,-0.6437,-0.6437,-0.6437,-0.6437,-0.6437,-0.6437,-0.6437,-0.6437,-0.6437,-0.6437,-0.6437,-0.6437,-0.6437,-0.6437,-0.6448,-0.6356,-0.6356,-0.6366,-0.5758,-0.4128,-0.5352,-0.5761,-0.4133,-0.4236,-0.4236,-0.383,-0.3123,-0.1712,0.0504,0.0908,0.101,0.101,0.101,0.1111,0.1314,0.1111,0.1212,0.1617,0.1212,0.1212,0.1617,0.1415,0.1415,-0.8104,-0.8639,-0.9148,-0.9164,0.0,0.0,0.0,0.0,0.0,0.0,0.0,0.0,0.0,0.0,0.0,0.0,0.0,0.0,0.0,0.0,0.0,0.0,0.0,0.0,0.0,0.0,0.0,0.0,0.0,0.0,-1.1194,-1.1683,-1.1683,-1.1198,-1.2175,-1.2175,-1.1194,-1.1688,-1.1585,-1.0998,-1.0314,-0.992,-0.992,-0.9122,-0.8825,-0.8825,-0.8726,-0.8722,-0.8726,-0.8623,-0.8627,-0.8627,-0.8627,-0.8127,-0.7431,-0.6634,-0.6437,-0.6437,-0.6437,-0.6437,-0.6437,-0.6437,-0.6437,-0.6437,-0.6437,-0.6437,-0.6437,-0.6437,-0.6437,-0.6437,-0.6437,-0.6437,-0.6437,-0.6437,-0.6437,-0.6437,-0.6437,-0.6437,-0.6437,-0.6437,-0.6437,-0.6437,-0.6437,-0.6437,-0.6437,-0.6437,-0.6353,-0.6356,-0.6237,-0.6258,-0.6374,-0.616,-0.6168,-0.5557,-0.3932,-0.3729,-0.3224,-0.2214,-0.1209,-0.0605,-0.0605,-0.0605,-0.0303,0.0505,-0.0202,0.0101,0.1617,0.0101,0.0101,0.1617,0.0808,0.0909,-0.8142,-0.8584,-0.9008,-0.9159,0.0,0.0,0.0,0.0,0.0,0.0,0.0,0.0,0.0,0.0,0.0,0.0,0.0,0.0,0.0,0.0,0.0,0.0,0.0,0.0,0.0,0.0,0.0,0.0,0.0,0.0,0.0,-1.237,-1.237,-1.2175,-1.2565,-1.2467,-1.1683,-1.1883,-1.1688,-1.1194,-1.0904,-1.0703,-1.0708,-1.0408,-1.0306,-1.0306,-1.01,-0.9998,-0.9998,-0.9509,-0.9316,-0.9312,-0.8924,-0.8821,-0.8718,-0.7531,-0.7132,-0.7033,-0.6534,-0.6437,-0.6437,-0.6437,-0.6437,-0.6437,-0.6437,-0.6437,-0.6437,-0.6437,-0.6437,-0.6437,-0.6437,-0.6437,-0.6437,-0.6437,-0.6437,-0.6437,-0.6437,-0.6437,-0.6437,-0.6437,-0.6437,-0.6437,-0.6437,-0.6437,-0.6437,-0.6437,-0.6442,-0.6445,-0.6437,-0.6445,-0.645,-0.6448,-0.645,-0.6145,-0.5434,-0.5133,-0.4732,-0.4427,-0.2718,-0.1813,-0.1813,-0.1511,-0.1108,-0.0806,-0.0806,-0.0504,0.0101,-0.0504,-0.0504,0.0101,-0.0202,-0.0202,-0.8496,-0.8634,-0.8913,0.0,0.0,0.0,0.0,0.0,0.0,0.0,0.0,0.0,0.0,0.0,0.0,0.0,0.0,0.0,0.0,0.0,0.0,0.0,0.0,0.0,0.0,0.0,0.0,0.0,0.0,0.0,0.0,-1.2958,-1.2958,-1.2764,-1.3147,-1.2953,-1.2273,-1.2273,-1.2078,-1.1683,-1.1492,-1.1487,-1.1487,-1.1487,-1.1585,-1.1683,-1.1477,-1.1473,-1.1375,-1.0886,-1.0592,-1.0592,-0.9903,-0.9899,-1.0096,-0.8909,-0.8418,-0.8124,-0.7329,-0.6933,-0.6734,-0.6437,-0.6437,-0.6437,-0.6437,-0.6437,-0.6437,-0.6437,-0.6437,-0.6437,-0.6437,-0.6437,-0.6437,-0.6437,-0.6437,-0.6437,-0.6437,-0.6437,-0.6437,-0.6437,-0.6437,-0.6437,-0.6437,-0.6437,-0.6437,-0.6437,-0.6437,-0.6437,-0.6437,-0.6437,-0.6437,-0.6437,-0.6437,-0.6437,-0.6437,-0.6034,-0.5837,-0.5837,-0.4425,-0.3521,-0.3221,-0.2818,-0.2515,-0.2213,-0.2114,-0.1713,-0.1008,-0.1612,-0.1512,-0.0806,-0.1109,-0.1008,-0.912,-0.9019,0.0,0.0,0.0,0.0,0.0,0.0,0.0,0.0,0.0,0.0,0.0,0.0,0.0,0.0,0.0,0.0,0.0,0.0,0.0,0.0,0.0,0.0,0.0,0.0,0.0,0.0,0.0,0.0,0.0,-1.3249,-1.3249,-1.2861,-1.3817,-1.3817,-1.2861,-1.2764,-1.2764,-1.2764,-1.2273,-1.198,-1.198,-1.198,-1.2273,-1.2764,-1.2764,-1.2764,-1.2764,-1.2764,-1.2764,-1.2759,-1.196,-1.1565,-1.156,-1.0667,-1.0083,-0.9505,-0.8711,-0.8021,-0.7431,-0.6634,-0.6437,-0.6437,-0.6437,-0.6437,-0.6437,-0.6437,-0.6437,-0.6437,-0.6437,-0.6437,-0.6437,-0.6437,-0.6437,-0.6437,-0.6437,-0.6437,-0.6437,-0.6437,-0.6437,-0.6437,-0.6437,-0.6437,-0.6437,-0.6437,-0.6437,-0.6437,-0.6437,-0.6437,-0.6437,-0.6437,-0.6437,-0.6437,-0.6437,-0.6437,-0.6437,-0.6437,-0.6437,-0.5937,-0.4834,-0.4834,-0.4429,-0.3621,-0.4429,-0.3725,-0.161,-0.3224,-0.2923,-0.0907,-0.1613,-0.1613,-0.8529,0.0,0.0,0.0,0.0,0.0,0.0,0.0,0.0,0.0,0.0,0.0,0.0,0.0,0.0,0.0,0.0,0.0,0.0,0.0,0.0,0.0,0.0,0.0,0.0,0.0,0.0,0.0,0.0,0.0,0.0,-1.3909,-1.401,-1.3817,-1.4106,-1.4016,-1.3346,-1.3249,-1.3152,-1.2764,-1.2662,-1.2565,-1.2565,-1.2565,-1.2667,-1.2861,-1.3152,-1.3249,-1.3249,-1.3249,-1.3249,-1.3249,-1.2657,-1.2657,-1.2845,-1.1658,-1.117,-1.0877,-1.0079,-0.9099,-0.812,-0.7922,-0.7129,-0.6437,-0.6437,-0.6437,-0.6437,-0.6437,-0.6437,-0.6437,-0.6437,-0.6437,-0.6437,-0.6437,-0.6437,-0.6437,-0.6437,-0.6437,-0.6437,-0.6437,-0.6437,-0.6437,-0.6437,-0.6437,-0.6437,-0.6437,-0.6437,-0.6437,-0.6437,-0.6437,-0.6437,-0.6437,-0.6437,-0.6437,-0.6437,-0.6437,-0.6437,-0.6437,-0.6437,-0.6237,-0.5937,-0.5534,-0.5233,-0.5031,-0.4832,-0.4531,-0.3825,-0.4331,-0.423,-0.3626,-0.3428,-0.3327,-0.9034,0.0,0.0,0.0,0.0,0.0,0.0,0.0,0.0,0.0,0.0,0.0,0.0,0.0,0.0,0.0,0.0,0.0,0.0,0.0,0.0,0.0,0.0,0.0,0.0,0.0,0.0,0.0,0.0,0.0,0.0,-1.4002,-1.4141,-1.4141,-1.4244,-1.4106,-1.3823,-1.3636,-1.3443,-1.3437,-1.3147,-1.3147,-1.3437,-1.3147,-1.3097,-1.329,-1.3576,-1.3671,-1.3683,-1.3782,-1.3823,-1.3823,-1.3534,-1.3534,-1.3727,-1.2931,-1.2543,-1.2252,-1.1453,-1.0471,-0.9596,-0.9296,-0.8312,-0.7229,-0.7229,-0.6833,-0.6437,-0.6437,-0.6437,-0.6437,-0.6437,-0.6437,-0.6437,-0.6437,-0.6437,-0.6437,-0.6437,-0.6437,-0.6437,-0.6437,-0.6437,-0.6437,-0.6437,-0.6437,-0.6437,-0.6437,-0.6437,-0.6437,-0.6437,-0.6437,-0.6437,-0.6437,-0.6437,-0.6437,-0.6437,-0.6437,-0.6437,-0.6437,-0.6437,-0.6437,-0.6437,-0.6137,-0.5937,-0.5937,-0.5636,-0.5334,-0.5135,-0.5135,-0.5035,-0.4834,-0.4433,-0.4334,0.0,0.0,0.0,0.0,0.0,0.0,0.0,0.0,0.0,0.0,0.0,0.0,0.0,0.0,0.0,0.0,0.0,0.0,0.0,0.0,0.0,0.0,0.0,0.0,0.0,0.0,0.0,0.0,0.0,0.0,0.0,-1.3725,-1.387,-1.387,-1.4123,-1.4262,-1.4262,-1.3811,-1.3823,-1.4298,-1.3823,-1.3823,-1.4298,-1.3823,-1.3683,-1.3906,-1.3882,-1.387,-1.3888,-1.4129,-1.4226,-1.4226,-1.4226,-1.4244,-1.4262,-1.4262,-1.3992,-1.3437,-1.2737,-1.2145,-1.156,-1.0765,-0.9686,-0.8609,-0.8513,-0.7524,-0.6534,-0.6437,-0.6437,-0.6437,-0.6437,-0.6437,-0.6437,-0.6437,-0.6437,-0.6437,-0.6437,-0.6437,-0.6437,-0.6437,-0.6437,-0.6437,-0.6437,-0.6437,-0.6437,-0.6437,-0.6437,-0.6437,-0.6437,-0.6437,-0.6437,-0.6437,-0.6437,-0.6437,-0.6437,-0.6437,-0.6437,-0.6437,-0.6437,-0.6437,-0.6437,-0.6437,-0.6437,-0.6437,-0.6437,-0.6137,-0.5634,-0.5634,-0.5434,-0.4935,-0.4935,-0.4834,0.0,0.0,0.0,0.0,0.0,0.0,0.0,0.0,0.0,0.0,0.0,0.0,0.0,0.0,0.0,0.0,0.0,0.0,0.0,0.0,0.0,0.0,0.0,0.0,0.0,0.0,0.0,0.0,0.0,0.0,-1.3212,-1.3459,-1.3598,-1.3598,-1.3851,-1.399,-1.399,-1.41,-1.4202,0.0,-1.4202,-1.4202,-1.4298,-1.4202,-1.4058,-1.3894,-1.3688,-1.3598,-1.3604,-1.3658,-1.3682,-1.3682,-1.3682,-1.3809,-1.399,-1.399,-1.4028,-1.4106,-1.3908,-1.3119,-1.2145,-1.1945,-1.1058,-0.9784,-0.9,-0.8414,-0.7822,-0.6939,-0.6539,-0.6437,-0.6437,-0.6437,-0.6437,-0.6437,-0.6437,-0.6437,-0.6437,-0.6437,-0.6437,-0.6437,-0.6437,-0.6437,-0.6437,-0.6437,-0.6437,-0.6437,-0.6437,-0.6437,-0.6437,-0.6437,-0.6437,-0.6437,-0.6437,-0.6437,-0.6437,-0.6437,-0.6437,-0.6437,-0.6437,-0.6437,-0.6437,-0.6437,-0.6437,-0.6437,-0.6437,-0.6337,-0.6237,-0.6237,-0.6137,-0.6034,-0.5636,-0.5434,0.0,0.0,0.0,0.0,0.0,0.0,0.0,0.0,0.0,0.0,0.0,0.0,0.0,0.0,0.0,0.0,0.0,0.0,0.0,0.0,0.0,0.0,0.0,0.0,0.0,0.0,0.0,0.0,0.0,-1.2922,-1.2922,-1.3181,-1.3332,-1.3332,-1.3586,-1.3719,-1.3719,-1.3978,-1.4111,-1.4111,-1.4238,-1.4232,-1.4105,-1.3978,-1.3845,-1.3707,-1.3441,-1.3332,-1.3338,-1.3465,-1.3513,-1.3513,-1.3513,-1.3598,-1.3719,-1.3719,-1.3803,-1.3924,-1.3924,-1.3526,-1.3048,-1.3048,-1.1956,-1.0476,-0.9891,-0.881,-0.7726,-0.7138,-0.6842,-0.6639,-0.6639,-0.6537,-0.6437,-0.6437,-0.6437,-0.6437,-0.6437,-0.6437,-0.6437,-0.6437,-0.6437,-0.6437,-0.6437,-0.6437,-0.6437,-0.6437,-0.6437,-0.6437,-0.6437,-0.6437,-0.6437,-0.6437,-0.6437,-0.6437,-0.6437,-0.6437,-0.6437,-0.6437,-0.6437,-0.6437,-0.6437,-0.6437,-0.6437,-0.6437,-0.6437,-0.6437,-0.6437,-0.6437,-0.6437,-0.6437,-0.6137,-0.5934,0.0,0.0,0.0,0.0,0.0,0.0,0.0,0.0,0.0,0.0,0.0,0.0,0.0,0.0,0.0,0.0,0.0,0.0,0.0,0.0,0.0,0.0,0.0,0.0,0.0,0.0,0.0,0.0,0.0,-1.2705,-1.2705,-1.2922,-1.3055,-1.3055,-1.3308,-1.3447,-1.3447,-1.3707,-1.3839,-1.3839,-1.4057,-1.4051,-1.3833,-1.3568,-1.3447,-1.3435,-1.3169,-1.3055,-1.3067,-1.3284,-1.3375,-1.3375,-1.3375,-1.3405,-1.3447,-1.3447,-1.3477,-1.3513,-1.3513,-1.3658,-1.3839,-1.3839,-1.2647,-1.126,-1.1066,-0.9433,-0.7694,-0.7496,-0.722,-0.6842,-0.6842,-0.6739,-0.6537,-0.6437,-0.6437,-0.6437,-0.6437,-0.6437,-0.6437,-0.6437,-0.6437,-0.6437,-0.6437,-0.6437,-0.6437,-0.6437,-0.6437,-0.6437,-0.6437,-0.6437,-0.6437,-0.6437,-0.6437,-0.6437,-0.6437,-0.6437,-0.6437,-0.6437,-0.6437,-0.6437,-0.6437,-0.6437,-0.6437,-0.6437,-0.6437,-0.6437,-0.6437,-0.6437,-0.6437,-0.6437,-0.6437,-0.6437,0.0,0.0,0.0,0.0,0.0,0.0,0.0,0.0,0.0,0.0,0.0,0.0,0.0,0.0,0.0,0.0,0.0,0.0,0.0,0.0,0.0,0.0,0.0,0.0,0.0,0.0,0.0,0.0,-1.2705,-1.2705,-1.2705,-1.2741,-1.2759,-1.2759,-1.3031,-1.3175,-1.3175,-1.3435,-1.3568,-1.3568,-1.3604,-1.3598,-1.3556,-1.3296,-1.3175,-1.3157,-1.288,-1.2759,-1.2765,-1.2795,-1.2813,-1.2813,-1.2813,-1.2964,-1.3175,-1.3175,-1.332,-1.3513,-1.3513,-1.3538,-1.3568,-1.3568,-1.3403,-1.2969,-1.2037,-1.0952,-0.9757,-0.8887,-0.7923,-0.7138,-0.7138,-0.7138,-0.7039,-0.6842,-0.6742,-0.6642,-0.6437,-0.6437,-0.6437,-0.6437,-0.6437,-0.6437,-0.6437,-0.6437,-0.6437,-0.6437,-0.6437,-0.6437,-0.6437,-0.6437,-0.6437,-0.6437,-0.6437,-0.6437,-0.6437,-0.6437,-0.6437,-0.6437,-0.6437,-0.6437,-0.6437,-0.6437,-0.6437,-0.6437,-0.6437,-0.6437,-0.6437,-0.6437,-0.6437,-0.6437,-0.6437,-0.6437,0.0,0.0,0.0,0.0,0.0,0.0,0.0,0.0,0.0,0.0,0.0,0.0,0.0,0.0,0.0,0.0,0.0,0.0,0.0,0.0,0.0,0.0,0.0,0.0,0.0,0.0,0.0,0.0,-1.2705,-1.2705,-1.2705,-1.2705,-1.2705,-1.2705,-1.2825,-1.2886,-1.2886,-1.3157,-1.3369,-1.3513,-1.3513,-1.3435,-1.3296,-1.3175,-1.3127,-1.3109,-1.2825,-1.2705,-1.2705,-1.2705,-1.2705,-1.2705,-1.2705,-1.2777,-1.2886,-1.2886,-1.2964,-1.3061,-1.3061,-1.3163,-1.3296,-1.3296,-1.2936,-1.2523,-1.2188,-1.1452,-1.0414,-0.9555,-0.8762,-0.8226,-0.754,-0.7341,-0.7138,-0.7042,-0.6942,-0.6742,-0.6642,-0.6539,-0.6437,-0.6437,-0.6437,-0.6437,-0.6437,-0.6437,-0.6437,-0.6437,-0.6437,-0.6437,-0.6437,-0.6437,-0.6437,-0.6437,-0.6437,-0.6437,-0.6437,-0.6437,-0.6437,-0.6437,-0.6437,-0.6437,-0.6437,-0.6437,-0.6437,-0.6437,-0.6437,-0.6437,-0.6437,-0.6437,-0.6437,-0.6437,-0.6437,-0.6437,0.0,0.0,0.0,0.0,0.0,0.0,0.0,0.0,0.0,0.0,0.0,0.0,0.0,0.0,0.0,0.0,0.0,0.0,0.0,0.0,0.0,0.0,0.0,0.0,0.0,0.0,0.0,0.0,-1.2705,-1.2705,-1.2705,-1.2705,-1.2705,-1.2705,-1.2705,-1.2705,-1.2705,-1.291,-1.3115,-1.3308,-1.3308,-1.3206,-1.3019,-1.3019,-1.3019,-1.3006,-1.2795,-1.2705,-1.2705,-1.2705,-1.2705,-1.2705,-1.2705,-1.2705,-1.2705,-1.2705,-1.2705,-1.2705,-1.2705,-1.2843,-1.3019,-1.3019,-1.2655,-1.2257,-1.2433,-1.1911,-1.0991,-1.0179,-0.9571,-0.9019,-0.7939,-0.754,-0.7338,-0.7341,-0.7141,-0.6945,-0.6742,-0.6539,-0.6437,-0.6437,-0.6437,-0.6437,-0.6437,-0.6437,-0.6437,-0.6437,-0.6437,-0.6437,-0.6437,-0.6437,-0.6437,-0.6437,-0.6437,-0.6437,-0.6437,-0.6437,-0.6437,-0.6437,-0.6437,-0.6437,-0.6437,-0.6437,-0.6437,-0.6437,-0.6437,-0.6437,-0.6437,-0.6437,-0.6437,-0.6437,-0.6437,-0.6437,0.0,0.0,0.0,0.0,0.0,0.0,0.0,0.0,0.0,0.0,0.0,0.0,0.0,0.0,0.0,0.0,0.0,0.0,0.0,0.0,0.0,0.0,0.0,0.0,0.0,0.0,0.0,0.0,-1.2705,-1.2705,-1.2705,-1.2705,-1.2705,-1.2705,-1.2705,-1.2705,-1.2705,-1.2717,-1.2735,-1.2747,-1.2747,-1.2741,-1.2729,-1.2729,-1.2729,-1.2729,-1.2711,-1.2705,-1.2705,-1.2705,-1.2705,-1.2705,-1.2705,-1.2705,-1.2705,-1.2705,-1.2705,-1.2705,-1.2705,-1.2711,-1.2729,-1.2729,-1.2829,-1.3057,-1.3069,-1.2677,-1.2005,-1.0977,-1.0153,-0.9316,-0.8237,-0.7942,-0.7939,-0.7643,-0.7547,-0.7344,-0.6539,-0.6437,-0.6437,-0.6437,-0.6437,-0.6437,-0.6437,-0.6437,-0.6437,-0.6437,-0.6437,-0.6437,-0.6437,-0.6437,-0.6437,-0.6437,-0.6437,-0.6437,-0.6437,-0.6437,-0.6437,-0.6437,-0.6437,-0.6437,-0.6437,-0.6437,-0.6437,-0.6437,-0.6437,-0.6437,-0.6437,-0.6437,-0.6437,-0.6437,-0.6437,-0.6437,0.0,0.0,0.0,0.0,0.0,0.0,0.0,0.0,0.0,0.0,0.0,0.0,0.0,0.0,0.0,0.0,0.0,0.0,0.0,0.0,0.0,0.0,0.0,0.0,0.0,0.0,0.0,0.0,0.0,-1.2705,-1.2705,-1.2705,-1.2705,-1.2705,-1.2705,-1.2705,-1.2705,-1.2705,-1.2705,-1.2705,-1.2705,-1.2705,-1.2705,-1.2705,-1.2705,-1.2705,-1.2705,-1.2705,-1.2705,-1.2705,-1.2705,-1.2705,-1.2705,-1.2705,-1.2705,-1.2705,-1.2705,-1.2705,-1.2705,-1.2705,-1.2735,-1.2916,-1.3043,-1.3188,-1.3525,-1.3472,-1.3174,-1.2273,-1.1793,-1.117,-0.9509,-0.9019,-0.8825,-0.7842,-0.7646,-0.7447,-0.6842,-0.6642,-0.6639,-0.6437,-0.6437,-0.6437,-0.6437,-0.6437,-0.6437,-0.6437,-0.6437,-0.6437,-0.6437,-0.6437,-0.6437,-0.6437,-0.6437,-0.6437,-0.6437,-0.6437,-0.6437,-0.6437,-0.6437,-0.6437,-0.6437,-0.6437,-0.6437,-0.6437,-0.6437,-0.6437,-0.6437,-0.6437,-0.6437,-0.6437,-0.6437,-0.6437,0.0,0.0,0.0,0.0,0.0,0.0,0.0,0.0,0.0,0.0,0.0,0.0,0.0,0.0,0.0,0.0,0.0,0.0,0.0,0.0,0.0,0.0,0.0,0.0,0.0,0.0,0.0,0.0,0.0,0.0,-1.3385,-1.313,-1.296,-1.2705,-1.2705,-1.2705,-1.2705,-1.2705,-1.2705,-1.2705,-1.2705,-1.2705,-1.2705,-1.2705,-1.2705,-1.2705,-1.2705,-1.2705,-1.2705,-1.2705,-1.2705,-1.2705,-1.2705,-1.2705,-1.2705,-1.2705,-1.2705,-1.2705,-1.2705,-1.2705,-1.2747,-1.3031,-1.3181,-1.3338,-1.3773,-1.3966,-1.388,-1.2978,-1.2727,-1.2339,-1.0583,-1.0096,-0.9899,-0.9019,-0.8531,-0.8134,-0.7736,-0.7141,-0.6742,-0.6437,-0.6437,-0.6437,-0.6437,-0.6437,-0.6437,-0.6437,-0.6437,-0.6437,-0.6437,-0.6437,-0.6437,-0.6437,-0.6437,-0.6437,-0.6437,-0.6437,-0.6437,-0.6437,-0.6437,-0.6437,-0.6437,-0.6437,-0.6437,-0.6437,-0.6437,-0.6437,-0.6437,-0.6437,-0.6437,-0.6437,-0.6437,-0.6437,0.0,0.0,0.0,0.0,0.0,0.0,0.0,0.0,0.0,0.0,0.0,0.0,0.0,0.0,0.0,0.0,0.0,0.0,0.0,0.0,0.0,0.0,0.0,0.0,0.0,0.0,0.0,0.0,-1.4314,-1.465,-1.4734,-1.4068,-1.3392,-1.279,-1.2705,-1.2705,-1.2705,-1.2705,-1.2705,-1.2705,-1.2705,-1.2705,-1.2705,-1.2705,-1.2705,-1.2705,-1.2705,-1.2705,-1.2705,-1.2705,-1.2705,-1.2705,-1.2705,-1.2705,-1.2705,-1.2705,-1.2705,-1.2705,-1.2705,-1.2705,-1.2753,-1.3043,-1.3308,-1.3562,-1.3833,-1.4093,-1.41,-1.3022,-1.2732,-1.2533,-1.1463,-1.1268,-1.117,-1.117,-1.0391,-0.9608,-0.9312,-0.8031,-0.6842,-0.6437,-0.6437,-0.6437,-0.6437,-0.6437,-0.6437,-0.6437,-0.6437,-0.6437,-0.6437,-0.6437,-0.6437,-0.6437,-0.6437,-0.6437,-0.6437,-0.6437,-0.6437,-0.6437,-0.6437,-0.6437,-0.6437,-0.6437,-0.6437,-0.6437,-0.6437,-0.6437,-0.6437,-0.6437,-0.6437,-0.6437,-0.6437,-0.6437,-1.3356,0.0,0.0,0.0,0.0,0.0,0.0,0.0,0.0,0.0,0.0,0.0,0.0,0.0,0.0,0.0,0.0,0.0,0.0,0.0,0.0,0.0,0.0,0.0,0.0,0.0,0.0,0.0,-1.4153,-1.4153,-1.465,-1.4068,-1.3652,-1.3392,-1.296,-1.2705,-1.2705,-1.2705,-1.2705,-1.2705,-1.2705,-1.2705,-1.2705,-1.2705,-1.2705,-1.2705,-1.2705,-1.2705,-1.2705,-1.2705,-1.2705,-1.2705,-1.2705,-1.2705,-1.2705,-1.2705,-1.2705,-1.2705,-1.2705,-1.2705,-1.2783,-1.3254,-1.3459,-1.3598,-1.4051,-1.4238,-1.4202,-1.3908,-1.3902,-1.3607,-1.2533,-1.1755,-1.117,-1.117,-1.0979,-1.0685,-1.0391,-0.9993,-0.911,-0.7039,-0.6642,-0.6639,-0.6437,-0.6437,-0.6437,-0.6437,-0.6437,-0.6437,-0.6437,-0.6437,-0.6437,-0.6437,-0.6437,-0.6437,-0.6437,-0.6437,-0.6437,-0.6437,-0.6437,-0.6437,-0.6437,-0.6437,-0.6437,-0.6437,-0.6437,-0.6437,-0.6437,-0.6437,-0.6437,-0.6437,-0.6437,-0.6437,0.0,0.0,0.0,0.0,0.0,0.0,-1.3001,-1.3243,0.0,0.0,0.0,0.0,0.0,0.0,0.0,0.0,0.0,0.0,0.0,0.0,0.0,0.0,0.0,0.0,0.0,-1.5235,-1.4985,-1.5068,-1.4985,-1.4985,-1.5068,-1.4734,-1.4321,-1.3737,-1.3307,-1.296,-1.2705,-1.2705,-1.2705,-1.2705,-1.2705,-1.2705,-1.2705,-1.2705,-1.2705,-1.2705,-1.2705,-1.2705,-1.2705,-1.2705,-1.2705,-1.2705,-1.2705,-1.2705,-1.2705,-1.2705,-1.2705,-1.2705,-1.2705,-1.2705,-1.2795,-1.3338,-1.3513,-1.361,-1.4135,-1.4298,-1.4298,-1.4298,-1.4298,-1.4202,-1.3511,-1.2926,-1.2538,-1.2538,-1.2145,-1.1755,-1.1658,-1.1268,-1.0288,-0.7925,-0.7431,-0.7235,-0.6537,-0.6437,-0.6537,-0.6833,-0.6933,-0.7033,-0.7332,-0.7431,-0.7431,-0.7431,-0.7431,-0.7431,-0.7431,-0.7431,-0.7431,-0.7431,-0.7431,-0.7232,-0.6933,-0.6933,-0.6734,-0.6437,-0.6437,-0.6437,-0.6437,-0.6437,-0.6437,-0.6437,-0.6437,-0.6437,0.0,0.0,0.0,0.0,0.0,0.0,-1.2856,-1.3423,-1.3963,0.0,0.0,0.0,0.0,0.0,0.0,0.0,0.0,0.0,0.0,0.0,0.0,0.0,0.0,0.0,-1.5982,-1.6312,-1.6402,-1.5816,-1.6402,-1.6402,-1.5816,-1.5733,-1.5151,-1.3984,-1.3822,-1.3392,-1.279,-1.2705,-1.2705,-1.2705,-1.2705,-1.2705,-1.2705,-1.2705,-1.2705,-1.2705,-1.2705,-1.2705,-1.2705,-1.2705,-1.2705,-1.2705,-1.2705,-1.2705,-1.2705,-1.2705,-1.2705,-1.2705,-1.2705,-1.2705,-1.2795,-1.3338,-1.3513,-1.361,-1.4135,-1.4298,-1.4298,-1.4298,-1.4298,-1.4298,-1.4298,-1.4298,-1.4298,-1.4298,-1.3607,-1.2926,-1.2926,-1.2145,-1.0974,-0.9201,-0.8707,-0.8315,-0.703,-0.6833,-0.7033,-0.7726,-0.773,-0.8028,-0.8726,-0.8825,-0.8825,-0.8825,-0.8825,-0.8825,-0.8825,-0.8825,-0.8825,-0.8825,-0.8825,-0.8524,-0.773,-0.773,-0.7431,-0.6634,-0.6537,-0.6537,-0.6437,-0.6437,-0.6437,-0.6437,-0.6437,-0.6437,0.0,0.0,0.0,0.0,0.0,0.0,-1.3384,-1.3848,-1.4056,0.0,0.0,0.0,0.0,0.0,0.0,0.0,0.0,0.0,0.0,0.0,0.0,0.0,0.0,0.0,-1.7066,-1.6402,-1.6064,-1.6484,-1.6648,-1.6648,-1.6484,-1.5982,-1.5567,-1.5318,-1.423,-1.3652,-1.3476,-1.296,-1.2705,-1.2705,-1.2705,-1.2705,-1.2705,-1.2705,-1.2705,-1.2705,-1.2705,-1.2705,-1.2705,-1.2705,-1.2705,-1.2705,-1.2705,-1.2705,-1.2705,-1.2705,-1.2705,-1.2705,-1.2705,-1.2705,-1.2795,-1.3338,-1.3513,-1.361,-1.4135,-1.4298,-1.4298,-1.4298,-1.4298,-1.4298,-1.4298,-1.4298,-1.4298,-1.4298,-1.41,-1.4004,-1.4004,-1.3806,-1.3318,-1.1848,-1.0872,-1.0186,-0.9682,-0.93,-0.9011,-0.9213,-0.8821,-0.8627,-0.8825,-0.8825,-0.8825,-0.8825,-0.8825,-0.8825,-0.8825,-0.8825,-0.8825,-0.8825,-0.8825,-0.8726,-0.8528,-0.8528,-0.8524,-0.8326,-0.773,-0.7033,-0.6437,-0.6437,-0.6437,-0.6437,-0.6437,-0.6437,0.0,0.0,0.0,-1.3761,0.0,0.0,0.0,-1.3893,-1.4225,-1.3477,0.0,0.0,0.0,0.0,0.0,0.0,0.0,0.0,0.0,0.0,0.0,0.0,0.0,0.0,-1.7392,-1.6894,-1.6566,-1.6648,-1.673,-1.673,-1.673,-1.6402,-1.6064,-1.5733,-1.5068,-1.4573,-1.4237,-1.3893,-1.3717,-1.3717,-1.3717,-1.3717,-1.3724,-1.3385,-1.3222,-1.3222,-1.2875,-1.2705,-1.2705,-1.2705,-1.2705,-1.2705,-1.2705,-1.2705,-1.2705,-1.2705,-1.2705,-1.2705,-1.2705,-1.2705,-1.2795,-1.3338,-1.3513,-1.361,-1.4135,-1.4298,-1.4298,-1.4298,-1.4298,-1.4298,-1.4298,-1.4298,-1.4298,-1.4298,-1.4298,-1.4298,-1.4298,-1.4298,-1.41,-1.3414,-1.2926,-1.2042,-1.0663,-1.0177,-1.0186,-1.0583,-1.0096,-0.9903,-1.0301,-1.0203,-1.001,-1.001,-1.001,-1.001,-1.001,-1.001,-1.001,-1.001,-1.001,-0.9813,-0.9422,-0.9422,-0.9221,-0.8825,-0.8619,-0.8418,-0.8021,-0.8312,-0.7717,-0.6437,-0.6437,-0.6437,0.0,0.0,0.0,0.0,0.0,-1.3535,0.0,0.0,0.0,-1.3679,0.0,0.0,0.0,0.0,0.0,0.0,0.0,0.0,0.0,0.0,0.0,0.0,0.0,0.0,0.0,-1.7307,-1.7082,-1.6722,-1.6603,-1.6587,-1.6722,-1.673,-1.6484,-1.5899,-1.5733,-1.5401,-1.4901,-1.4734,-1.4734,-1.4734,-1.4734,-1.4734,-1.465,-1.4153,-1.3899,-1.3899,-1.33,-1.3039,-1.2875,-1.2875,-1.279,-1.2705,-1.2705,-1.2705,-1.2705,-1.2705,-1.2705,-1.2705,-1.2705,-1.2705,-1.2795,-1.3338,-1.3586,-1.3743,-1.4171,-1.4298,-1.4298,-1.4298,-1.4298,-1.4298,-1.4298,-1.4298,-1.4298,-1.4298,-1.4298,-1.4298,-1.4298,-1.4298,-1.4298,-1.4298,-1.4298,-1.3607,-1.1541,-1.1058,-1.1258,-1.1858,-1.1565,-1.1375,-1.2078,-1.1785,-1.1487,-1.1487,-1.1487,-1.1487,-1.1487,-1.1487,-1.1487,-1.1487,-1.1487,-1.1198,-1.0609,-1.0511,-1.0109,-0.9312,-0.9805,-0.9899,-0.9801,-1.0177,-0.919,-0.683,-0.683,-0.6734,0.0,0.0,0.0,0.0,-1.389,0.0,0.0,0.0,-1.2941,-1.2924,0.0,0.0,0.0,0.0,0.0,0.0,0.0,0.0,0.0,0.0,0.0,0.0,0.0,0.0,0.0,-1.7081,-1.6682,-1.6683,-1.6229,-1.6228,-1.6698,-1.673,-1.6648,-1.6566,-1.5989,-1.565,-1.5567,-1.4985,-1.4734,-1.4734,-1.4734,-1.4734,-1.4734,-1.465,-1.4573,-1.4566,-1.4482,-1.4146,-1.3561,-1.3561,-1.3222,-1.2705,-1.2705,-1.2705,-1.2705,-1.2705,-1.2705,-1.2705,-1.2705,-1.2705,-1.2795,-1.3338,-1.3827,-1.422,-1.428,-1.4298,-1.4298,-1.4298,-1.4298,-1.4298,-1.4298,-1.4298,-1.4298,-1.4298,-1.4298,-1.4298,-1.4298,-1.4298,-1.4298,-1.4298,-1.4298,-1.4196,-1.3902,-1.3426,-1.3141,-1.3244,-1.2856,-1.2565,-1.2662,-1.2667,-1.2667,-1.2667,-1.2667,-1.2667,-1.2667,-1.2667,-1.2667,-1.2667,-1.2667,-1.257,-1.2467,-1.2467,-1.2068,-1.1272,-1.1365,-1.1068,-1.0271,-1.0369,-0.9784,-0.851,-0.851,-0.8018,0.0,0.0,0.0,0.0,0.0,0.0,-1.3882,0.0,-1.3305,0.0,0.0,0.0,0.0,0.0,0.0,0.0,0.0,0.0,0.0,0.0,0.0,0.0,0.0,0.0,0.0,0.0,0.0,0.0,-1.6862,-1.6742,-1.6722,-1.673,-1.673,-1.673,-1.6402,-1.6319,-1.6319,-1.5982,-1.5816,-1.5816,-1.5816,-1.5816,-1.5816,-1.5484,-1.5318,-1.5235,-1.4901,-1.4566,-1.4237,-1.3822,-1.3561,-1.3222,-1.2875,-1.2705,-1.2705,-1.2705,-1.2705,-1.2705,-1.2705,-1.2705,-1.2795,-1.3338,-1.387,-1.4298,-1.4298,-1.4298,-1.4298,-1.4298,-1.4298,-1.4298,-1.4298,-1.4298,-1.4298,-1.4298,-1.4298,-1.4298,-1.4298,-1.4298,-1.4298,-1.4298,-1.4298,-1.4298,-1.4298,-1.4106,-1.3919,-1.3919,-1.3534,-1.3249,-1.3249,-1.2958,-1.2764,-1.2764,-1.2764,-1.2764,-1.2764,-1.2764,-1.2764,-1.2764,-1.2764,-1.2764,-1.2764,-1.2764,-1.2662,-1.2262,-1.2554,-1.2549,-1.2247,-1.2528,-1.2134,-1.1058,-1.0177,-0.9489,-1.5856,0.0,0.0,0.0,0.0,0.0,0.0,0.0,0.0,0.0,0.0,0.0,0.0,0.0,0.0,0.0,0.0,0.0,0.0,0.0,0.0,0.0,0.0,0.0,0.0,0.0,0.0,-1.699,-1.7095,-1.7016,-1.6722,-1.673,-1.673,-1.6902,-1.6738,-1.673,-1.6902,-1.673,-1.673,-1.673,-1.673,-1.673,-1.6656,-1.6237,-1.6064,-1.6147,-1.565,-1.5401,-1.5311,-1.481,-1.4475,-1.43,-1.3626,-1.3288,-1.3118,-1.2784,-1.2705,-1.2705,-1.2705,-1.2801,-1.2994,-1.3387,-1.387,-1.4298,-1.4298,-1.4298,-1.4298,-1.4298,-1.4298,-1.4298,-1.4298,-1.4298,-1.4298,-1.4298,-1.4298,-1.4298,-1.4298,-1.4298,-1.4298,-1.4298,-1.4298,-1.4298,-1.4298,-1.4298,-1.4298,-1.4298,-1.401,-1.3732,-1.3732,-1.3437,-1.3244,-1.3244,-1.3244,-1.3244,-1.3244,-1.3244,-1.3244,-1.3244,-1.3244,-1.3244,-1.3244,-1.3244,-1.3244,-1.3244,-1.3534,-1.3732,-1.3732,-1.4106,-1.3902,-1.3119,-1.1648,-1.0858,0.0,0.0,0.0,-1.6002,0.0,0.0,0.0,0.0,-1.309,0.0,0.0,0.0,0.0,0.0,0.0,0.0,0.0,0.0,0.0,0.0,0.0,0.0,0.0,0.0,0.0,0.0,0.0,-1.5964,-1.6403,-1.6641,-1.6698,-1.673,-1.6902,-1.7392,-1.6902,-1.6902,-1.7392,-1.6902,-1.673,-1.673,-1.673,-1.673,-1.673,-1.6656,-1.6902,-1.731,-1.731,-1.7139,-1.6952,-1.687,-1.6527,-1.5928,-1.5462,-1.488,-1.4196,-1.3118,-1.2705,-1.2705,-1.2705,-1.3049,-1.3495,-1.3507,-1.387,-1.4298,-1.4298,-1.4298,-1.4298,-1.4298,-1.4298,-1.4298,-1.4298,-1.4298,-1.4298,-1.4298,-1.4298,-1.4298,-1.4298,-1.4298,-1.4298,-1.4298,-1.4298,-1.4298,-1.4298,-1.4298,-1.4298,-1.4298,-1.4298,-1.4298,-1.4298,-1.4298,-1.4298,-1.4298,-1.4298,-1.4298,-1.4298,-1.4298,-1.4298,-1.4298,-1.4298,-1.4298,-1.4298,-1.4298,-1.4298,-1.4298,-1.4298,-1.4298,-1.4298,-1.4298,-1.4292,-1.4202,-1.3119,-1.2145,0.0,0.0,-1.9518,-1.7601,0.0,0.0,0.0,0.0,0.0,0.0,0.0,0.0,0.0,0.0,0.0,0.0,0.0,0.0,0.0,0.0,0.0,0.0,0.0,0.0,0.0,0.0,0.0,-1.6421,-1.6826,-1.6967,-1.6722,-1.6976,-1.7229,-1.7392,-1.7229,-1.7229,-1.7392,-1.6902,-1.6902,-1.7147,-1.7147,-1.731,-1.7546,-1.7546,-1.7635,-1.7797,-1.7797,-1.7708,-1.7619,-1.7204,-1.687,-1.6609,-1.6026,-1.5538,-1.4887,-1.3808,-1.3052,-1.2705,-1.2705,-1.2946,-1.3284,-1.3459,-1.3755,-1.4075,-1.4244,-1.4298,-1.4298,-1.4298,-1.4298,-1.4298,-1.4298,-1.4298,-1.4298,-1.4298,-1.4298,-1.4298,-1.4298,-1.4298,-1.4298,-1.4298,-1.4298,-1.4298,-1.4298,-1.4298,-1.4298,-1.4298,-1.4298,-1.4298,-1.4298,-1.4298,-1.4298,-1.4298,-1.4298,-1.4298,-1.4298,-1.4298,-1.4298,-1.4298,-1.4298,-1.4298,-1.4298,-1.4298,-1.4298,-1.4298,-1.4298,-1.4298,-1.4298,-1.4298,-1.4298,-1.4298,-1.3902,-1.3607,-2.1742,-2.1789,0.0,-1.9575,-1.9302,0.0,-1.6967,0.0,0.0,0.0,0.0,0.0,0.0,0.0,0.0,0.0,0.0,0.0,0.0,-1.1993,0.0,0.0,0.0,0.0,0.0,0.0,-1.6473,-1.6556,-1.6888,-1.7039,0.0,0.0,-1.7554,-1.7878,-1.7716,-1.7635,-1.7635,-1.7302,-1.7229,-1.7392,-1.7554,-1.7716,-1.804,-1.804,-1.8121,-1.8282,-1.8282,-1.8362,-1.8425,-1.8014,-1.7844,-1.7764,-1.718,-1.6683,-1.6041,-1.4552,-1.3379,-1.2705,-1.2705,-1.2886,-1.3163,-1.3429,-1.3688,-1.3954,-1.422,-1.4298,-1.4316,-1.4419,-1.4377,-1.4322,-1.4419,-1.437,-1.4298,-1.4298,-1.4298,-1.4298,-1.4298,-1.4298,-1.4298,-1.4298,-1.4298,-1.4298,-1.4298,-1.4298,-1.4298,-1.4298,-1.4298,-1.4298,-1.4298,-1.4298,-1.4298,-1.4298,-1.4298,-1.4298,-1.4298,-1.4298,-1.4298,-1.4298,-1.4298,-1.4298,-1.4298,-1.4298,-1.4346,-1.4443,-1.4346,-1.4346,-1.4443,-1.4346,-1.4298,-1.4298,-1.4298,-1.4298]},{"header":{"parameterUnit":"m.s-1","parameterCategory":1,"la1":30.6,"la2":29.2853,"lo1":-89.7004,"lo2":-87.6739,"dy":0.0162,"dx":0.0183,"nx":112,"ny":82,"refTime":"2023-07-04T18:00:00:Z","depth":0,"parameterNumber":3,"parameterNumberName":"V-component_of_WINDS"},"data":[0.0,0.0,0.0,0.0,0.0,0.0,0.0,0.0,0.0,0.0,0.0,0.0,0.0,0.0,0.0,0.0,0.0,0.0,0.0,0.0,0.0,0.0,0.0,0.0,0.0,0.0,0.0,0.0,0.0,0.0,0.0,0.0,0.0,0.0,0.0,0.0,0.0,0.0,0.0,0.0,0.0,0.0,0.0,0.0,0.0,0.0,0.0,0.0,0.0,0.0,0.0,0.0,0.0,0.0,0.0,0.0,0.0,0.0,0.0,0.0,0.0,0.0,0.0,0.0,0.0,0.0,0.0,0.0,0.0,0.0,0.0,0.0,0.0,0.0,0.0,0.0,0.0,0.0,0.0,0.0,0.0,0.0,0.0,0.0,0.0,0.0,0.0,0.0,0.0,0.0,0.0,-2.7967,-2.9312,-3.0204,-3.0204,-3.0204,-2.9445,-2.7706,0.0,0.0,0.0,0.0,0.0,0.0,0.0,0.0,0.0,0.0,0.0,0.0,0.0,0.0,0.0,0.0,0.0,0.0,0.0,0.0,0.0,0.0,0.0,0.0,0.0,0.0,0.0,0.0,0.0,0.0,0.0,0.0,0.0,0.0,0.0,0.0,0.0,0.0,0.0,0.0,0.0,0.0,0.0,0.0,0.0,0.0,0.0,0.0,0.0,0.0,0.0,0.0,0.0,0.0,0.0,0.0,0.0,0.0,0.0,0.0,0.0,0.0,0.0,0.0,0.0,0.0,0.0,0.0,0.0,0.0,0.0,0.0,0.0,0.0,0.0,0.0,0.0,0.0,0.0,0.0,0.0,0.0,0.0,0.0,0.0,0.0,0.0,0.0,0.0,0.0,0.0,0.0,0.0,0.0,0.0,0.0,0.0,0.0,0.0,0.0,0.0,0.0,0.0,0.0,-2.8158,-2.965,-3.0032,-3.0204,-3.0204,-3.0204,-2.9431,-2.7637,0.0,0.0,0.0,0.0,0.0,0.0,0.0,0.0,0.0,0.0,0.0,0.0,0.0,0.0,0.0,0.0,0.0,0.0,0.0,0.0,0.0,0.0,0.0,0.0,0.0,0.0,0.0,0.0,0.0,0.0,0.0,0.0,0.0,0.0,0.0,0.0,0.0,0.0,0.0,0.0,0.0,0.0,0.0,0.0,0.0,0.0,0.0,0.0,0.0,0.0,0.0,0.0,0.0,0.0,0.0,0.0,0.0,0.0,0.0,0.0,0.0,0.0,0.0,0.0,0.0,0.0,0.0,0.0,0.0,0.0,0.0,0.0,0.0,0.0,0.0,0.0,0.0,0.0,0.0,0.0,0.0,0.0,0.0,0.0,0.0,0.0,0.0,0.0,0.0,0.0,0.0,0.0,0.0,0.0,0.0,0.0,0.0,0.0,0.0,0.0,0.0,0.0,0.0,-2.7782,-2.896,-3.072,-3.1293,-3.156,-3.156,-3.156,-3.0791,-2.9022,-2.8434,0.0,0.0,0.0,0.0,0.0,0.0,0.0,0.0,0.0,0.0,0.0,0.0,0.0,0.0,0.0,0.0,0.0,0.0,0.0,0.0,0.0,0.0,0.0,0.0,0.0,0.0,0.0,0.0,0.0,0.0,0.0,0.0,0.0,0.0,0.0,0.0,0.0,0.0,0.0,0.0,0.0,0.0,0.0,0.0,0.0,0.0,0.0,0.0,0.0,0.0,0.0,0.0,0.0,0.0,0.0,0.0,0.0,0.0,0.0,0.0,0.0,0.0,0.0,0.0,0.0,0.0,0.0,0.0,0.0,0.0,0.0,0.0,0.0,0.0,0.0,0.0,0.0,0.0,0.0,0.0,0.0,0.0,0.0,0.0,0.0,0.0,0.0,0.0,0.0,0.0,0.0,0.0,0.0,0.0,0.0,0.0,0.0,0.0,0.0,0.0,0.0,0.0,-2.9131,-3.0309,-3.1637,-3.2344,-3.2691,-3.2691,-3.2691,-3.1955,-3.0183,-2.9402,0.0,0.0,0.0,0.0,0.0,0.0,0.0,0.0,0.0,0.0,0.0,0.0,0.0,0.0,0.0,0.0,0.0,0.0,0.0,0.0,0.0,0.0,0.0,0.0,0.0,0.0,0.0,0.0,0.0,0.0,0.0,0.0,0.0,0.0,0.0,0.0,0.0,0.0,0.0,0.0,0.0,0.0,0.0,0.0,0.0,0.0,0.0,0.0,0.0,0.0,0.0,0.0,0.0,0.0,0.0,0.0,0.0,0.0,0.0,0.0,0.0,0.0,0.0,0.0,0.0,0.0,0.0,0.0,0.0,0.0,0.0,0.0,0.0,0.0,0.0,0.0,0.0,0.0,0.0,0.0,0.0,0.0,0.0,0.0,0.0,0.0,0.0,0.0,0.0,0.0,0.0,0.0,0.0,0.0,0.0,0.0,0.0,0.0,0.0,0.0,0.0,0.0,-3.1397,-3.2481,-3.2596,-3.2672,-3.2691,-3.2691,-3.2691,-3.192,-3.0117,-2.995,0.0,0.0,0.0,0.0,0.0,0.0,0.0,0.0,0.0,0.0,0.0,0.0,0.0,0.0,0.0,0.0,0.0,0.0,0.0,0.0,0.0,0.0,0.0,0.0,0.0,0.0,0.0,0.0,0.0,0.0,0.0,0.0,0.0,0.0,0.0,0.0,0.0,0.0,0.0,0.0,0.0,0.0,0.0,0.0,0.0,0.0,0.0,0.0,0.0,0.0,0.0,0.0,0.0,0.0,0.0,0.0,0.0,0.0,0.0,0.0,0.0,0.0,0.0,0.0,0.0,0.0,0.0,0.0,0.0,0.0,0.0,0.0,0.0,0.0,0.0,0.0,0.0,0.0,0.0,0.0,0.0,0.0,0.0,0.0,0.0,0.0,0.0,0.0,0.0,0.0,0.0,0.0,0.0,0.0,0.0,0.0,0.0,0.0,0.0,0.0,0.0,0.0,-3.1615,-3.2905,0.0,-3.3968,-3.4273,-3.4273,-3.4273,-3.35,-3.1656,0.0,0.0,0.0,0.0,0.0,0.0,0.0,0.0,0.0,0.0,0.0,0.0,0.0,0.0,0.0,0.0,0.0,0.0,0.0,0.0,0.0,0.0,0.0,0.0,0.0,0.0,0.0,0.0,0.0,0.0,0.0,0.0,0.0,0.0,0.0,0.0,0.0,0.0,0.0,0.0,0.0,0.0,0.0,0.0,0.0,0.0,0.0,0.0,0.0,0.0,0.0,0.0,0.0,0.0,0.0,0.0,0.0,0.0,0.0,0.0,0.0,0.0,0.0,0.0,0.0,0.0,0.0,0.0,0.0,0.0,0.0,0.0,0.0,0.0,0.0,0.0,0.0,0.0,0.0,0.0,0.0,0.0,0.0,0.0,0.0,0.0,0.0,0.0,0.0,0.0,0.0,0.0,0.0,0.0,0.0,0.0,0.0,0.0,0.0,0.0,0.0,0.0,-3.0788,-3.2416,-3.3707,0.0,-3.4866,-3.5209,-3.5209,-3.5209,-3.4418,-3.2536,0.0,0.0,0.0,0.0,0.0,0.0,0.0,0.0,0.0,0.0,0.0,0.0,0.0,0.0,0.0,0.0,0.0,0.0,0.0,0.0,0.0,0.0,0.0,0.0,0.0,0.0,0.0,0.0,0.0,0.0,0.0,0.0,0.0,0.0,0.0,0.0,0.0,0.0,0.0,0.0,0.0,0.0,0.0,0.0,0.0,0.0,0.0,0.0,0.0,0.0,0.0,0.0,0.0,0.0,0.0,0.0,0.0,0.0,0.0,0.0,0.0,0.0,0.0,0.0,0.0,0.0,0.0,0.0,0.0,0.0,0.0,0.0,0.0,0.0,0.0,0.0,0.0,0.0,0.0,0.0,0.0,0.0,0.0,0.0,0.0,0.0,0.0,0.0,0.0,0.0,0.0,0.0,0.0,0.0,0.0,0.0,0.0,0.0,0.0,0.0,0.0,0.0,-3.2485,-3.4129,-3.5209,-3.5209,-3.5209,-3.5209,-3.5209,-3.5209,-3.4365,0.0,0.0,0.0,0.0,0.0,0.0,0.0,0.0,0.0,0.0,0.0,0.0,0.0,0.0,0.0,0.0,0.0,0.0,0.0,0.0,0.0,0.0,0.0,0.0,0.0,0.0,0.0,0.0,0.0,0.0,0.0,0.0,0.0,0.0,0.0,0.0,0.0,0.0,0.0,0.0,0.0,0.0,0.0,0.0,0.0,0.0,0.0,0.0,0.0,0.0,0.0,0.0,0.0,0.0,0.0,0.0,0.0,0.0,0.0,0.0,0.0,0.0,0.0,0.0,0.0,0.0,0.0,0.0,0.0,0.0,0.0,0.0,0.0,0.0,0.0,0.0,0.0,0.0,0.0,0.0,0.0,0.0,0.0,0.0,0.0,0.0,0.0,0.0,0.0,0.0,0.0,0.0,0.0,0.0,0.0,0.0,0.0,0.0,0.0,0.0,0.0,0.0,0.0,-3.2561,-3.4129,-3.5209,-3.5209,-3.5209,-3.5209,-3.5209,-3.5209,-3.4435,-3.2645,0.0,0.0,0.0,0.0,0.0,0.0,0.0,0.0,0.0,0.0,0.0,0.0,0.0,0.0,0.0,0.0,0.0,0.0,0.0,0.0,0.0,0.0,0.0,0.0,0.0,0.0,0.0,0.0,0.0,0.0,0.0,0.0,0.0,0.0,0.0,0.0,0.0,0.0,0.0,0.0,0.0,0.0,0.0,0.0,0.0,0.0,0.0,0.0,0.0,0.0,0.0,0.0,0.0,0.0,0.0,0.0,0.0,0.0,0.0,0.0,0.0,0.0,0.0,0.0,0.0,0.0,0.0,0.0,0.0,0.0,0.0,0.0,0.0,0.0,0.0,0.0,0.0,0.0,0.0,0.0,0.0,0.0,0.0,0.0,0.0,0.0,0.0,0.0,0.0,0.0,0.0,0.0,0.0,0.0,0.0,0.0,0.0,0.0,0.0,0.0,0.0,0.0,-3.2599,-3.4129,-3.5209,-3.5209,-3.5209,-3.5209,-3.5209,-3.5209,-3.4587,-3.317,0.0,0.0,0.0,0.0,0.0,0.0,0.0,0.0,0.0,0.0,0.0,0.0,0.0,0.0,0.0,0.0,0.0,0.0,0.0,0.0,0.0,0.0,0.0,0.0,0.0,0.0,0.0,0.0,0.0,0.0,0.0,0.0,0.0,0.0,0.0,0.0,0.0,0.0,0.0,0.0,0.0,0.0,0.0,0.0,0.0,0.0,0.0,0.0,0.0,0.0,0.0,0.0,0.0,0.0,0.0,0.0,0.0,0.0,0.0,0.0,0.0,0.0,0.0,0.0,0.0,0.0,0.0,0.0,0.0,0.0,0.0,0.0,0.0,0.0,0.0,0.0,0.0,0.0,0.0,0.0,0.0,0.0,0.0,0.0,0.0,0.0,0.0,0.0,0.0,0.0,0.0,0.0,0.0,0.0,0.0,0.0,0.0,0.0,0.0,0.0,0.0,0.0,-3.2599,-3.4129,-3.5209,-3.5209,-3.5209,-3.5209,-3.5209,-3.5209,-3.4797,-3.3876,0.0,0.0,0.0,0.0,0.0,0.0,0.0,0.0,0.0,0.0,0.0,0.0,0.0,0.0,0.0,0.0,0.0,0.0,0.0,0.0,0.0,0.0,0.0,0.0,0.0,0.0,0.0,0.0,0.0,0.0,0.0,0.0,0.0,0.0,0.0,0.0,0.0,0.0,0.0,0.0,0.0,0.0,0.0,0.0,0.0,0.0,0.0,0.0,0.0,0.0,0.0,0.0,0.0,0.0,0.0,0.0,0.0,0.0,0.0,0.0,-2.6099,0.0,0.0,0.0,0.0,0.0,0.0,0.0,0.0,0.0,0.0,0.0,0.0,0.0,0.0,0.0,0.0,0.0,0.0,0.0,0.0,0.0,0.0,0.0,0.0,0.0,0.0,0.0,0.0,0.0,0.0,0.0,0.0,0.0,0.0,0.0,0.0,0.0,0.0,0.0,0.0,0.0,-3.2599,-3.4129,-3.5209,-3.5209,-3.5209,-3.5209,-3.5209,-3.5209,-3.4814,-3.3925,-3.3715,0.0,0.0,0.0,0.0,0.0,0.0,0.0,0.0,0.0,0.0,0.0,0.0,0.0,0.0,0.0,0.0,0.0,0.0,0.0,0.0,0.0,0.0,0.0,0.0,0.0,0.0,0.0,0.0,0.0,0.0,0.0,0.0,0.0,0.0,0.0,0.0,0.0,0.0,0.0,0.0,0.0,0.0,0.0,0.0,0.0,0.0,0.0,0.0,0.0,0.0,0.0,0.0,0.0,0.0,0.0,0.0,0.0,0.0,0.0,0.0,-2.6782,0.0,0.0,0.0,0.0,0.0,0.0,0.0,0.0,0.0,0.0,0.0,0.0,0.0,0.0,0.0,0.0,0.0,0.0,0.0,0.0,0.0,0.0,0.0,0.0,0.0,0.0,0.0,0.0,0.0,0.0,0.0,0.0,0.0,0.0,0.0,0.0,0.0,0.0,0.0,0.0,-3.2542,-3.4129,-3.5209,-3.5209,-3.5209,-3.5209,-3.5209,-3.5209,-3.5002,-3.4547,-3.4129,0.0,0.0,0.0,0.0,0.0,0.0,0.0,0.0,0.0,0.0,0.0,0.0,0.0,0.0,0.0,0.0,0.0,0.0,0.0,0.0,0.0,0.0,0.0,0.0,0.0,0.0,0.0,0.0,0.0,0.0,0.0,0.0,0.0,0.0,0.0,0.0,0.0,0.0,0.0,0.0,0.0,0.0,0.0,0.0,0.0,0.0,0.0,0.0,0.0,0.0,0.0,0.0,0.0,-2.9717,-3.0107,-3.0112,-3.0737,-3.143,-3.2046,-2.9814,-2.9253,-2.9786,-2.8155,0.0,0.0,0.0,0.0,0.0,0.0,0.0,0.0,0.0,0.0,0.0,0.0,0.0,0.0,0.0,0.0,0.0,0.0,0.0,0.0,0.0,0.0,0.0,0.0,-3.3067,-3.3658,0.0,0.0,0.0,0.0,0.0,0.0,0.0,0.0,0.0,0.0,0.0,0.0,-3.2711,-3.4225,-3.5209,-3.5209,-3.5209,-3.5209,-3.5209,-3.5209,-3.5209,-3.5209,-3.4527,-3.3996,0.0,0.0,0.0,0.0,0.0,0.0,0.0,0.0,0.0,0.0,0.0,0.0,0.0,0.0,0.0,0.0,0.0,0.0,0.0,0.0,0.0,0.0,0.0,0.0,0.0,0.0,0.0,0.0,0.0,0.0,0.0,0.0,-2.5249,-2.5259,0.0,0.0,0.0,0.0,0.0,0.0,0.0,0.0,0.0,0.0,0.0,0.0,0.0,-2.908,-2.9156,-3.072,-3.1547,-3.1594,-3.2452,-3.2862,-3.2882,-3.2973,-3.3093,-3.3175,-3.2838,0.0,-3.1568,-3.1421,0.0,0.0,0.0,0.0,0.0,0.0,0.0,0.0,0.0,0.0,0.0,0.0,0.0,0.0,0.0,0.0,0.0,0.0,0.0,0.0,0.0,0.0,-3.4783,-3.4861,-3.5023,-3.509,0.0,-3.3511,-3.2454,-3.2343,-3.2376,0.0,0.0,0.0,0.0,0.0,0.0,0.0,-3.362,-3.4585,-3.5209,-3.5209,-3.5209,-3.5209,-3.5209,-3.5209,-3.5209,-3.5209,-3.5078,-3.4391,-3.2928,-3.3312,0.0,0.0,0.0,0.0,0.0,0.0,0.0,0.0,0.0,0.0,0.0,0.0,0.0,0.0,0.0,0.0,0.0,0.0,0.0,0.0,0.0,0.0,0.0,0.0,0.0,0.0,0.0,0.0,0.0,-2.5266,-2.5712,-2.6182,-2.5965,-2.5727,0.0,0.0,0.0,0.0,0.0,0.0,0.0,0.0,0.0,-3.042,-3.0758,-3.1168,-3.1691,-3.2423,-3.2798,-3.2848,-3.3707,-3.4139,-3.4159,-3.4647,-3.4859,-3.4859,-3.4853,-3.4612,-3.409,-3.2634,-3.1344,-3.0203,0.0,0.0,0.0,0.0,-2.9439,-2.9695,-3.1371,-3.1971,0.0,-3.1071,0.0,0.0,0.0,0.0,0.0,0.0,0.0,0.0,0.0,0.0,-3.4326,-3.5239,-3.547,-3.543,-3.5335,-3.468,-3.3949,0.0,-3.292,-3.2317,-3.1447,0.0,0.0,0.0,0.0,0.0,-3.3789,-3.4661,-3.5209,-3.5209,-3.5209,-3.5209,-3.5209,-3.5209,-3.5209,-3.5209,-3.5209,-3.4868,-3.4143,-3.3538,-3.2686,0.0,0.0,0.0,0.0,0.0,0.0,0.0,0.0,0.0,0.0,0.0,0.0,0.0,0.0,0.0,0.0,0.0,0.0,0.0,0.0,0.0,0.0,0.0,0.0,0.0,0.0,0.0,0.0,-2.621,-2.6695,-2.7186,-2.742,-2.7336,0.0,0.0,0.0,0.0,0.0,0.0,-3.0141,-3.0785,-3.1532,-3.2416,-3.2651,-3.3083,-3.3729,-3.3944,-3.4081,-3.4081,-3.4725,-3.5037,-3.5057,-3.5701,-3.5991,-3.5991,-3.5991,-3.5991,-3.5854,-3.3847,-3.279,-3.2365,-3.1655,-3.1144,-3.0832,-3.1171,-3.1287,-3.1527,-3.3234,-3.3854,-3.3813,-3.3311,0.0,-3.2318,-3.1371,0.0,0.0,0.0,0.0,-3.1535,-3.3274,-3.3729,-3.4028,-3.5272,-3.555,-3.5526,-3.5443,-3.5249,-3.4918,0.0,-3.3713,-3.2994,-3.2126,0.0,0.0,0.0,0.0,-3.3309,-3.4129,-3.4811,-3.5209,-3.5209,-3.5209,-3.5209,-3.5209,-3.5209,-3.5209,-3.5209,-3.5209,-3.5209,-3.5209,-3.3993,-3.3233,-3.3023,0.0,0.0,0.0,0.0,0.0,0.0,0.0,0.0,0.0,0.0,0.0,0.0,0.0,0.0,0.0,0.0,0.0,0.0,0.0,0.0,0.0,0.0,0.0,0.0,0.0,0.0,0.0,0.0,0.0,-2.8228,-2.8868,0.0,0.0,0.0,0.0,-3.0547,-3.0687,-3.11,-3.1926,-3.2004,-3.2436,-3.3317,-3.4139,-3.4588,-3.4627,-3.5467,-3.5874,-3.5874,-3.5913,-3.5932,-3.5932,-3.5971,-3.5991,-3.5991,-3.5991,-3.5991,-3.5991,-3.5854,-3.4836,-3.3331,-3.3289,-3.2248,-3.0985,-3.2586,-3.317,-3.3414,-3.5172,-3.5762,-3.5494,-3.3821,-3.2175,-3.1079,-3.2531,-3.1889,0.0,0.0,-3.3061,-3.3538,-3.5219,-3.5666,-3.5657,-3.5679,-3.5678,-3.5657,-3.5507,-3.4834,-3.4443,0.0,-3.5114,-3.4792,-3.3922,0.0,-3.377,-3.377,-3.3808,-3.4149,-3.5021,-3.5171,-3.5209,-3.5209,-3.5209,-3.5209,-3.5209,-3.5209,-3.5209,-3.5209,-3.5209,-3.5209,-3.5209,-3.5133,-3.4697,-3.3846,-3.3026,0.0,0.0,0.0,0.0,0.0,0.0,0.0,0.0,0.0,0.0,0.0,0.0,0.0,0.0,0.0,0.0,0.0,0.0,0.0,0.0,0.0,0.0,0.0,0.0,0.0,0.0,0.0,0.0,-2.9138,-3.0303,0.0,-3.0384,-3.084,-3.1295,-3.161,-3.2687,-3.3451,-3.3766,-3.4312,-3.4742,-3.5054,-3.5369,-3.5545,-3.5545,-3.5837,-3.5991,-3.5991,-3.5991,-3.5991,-3.5991,-3.5991,-3.5991,-3.5991,-3.5991,-3.5991,-3.5991,-3.5991,-3.562,-3.5073,-3.5073,-3.47,-3.4206,-3.4768,-3.4978,-3.5056,-3.5669,-3.5903,-3.5805,-3.5178,-3.4555,-3.4146,-3.4675,-3.4434,-3.4101,-3.4678,-3.4861,-3.5061,-3.5643,-3.5799,-3.5791,-3.5765,-3.5756,-3.5873,-3.6306,-3.6168,-3.6173,-3.6934,-3.5667,-3.4389,-3.4087,-3.496,-3.548,-3.4833,-3.5736,-3.6553,-3.6793,-3.6814,-3.6814,-3.6814,-3.6814,-3.6814,-3.6814,-3.6814,-3.6814,-3.6814,-3.6814,-3.6814,-3.6814,-3.6814,-3.6432,-3.5577,-3.5291,-3.4149,0.0,0.0,0.0,0.0,0.0,0.0,0.0,0.0,0.0,0.0,0.0,0.0,0.0,0.0,0.0,0.0,0.0,0.0,0.0,0.0,0.0,0.0,0.0,0.0,0.0,0.0,-3.0833,-2.9995,-3.1461,-3.2293,-3.1695,-3.2449,-3.3099,-3.3392,-3.4488,-3.5135,-3.5135,-3.5681,-3.5991,-3.5991,-3.5991,-3.5991,-3.5991,-3.5991,-3.5991,-3.5991,-3.5991,-3.5991,-3.5991,-3.5991,-3.5991,-3.5991,-3.5991,-3.5991,-3.5991,-3.5991,-3.5991,-3.5991,-3.5991,-3.5991,-3.5991,-3.5916,-3.5912,-3.5935,-3.5919,-3.5929,-3.5899,-3.5903,-3.5905,-3.5892,-3.5845,-3.5838,-3.5896,-3.6153,-3.6242,-3.632,-3.6595,-3.6673,-3.6673,-3.6673,-3.6673,-3.682,-3.7298,-3.7405,-3.7559,-3.8106,-3.6698,-3.5455,-3.5455,-3.6411,-3.6825,-3.5812,-3.6945,-3.7747,-3.733,-3.7521,-3.7693,-3.7693,-3.7693,-3.7693,-3.7693,-3.7427,-3.7389,-3.7674,-3.7408,-3.7389,-3.7693,-3.7158,-3.6606,-3.6071,-3.6071,-3.5331,-3.3889,0.0,0.0,0.0,0.0,0.0,0.0,0.0,0.0,0.0,0.0,0.0,0.0,0.0,0.0,0.0,0.0,0.0,0.0,0.0,0.0,0.0,0.0,0.0,-3.0886,-3.1529,-3.1768,-3.0925,-3.2397,-3.3464,-3.3395,-3.4202,-3.5096,-3.5932,-3.5991,-3.5991,-3.5991,-3.5991,-3.5991,-3.5991,-3.5991,-3.5991,-3.5991,-3.5991,-3.5991,-3.5991,-3.5991,-3.5991,-3.5991,-3.5991,-3.601,-3.603,-3.603,-3.6049,-3.6069,-3.6069,-3.6069,-3.6069,-3.601,-3.5991,-3.5991,-3.5935,-3.5958,-3.603,-3.6069,-3.604,-3.5986,-3.5986,-3.5987,-3.5986,-3.5986,-3.5986,-3.6137,-3.6917,-3.7143,-3.735,-3.8186,-3.841,-3.841,-3.8402,-3.8402,-3.8402,-3.8421,-3.8441,-3.8441,-3.846,-3.8322,-3.8164,-3.8106,-3.8125,-3.7803,-3.6834,-3.7429,0.0,-3.6665,-3.7255,-3.7787,-3.775,-3.7731,-3.7731,-3.7731,-3.6953,-3.6858,-3.7731,-3.6991,-3.6896,-3.775,-3.6207,-3.535,-3.5312,-3.5255,-3.5618,-3.64,0.0,0.0,0.0,0.0,0.0,0.0,0.0,0.0,0.0,0.0,0.0,0.0,0.0,0.0,0.0,0.0,0.0,0.0,0.0,0.0,0.0,0.0,-3.2725,-3.1843,-3.3017,-3.3863,-3.3636,-3.4602,-3.5288,-3.5259,-3.548,-3.574,-3.5971,-3.5991,-3.5991,-3.5991,-3.5991,-3.5991,-3.5991,-3.5991,-3.5991,-3.5991,-3.5991,-3.5991,-3.5991,-3.5991,-3.5991,-3.5991,-3.5991,-3.6345,-3.6931,-3.6931,-3.7301,-3.7887,-3.7887,-3.7887,-3.775,-3.6482,-3.5991,-3.5991,-3.5988,-3.6378,-3.7028,-3.7672,-3.7864,-3.7842,-3.7804,-3.7795,-3.7786,-3.779,-3.7784,-3.7823,-3.8046,-3.8117,-3.815,-3.835,-3.8393,-3.8405,-3.8391,-3.8402,-3.8576,-3.9217,-3.9334,-3.9528,-4.0092,-4.018,-3.9702,-3.8396,-3.8706,-3.8999,-3.8612,-3.938,0.0,-3.948,-3.9561,-3.9418,-3.8788,-3.8628,-3.8555,-3.8555,-3.8365,-3.8613,-3.9546,-3.9356,-3.9337,-3.9584,-3.9127,-3.8592,-3.7962,-3.6722,-3.619,0.0,0.0,0.0,0.0,0.0,0.0,0.0,0.0,0.0,0.0,0.0,0.0,0.0,0.0,0.0,0.0,0.0,0.0,0.0,0.0,0.0,0.0,-3.3594,-3.4303,-3.3815,-3.4615,-3.5243,-3.5232,-3.5681,-3.5991,-3.5991,-3.5991,-3.5991,-3.5991,-3.5991,-3.5991,-3.5991,-3.5991,-3.5991,-3.5991,-3.6345,-3.654,-3.654,-3.6911,-3.7087,-3.7087,-3.7087,-3.7087,-3.7087,-3.7087,-3.7379,0.0,-3.7848,-3.8121,-3.8593,-3.8593,-3.8593,0.0,0.0,0.0,0.0,0.0,-3.7419,-3.7926,-3.8414,-3.8593,-3.859,-3.8541,-3.8537,-3.8534,-3.8541,-3.8541,-3.8614,-3.8956,-3.9048,-3.9121,-3.9416,-3.9487,-3.95,-3.9497,-3.949,-3.9626,-4.0151,-4.0241,-4.0377,-4.0852,-4.0949,0.0,-3.9549,-3.9772,-3.9924,-3.9431,-4.0184,-4.0629,-4.0125,-4.0303,-4.0292,-3.9777,-3.961,-3.9524,-3.9524,-3.9164,0.0,0.0,0.0,-3.9622,-3.9221,-3.9203,0.0,0.0,0.0,-3.7296,-3.802,0.0,0.0,0.0,-3.6306,-3.5774,0.0,0.0,0.0,0.0,0.0,0.0,0.0,0.0,0.0,0.0,0.0,0.0,0.0,0.0,0.0,0.0,-3.538,-3.5991,-3.5991,-3.5991,-3.5991,-3.5991,-3.5991,-3.5991,-3.5991,-3.5991,-3.5991,-3.5991,-3.5991,-3.603,-3.615,0.0,0.0,0.0,0.0,-3.7458,-3.7458,-3.8199,-3.8593,-3.8593,-3.8593,-3.8593,-3.8593,-3.8593,-3.8651,-3.8746,-3.8746,-3.8788,-3.8885,-3.8885,-3.8885,-3.8866,-3.8671,-3.8593,-3.8612,-3.871,-3.8746,-3.8746,-3.8846,0.0,0.0,-3.8885,-3.8885,-3.8885,-3.8885,-3.8885,-3.9036,-3.9739,-3.995,-4.0121,-4.083,-4.1019,-4.1013,-4.0994,-4.0994,-4.0994,-4.0994,-4.0994,-4.0994,-4.0994,-4.0994,-4.1,-4.1011,-4.0943,-4.0616,-3.9708,-4.0277,-4.0486,-3.9598,-4.0158,-4.0577,-4.048,0.0,0.0,-4.0268,-3.9497,-3.939,-4.025,-3.9618,-3.8872,-3.8034,-3.7981,-3.7983,-3.7983,-3.7983,-3.8746,-4.031,-4.031,-4.031,-4.0234,-3.7126,-3.6098,0.0,0.0,0.0,0.0,0.0,0.0,0.0,0.0,0.0,0.0,0.0,0.0,0.0,0.0,0.0,-3.3594,-3.497,-3.5991,-3.5991,-3.5991,-3.5991,-3.5991,-3.5991,-3.5991,-3.5991,-3.5991,-3.5991,-3.5991,-3.5991,-3.6306,-3.7009,-3.7048,-3.7379,-3.8063,-3.8258,-3.8355,-3.8355,-3.8514,-3.8593,-3.8593,0.0,0.0,-3.8593,-3.8593,-3.8941,-3.9566,-3.9566,-3.9976,-4.062,-4.062,-4.062,-4.0483,-3.9139,-3.8593,-3.869,-3.9331,-3.9566,-3.9663,-4.0366,-4.062,-4.062,-4.062,-4.062,-4.062,-4.062,-4.062,0.0,-4.0792,-4.0851,-4.0883,-4.1033,-4.1086,-4.1061,-4.1019,-4.0994,-4.0994,-4.0994,-4.0994,-4.0994,-4.0994,-4.0994,-4.1007,-4.1,-4.0991,-4.0904,-4.0655,-4.0762,-4.0801,-4.0625,-4.0676,-4.0498,-3.9796,-3.9598,-3.9488,-3.9437,-3.9268,-3.948,-4.0267,-4.0154,-3.9982,-3.9809,-3.9792,-3.9812,-3.9795,-3.9795,-3.9948,-4.031,-4.031,-4.031,-4.0291,-3.9604,-3.9394,0.0,0.0,0.0,0.0,0.0,0.0,0.0,0.0,0.0,0.0,0.0,-3.1073,0.0,0.0,-3.3686,-3.4566,-3.5427,-3.5995,-3.5995,-3.5995,-3.5992,-3.5994,-3.5991,-3.5991,-3.5991,-3.5991,-3.6189,-3.6618,-3.6657,-3.7028,-3.7906,-3.7946,-3.8141,-3.8593,-3.9019,-3.9253,-3.9253,-3.9644,-3.9839,-3.9839,-3.9839,-3.9839,-3.9839,-3.9839,-4.0073,-4.0444,-4.0444,-4.0698,-4.1108,-4.1108,-4.1108,-4.101,-4.0171,-3.9839,-3.9897,-4.0307,-4.0444,-4.0503,-4.0952,-4.1108,-4.1108,-4.1108,-4.1108,-4.1108,-4.1108,-4.1108,-4.1108,-4.1108,-4.1108,-4.1108,-4.1097,-4.1094,-4.109,-4.1061,-4.1057,-4.1057,-4.1057,-4.1057,-4.1057,-4.1057,-4.1057,-4.1052,-4.1056,-4.1039,-4.1039,-4.0964,-4.0957,-4.0957,-4.0957,-4.0924,-4.0731,-4.031,-4.017,-4.0089,-4.0056,-4.0022,-4.0153,-4.0477,-4.0466,-4.0441,-4.0396,-4.0379,-4.0326,-4.0309,-4.0309,-4.0291,-4.031,-4.031,-4.031,-4.031,-4.031,-4.031,0.0,0.0,0.0,0.0,0.0,0.0,0.0,0.0,-3.0529,-3.1574,-3.1789,-3.2211,-3.3632,-3.3896,-3.4331,-3.5734,-3.5966,-3.5966,-3.5966,-3.6103,-3.6208,-3.6207,-3.6081,-3.6001,-3.6003,-3.6152,-3.654,-3.7248,-3.746,-3.7929,-3.8795,-3.8836,-3.8897,-3.9053,-3.9756,-4.0123,-4.0132,-4.0779,-4.1094,-4.1094,-4.1094,-4.1094,-4.1094,-4.1091,-4.1108,-4.1108,-4.1108,-4.1108,-4.1108,-4.1108,-4.1108,-4.1108,-4.1108,-4.1108,-4.1108,-4.1108,-4.1108,-4.1108,-4.1108,-4.1108,-4.1108,-4.1108,-4.1108,-4.1108,-4.1108,-4.1108,-4.1108,-4.1108,-4.1108,-4.1108,-4.1108,-4.1108,-4.1108,-4.1108,-4.1108,-4.1108,-4.1108,-4.1108,-4.1108,-4.1108,-4.1108,-4.1104,-4.1105,-4.11,-4.1072,-4.1019,-4.0994,-4.0994,-4.0994,-4.0994,-4.0994,-4.1019,-4.0967,-4.0937,-4.0929,-4.0849,-4.0789,-4.0723,-4.0667,-4.061,-4.0573,-4.0476,-4.0411,-4.0339,-4.0342,-4.0326,-4.031,-4.031,-4.031,-4.0291,-4.0291,-4.0291,-2.9931,-2.9562,-2.9836,-3.0413,-3.0515,-3.1305,0.0,0.0,-3.3334,-3.4995,-3.5337,-3.5399,-3.5581,-3.5623,-3.5659,-3.5798,-3.5818,-3.5818,-3.5818,-3.6497,-3.6985,-3.6969,-3.6403,-3.5995,-3.5995,-3.6694,-3.7192,-3.7281,-3.8014,-3.8819,-3.9628,-3.9664,-3.9992,-4.0716,-4.0834,-4.0918,-4.0971,-4.1062,-4.1105,-4.1105,-4.1105,-4.1105,-4.1105,-4.1097,-4.1108,-4.1108,-4.1108,-4.1108,-4.1108,-4.1108,-4.1108,-4.1108,-4.1108,-4.1108,-4.1108,-4.1108,-4.1108,-4.1108,-4.1108,-4.1108,-4.1108,-4.1108,-4.1108,-4.1108,-4.1108,-4.1108,-4.1108,-4.1108,-4.1108,-4.1108,-4.1108,-4.1108,-4.1108,-4.1108,-4.1108,-4.1108,-4.1108,-4.1108,-4.1108,-4.1108,-4.1108,-4.1108,-4.1108,-4.1104,-4.1074,-4.1,-4.0994,-4.0994,-4.0994,-4.0994,-4.1019,-4.1086,-4.1086,-4.105,-4.0987,-4.0857,-4.0801,-4.0791,-4.0771,-4.077,-4.0779,-4.0642,-4.0549,-4.0482,-4.0425,-4.0398,-4.0398,-4.0398,-4.0362,-4.0289,-4.0289,-4.029,-3.2164,-3.1588,0.0,0.0,-3.2829,-3.3206,-3.473,-3.4513,-3.4353,-3.558,-3.584,-3.5846,-3.5833,-3.5833,-3.5827,0.0,-3.5795,-3.5989,-3.6495,-3.6858,-3.7267,-3.7734,-3.7561,-3.7402,-3.7409,-3.7739,-3.8155,-3.8656,-3.9034,-3.9598,-4.0408,-4.0437,-4.0589,-4.0922,-4.0944,-4.0977,-4.1043,-4.1047,-4.1071,-4.1151,-4.1151,-4.1132,-4.1093,-4.1105,-4.1101,-4.1101,-4.1101,-4.1101,-4.1101,-4.1101,-4.1097,-4.1108,-4.1108,-4.1108,-4.1108,-4.1108,-4.1108,-4.1108,-4.1108,-4.1108,-4.1108,-4.1108,-4.1108,-4.1108,-4.1108,-4.1108,-4.1108,-4.1108,-4.1108,-4.1108,-4.1108,-4.1108,-4.1108,-4.1108,-4.1108,-4.1108,-4.1108,-4.1108,-4.1108,-4.1108,-4.1108,-4.1108,-4.1108,-4.1108,-4.1085,-4.1066,-4.1061,-4.1061,-4.1061,-4.1061,-4.1066,-4.1094,-4.1097,-4.1094,-4.1066,-4.0998,-4.0968,-4.0926,-4.0918,-4.0874,-4.0801,-4.0751,-4.0672,-4.0557,-4.054,-4.0473,-4.0398,-4.0398,-4.0398,-4.0362,-4.0325,-4.0289,-3.254,0.0,0.0,-3.3694,-3.442,-3.4778,-3.4816,-3.4833,-3.5016,-3.5674,-3.5799,-3.5791,-3.5782,-3.5773,-3.5773,-3.5765,-3.5775,-3.6066,-3.6929,-3.725,-3.7715,-3.853,-3.8878,-3.9066,-3.9064,-3.8881,-3.9014,-3.9633,-3.9906,-4.0271,-4.0836,-4.0887,-4.091,-4.0935,-4.0929,-4.0961,-4.1041,-4.1055,-4.1092,-4.1191,-4.1191,-4.1172,-4.1133,-4.1131,-4.1129,-4.1129,-4.1129,-4.1129,-4.1129,-4.111,-4.1107,-4.1121,-4.135,-4.1468,-4.1484,-4.1735,-4.1501,-4.1097,-4.1097,-4.1094,-4.1108,-4.1108,-4.1108,-4.1108,-4.1108,-4.1108,-4.1108,-4.1108,-4.1108,-4.1108,-4.1108,-4.1108,-4.1108,-4.1108,-4.1108,-4.1108,-4.1108,-4.1108,-4.1108,-4.1108,-4.1108,-4.1108,-4.1108,-4.1303,-4.1459,-4.1459,-4.1654,-4.1635,-4.1166,-4.1108,-4.1108,-4.1108,-4.1108,-4.1108,-4.1108,-4.1108,-4.1078,-4.1022,-4.1037,-4.098,-4.0887,-4.0863,-4.0791,-4.0648,-4.063,-4.0689,-4.0795,-4.0795,-4.091,-4.1123,-4.1069,-4.1032,0.0,0.0,-3.1948,-3.2977,-3.4458,-3.5667,-3.566,-3.567,-3.5679,-3.5782,-3.5799,-3.5782,-3.5718,-3.5708,-3.5689,-3.5695,-3.5695,-3.5985,-3.6787,-3.7618,-3.8489,-3.9352,-4.0203,-4.0725,0.0,-4.0081,-3.9633,-3.9611,-4.0383,-4.0855,-4.0816,-4.0865,-4.0919,-4.0989,-4.1009,-4.1067,-4.1195,-4.1191,-4.1191,-4.1191,-4.1191,-4.1191,-4.1191,-4.1191,-4.1191,-4.1191,-4.1191,-4.1191,-4.1191,-4.1133,-4.1094,-4.1172,-4.2028,-4.2357,-4.2454,-4.3303,-4.2544,-4.1107,-4.1107,-4.1101,-4.1108,-4.1108,-4.1108,-4.1108,-4.1108,-4.1108,-4.1108,-4.1108,-4.1108,-4.1108,-4.1108,-4.1108,-4.1108,-4.1108,-4.1108,-4.1108,-4.1108,-4.1108,-4.1108,-4.1108,-4.1108,-4.1108,-4.1108,-4.1791,-4.2357,-4.2357,-4.3079,-4.3001,-4.1322,-4.1108,-4.1108,-4.1108,-4.1108,-4.1108,-4.1108,-4.1108,-4.1108,-4.1108,-4.1108,-4.1108,-4.1085,-4.1022,-4.0933,-4.0801,-4.0734,-4.104,-4.1761,-4.1761,-4.2148,-4.2919,-4.2919,-4.2849,0.0,0.0,-3.2986,-3.4436,-3.5259,-3.5695,-3.5687,-3.5697,-3.5716,-3.5737,-3.5282,-3.4865,-3.4836,-3.4846,-3.4846,-3.4846,-3.5319,-3.6187,-3.758,-3.8025,-3.874,-4.0191,-4.0616,0.0,0.0,0.0,0.0,-4.0402,-4.0662,-4.0818,-4.0796,-4.0866,-4.0919,-4.0938,-4.0985,-4.1053,-4.1132,-4.1131,-4.1153,-4.1191,-4.1191,-4.1191,-4.1191,-4.1191,-4.1191,-4.1191,-4.1191,-4.1504,-4.1992,-4.1973,-4.2305,-4.2851,-4.3144,-4.3259,-4.3294,-4.3596,-4.332,-4.2837,-4.2829,-4.283,-4.2828,-4.2824,-4.2837,-4.2829,-4.2825,-4.2825,-4.2825,-4.2825,-4.2825,-4.2825,-4.2825,-4.2825,-4.2825,-4.2825,-4.2825,-4.2825,-4.2825,-4.2825,-4.2825,-4.2825,-4.2825,-4.2825,-4.2825,-4.306,-4.3255,-4.3255,-4.3509,-4.3489,-4.2903,-4.2825,-4.2825,-4.2825,-4.2825,-4.2825,-4.2825,-4.2825,-4.2825,-4.2825,-4.2825,-4.2825,-4.2825,-4.2795,-4.2744,-4.2654,-4.2539,-4.2555,-4.2734,-4.2688,-4.2816,-4.3069,-4.3015,-4.2961,0.0,-3.2897,-3.3415,-3.5164,-3.5631,-3.5654,-3.5654,-3.5684,-3.5704,-3.5704,-3.4778,-3.4071,-3.4352,-3.4158,-3.4071,-3.4399,-3.5137,-3.6297,-3.8001,-3.8252,-3.886,-4.0609,-4.079,0.0,0.0,0.0,0.0,-4.079,-4.079,-4.079,-4.079,-4.0829,-4.0885,-4.0904,-4.0932,-4.1011,-4.1104,-4.1104,-4.1139,-4.1191,-4.1191,-4.1191,-4.1211,-4.1504,-4.1621,-4.1641,-4.1953,-4.2383,-4.2851,-4.2851,-4.3183,-4.373,-4.4043,-4.416,-4.4196,-4.4505,-4.464,-4.4544,-4.3925,-4.3691,-4.3691,-4.3709,-4.3706,-4.37,-4.3696,-4.371,-4.3704,-4.3704,-4.3704,-4.3704,-4.3704,-4.3704,-4.3704,-4.3704,-4.3704,-4.3704,-4.3704,-4.3704,-4.3704,-4.3704,-4.3704,-4.3704,-4.3704,-4.3957,-4.427,-4.4582,-4.4621,-4.4406,-4.3782,-4.3704,-4.3704,-4.3704,-4.3704,-4.3704,-4.3704,-4.3704,-4.3704,-4.3704,-4.3704,-4.3704,-4.3704,-4.3704,-4.3665,-4.3611,-4.3514,-4.3559,-4.3742,-4.3641,-4.3759,-4.4068,-4.3968,-4.3899,-3.2316,-3.2894,-3.3371,-3.5142,-3.5596,-3.5601,-3.5601,-3.5643,-3.5665,-3.5588,-3.4274,-3.3344,0.0,0.0,-3.3421,-3.429,-3.5175,-3.6338,-3.8073,-3.8325,-3.8963,0.0,0.0,0.0,0.0,0.0,0.0,-4.079,0.0,-4.079,-4.079,-4.079,-4.0834,-4.0904,-4.0904,-4.0961,-4.1092,-4.1093,-4.1132,-4.1191,-4.1191,-4.121,-4.1289,-4.2051,-4.2422,-4.2519,-4.334,-4.373,-4.3769,-4.3769,-4.3789,-4.3926,-4.4746,-4.5078,-4.5176,-4.5996,-4.6308,-4.6055,-4.4414,-4.3828,-4.3828,-4.3828,-4.3828,-4.3828,-4.3824,-4.3835,-4.3821,-4.3837,-4.384,-4.3821,-4.3821,-4.3821,-4.3821,-4.3821,-4.3821,-4.3821,-4.3821,-4.3821,-4.3821,-4.3821,-4.3821,-4.3821,-4.3821,-4.4524,-4.5343,-4.6183,-4.63,-4.5695,-4.4055,-4.3821,-4.3821,-4.3821,-4.3821,-4.3821,-4.3821,-4.3821,-4.3821,-4.3821,-4.3821,-4.3821,-4.3821,-4.3821,-4.3806,-4.3734,-4.3728,-4.4082,-4.4773,-4.4652,-4.5001,-4.5794,-4.5668,-4.5566,-3.3118,-3.4087,-3.4931,-3.5419,-3.556,-3.5596,-3.5601,-3.5612,-3.5287,-3.4081,-3.2975,-3.2105,0.0,0.0,0.0,-3.3389,-3.5263,0.0,-3.8067,-3.8783,0.0,0.0,0.0,-4.079,-4.079,-4.079,0.0,0.0,-4.079,-4.079,-4.079,-4.0848,-4.0873,-4.0901,-4.0959,-4.0992,-4.1033,-4.1033,-4.1037,-4.1057,-4.1057,-4.1364,-4.1949,-4.2201,-4.2676,-4.3301,-4.3574,-4.4062,-4.4668,-4.4668,-4.5058,-4.5664,-4.5879,-4.5976,-4.5996,-4.6211,-4.6308,-4.623,-4.5781,-4.5644,-4.5644,-4.5644,-4.5644,-4.5644,-4.5644,-4.5643,-4.5641,-4.5643,-4.5636,-4.5636,-4.5636,-4.5636,-4.5636,-4.5636,-4.5636,-4.5636,-4.5636,-4.5636,-4.5636,-4.5636,-4.5636,-4.5636,-4.5636,-4.5812,-4.6046,-4.6261,-4.63,-4.6144,-4.5695,-4.5636,-4.5636,-4.5636,-4.5636,-4.5636,-4.5636,-4.5636,-4.5636,-4.5636,-4.5636,-4.5636,-4.5636,-4.5636,-4.5633,-4.5601,-4.5501,-4.5565,-4.5737,-4.5609,-4.5662,-4.5875,-4.5794,-4.5708,-3.4067,-3.4805,-3.5388,-3.5482,-3.5463,-3.5251,-3.4608,-3.4488,-3.4028,-3.2396,-3.1072,0.0,0.0,0.0,0.0,0.0,0.0,0.0,-3.8117,-3.8969,-3.982,0.0,-4.079,0.0,-4.079,-4.079,-4.0945,0.0,-4.1003,-4.079,-4.079,-4.0829,-4.1023,-4.1371,-4.1409,-4.1461,-4.148,-4.1159,-4.1003,-4.1003,-4.1364,-4.1762,-4.2228,-4.3038,-4.3651,-4.4159,0.0,-4.5078,-4.5527,-4.5566,-4.5859,-4.6308,-4.6308,-4.6308,-4.6308,-4.6308,-4.6308,-4.6308,-4.6308,-4.6308,-4.6308,-4.6308,-4.6308,-4.6308,-4.6308,-4.6308,-4.6308,-4.6303,-4.6295,-4.629,-4.6303,-4.63,-4.63,-4.63,-4.63,-4.63,-4.63,-4.63,-4.63,-4.63,-4.63,-4.63,-4.63,-4.63,-4.63,-4.63,-4.63,-4.63,-4.63,-4.63,-4.63,-4.63,-4.63,-4.63,-4.63,-4.63,-4.63,-4.63,-4.63,-4.63,-4.63,-4.63,-4.63,-4.63,-4.6236,-4.6181,-4.6181,-4.6049,-4.5987,-4.5987,-4.5894,-4.5835,-3.4897,-3.5157,-3.5209,-3.5388,-3.5285,-3.4776,-3.3301,-3.3014,-3.2508,-3.0655,0.0,0.0,-2.8941,0.0,-3.0851,-3.1829,0.0,-3.7307,-3.8179,-3.909,-3.996,-4.0706,-4.079,-4.079,-4.079,-4.0887,-4.1255,-4.1951,-4.1448,-4.1119,-4.1119,-4.1119,-4.1448,-4.2144,-4.2164,-4.2196,-4.2267,-4.1519,-4.119,-4.1325,-4.1899,-4.2292,-4.2563,-4.4084,-4.4851,-4.5017,-4.5828,0.0,-4.619,-4.6248,-4.6288,-4.6289,-4.6289,-4.6289,-4.6308,-4.6308,-4.6308,-4.6308,-4.6308,-4.6308,-4.6308,-4.6308,-4.6308,-4.6308,-4.6308,-4.6308,-4.6308,-4.6308,-4.6307,-4.6301,-4.629,-4.6306,-4.6303,-4.63,-4.63,-4.63,-4.63,-4.63,-4.63,-4.63,-4.63,-4.63,-4.63,-4.63,-4.63,-4.63,-4.63,-4.63,-4.63,-4.63,-4.63,-4.63,-4.63,-4.63,-4.63,-4.63,-4.63,-4.63,-4.63,-4.63,-4.63,-4.63,-4.63,-4.63,-4.63,-4.63,-4.63,-4.6181,-4.6131,-4.6112,-4.5987,-4.592,-3.487,-3.4964,-3.4964,-3.5001,-3.4963,-3.4561,-3.3087,-3.276,0.0,0.0,0.0,-2.7932,-2.7432,-2.8592,0.0,-3.1662,0.0,0.0,0.0,0.0,-4.0629,0.0,0.0,0.0,0.0,0.0,0.0,0.0,0.0,-4.2879,-4.2879,-4.2879,-4.2937,-4.3073,-4.3073,-4.3073,-4.3092,-4.2241,-4.2183,-4.2899,-4.2318,-4.2802,-4.42,-4.4543,-4.5111,-4.5803,-4.6026,0.0,-4.6117,-4.6137,-4.6163,-4.6211,-4.6211,-4.625,-4.6308,-4.6308,-4.6308,-4.6308,-4.6308,-4.6308,-4.6308,-4.6308,-4.6308,-4.6308,-4.6308,-4.6308,-4.6308,-4.6308,-4.6308,-4.6308,-4.6307,-4.6305,-4.6297,-4.6303,-4.63,-4.63,-4.63,-4.63,-4.63,-4.63,-4.63,-4.63,-4.63,-4.63,-4.63,-4.63,-4.63,-4.63,-4.63,-4.63,-4.63,-4.63,-4.63,-4.63,-4.63,-4.63,-4.63,-4.63,-4.63,-4.63,-4.63,-4.63,-4.63,-4.63,-4.63,-4.63,-4.63,-4.6273,-4.6269,-4.6269,-4.6131,-4.6057,-3.471,-3.4751,-3.4771,-3.487,-3.4831,-3.4169,-3.1904,0.0,0.0,0.0,0.0,-2.6675,-2.629,0.0,0.0,0.0,0.0,0.0,0.0,0.0,0.0,0.0,0.0,0.0,0.0,0.0,0.0,0.0,0.0,-4.3788,-4.3324,-4.373,-4.3982,-4.3982,-4.3982,-4.3982,-4.3982,-4.3111,-4.2899,-4.3305,-4.3343,-4.3788,-4.462,-4.5065,-4.5504,-4.5896,-4.6007,0.0,-4.6055,-4.6094,-4.6114,-4.6157,-4.6143,-4.616,-4.6206,-4.6248,-4.625,-4.625,-4.6289,-4.6308,-4.6308,-4.6308,-4.6308,-4.6308,-4.6308,-4.6308,-4.6308,-4.6308,-4.6308,-4.6308,-4.6308,-4.6308,-4.6305,-4.6306,-4.63,-4.63,-4.63,-4.63,-4.63,-4.63,-4.63,-4.63,-4.63,-4.63,-4.63,-4.63,-4.63,-4.63,-4.63,-4.63,-4.63,-4.63,-4.63,-4.63,-4.63,-4.63,-4.63,-4.63,-4.63,-4.63,-4.63,-4.63,-4.63,-4.63,-4.63,-4.63,-4.63,-4.63,-4.63,-4.63,-4.6221,-4.6211,-3.4545,-3.4561,-3.4561,-3.4711,-3.4628,-3.378,-3.0966,-3.0228,0.0,0.0,0.0,-2.5607,-2.5599,0.0,0.0,0.0,0.0,0.0,0.0,0.0,0.0,0.0,0.0,0.0,0.0,0.0,0.0,0.0,0.0,0.0,-4.3866,-4.4485,-4.4871,-4.4871,-4.4871,-4.4871,-4.4871,-4.402,-4.3672,-4.3846,-4.4369,-4.4697,-4.4891,-4.551,-4.58,-4.58,-4.591,0.0,0.0,-4.6007,-4.6046,-4.6079,-4.6085,-4.6083,-4.6099,-4.6167,-4.6178,-4.6186,-4.6245,-4.6268,-4.6289,-4.6289,-4.6289,-4.6308,-4.6308,-4.6308,-4.6308,-4.6308,-4.6308,-4.6308,-4.6308,-4.6308,-4.6308,-4.6297,-4.6309,-4.6306,-4.63,-4.63,-4.63,-4.63,-4.63,-4.63,-4.63,-4.63,-4.63,-4.63,-4.63,-4.63,-4.63,-4.63,-4.63,-4.63,-4.63,-4.63,-4.63,-4.63,-4.63,-4.63,-4.63,-4.63,-4.63,-4.63,-4.63,-4.63,-4.63,-4.63,-4.63,-4.63,-4.63,-4.63,-4.63,-4.63,-3.4352,-3.4409,-3.4245,-3.4269,-3.4245,-3.3627,-3.1279,0.0,0.0,0.0,-2.5983,-2.5607,-2.5599,-2.6437,0.0,0.0,0.0,0.0,0.0,0.0,0.0,0.0,0.0,0.0,0.0,0.0,0.0,0.0,0.0,0.0,-4.5568,-4.5645,-4.5684,-4.5684,-4.5684,-4.5684,-4.5684,-4.4891,-4.4852,-4.5548,-4.491,-4.4987,-4.5684,-4.5761,-4.58,-4.58,-4.58,0.0,0.0,-4.5819,-4.5896,-4.6007,-4.6015,-4.6048,-4.6106,-4.6113,-4.6105,-4.6118,-4.6118,-4.6163,-4.6211,-4.6211,-4.625,-4.6308,-4.6308,-4.6308,-4.6308,-4.6308,-4.6308,-4.6308,-4.6308,-4.6308,-4.6308,-4.6308,-4.6306,-4.6297,-4.6303,-4.63,-4.63,-4.63,-4.63,-4.63,-4.63,-4.63,-4.63,-4.63,-4.63,-4.63,-4.63,-4.63,-4.63,-4.63,-4.63,-4.63,-4.63,-4.63,-4.63,-4.63,-4.63,-4.63,-4.63,-4.63,-4.63,-4.63,-4.63,-4.63,-4.63,-4.63,-4.63,-4.63,-4.63,-4.63,-3.4116,-3.4269,-3.4197,-3.4197,-3.3868,-3.3045,-3.122,0.0,0.0,-2.6841,-2.5916,-2.5466,-2.5568,-2.6301,-2.7284,0.0,0.0,0.0,0.0,0.0,0.0,0.0,0.0,0.0,0.0,0.0,0.0,0.0,0.0,0.0,-4.58,-4.58,-4.58,-4.58,-4.58,-4.58,-4.58,-4.5471,-4.5471,-4.58,-4.5471,-4.549,-4.58,-4.58,-4.58,-4.58,-4.58,0.0,0.0,-4.58,-4.5819,-4.5877,-4.5877,-4.5896,-4.593,-4.6007,-4.6035,-4.6042,-4.608,-4.6124,-4.6146,-4.6133,-4.6152,-4.6199,-4.6287,-4.6308,-4.6308,-4.6308,-4.6308,-4.6308,-4.6308,-4.6308,-4.6308,-4.6308,-4.6308,-4.6307,-4.6305,-4.6297,-4.6309,-4.6303,-4.63,-4.63,-4.63,-4.63,-4.63,-4.63,-4.63,-4.63,-4.63,-4.63,-4.63,-4.63,-4.63,-4.63,-4.63,-4.63,-4.63,-4.63,-4.63,-4.63,-4.63,-4.63,-4.63,-4.63,-4.63,-4.63,-4.63,-4.63,-4.63,-4.63,-4.63,-4.63,-3.3664,-3.4035,-3.4197,-3.4197,-3.3626,-3.2728,0.0,0.0,0.0,-2.7332,-2.6502,-2.6043,-2.6226,-2.676,-2.7466,0.0,0.0,0.0,0.0,0.0,0.0,0.0,0.0,0.0,0.0,0.0,0.0,0.0,0.0,0.0,-4.58,-4.58,-4.58,-4.58,-4.58,-4.58,-4.58,-4.58,-4.58,-4.58,-4.58,-4.58,-4.58,-4.58,-4.58,-4.58,-4.58,0.0,0.0,-4.58,-4.58,-4.58,-4.58,-4.58,-4.58,-4.591,-4.5949,-4.5949,-4.5988,-4.6046,-4.6073,-4.6075,-4.6084,-4.613,-4.6211,-4.6248,-4.6243,-4.6269,-4.6289,-4.6308,-4.6308,-4.6308,-4.6308,-4.6308,-4.6308,-4.6308,-4.6308,-4.6307,-4.63,-4.6303,-4.6303,-4.6306,-4.63,-4.63,-4.63,-4.63,-4.63,-4.63,-4.63,-4.63,-4.63,-4.63,-4.63,-4.63,-4.63,-4.63,-4.63,-4.63,-4.63,-4.63,-4.63,-4.63,-4.63,-4.63,-4.63,-4.63,-4.63,-4.63,-4.63,-4.63,-4.63,-4.63,-3.2892,-3.365,-3.4197,-3.4197,-3.3603,-3.2785,0.0,0.0,0.0,-2.8636,-2.7994,-2.7623,-2.775,-2.7776,-2.8107,-2.9126,-2.9986,0.0,0.0,0.0,0.0,0.0,0.0,0.0,0.0,0.0,0.0,0.0,0.0,0.0,-4.58,-4.58,-4.58,-4.58,-4.58,-4.58,-4.58,-4.58,-4.58,-4.58,-4.58,-4.58,-4.58,-4.58,-4.58,0.0,0.0,0.0,0.0,-4.58,-4.58,-4.58,-4.58,-4.58,-4.58,-4.58,-4.58,-4.58,-4.58,-4.5877,-4.6007,-4.6007,-4.6046,-4.6104,-4.6104,-4.6094,-4.6111,-4.6187,-4.625,-4.6308,-4.6308,-4.6308,-4.6308,-4.6308,-4.6308,-4.6308,-4.6308,-4.6308,-4.6307,-4.6306,-4.6293,-4.6297,-4.6303,-4.63,-4.63,-4.63,-4.63,-4.63,-4.63,-4.63,-4.63,-4.63,-4.63,-4.63,-4.63,-4.63,-4.63,-4.63,-4.63,-4.63,-4.63,-4.63,-4.63,-4.63,-4.63,-4.63,-4.63,-4.63,-4.63,-4.63,-4.63,-4.63,-3.1392,-3.2039,-3.2478,-3.1883,-3.1567,-3.1343,-3.1061,0.0,0.0,-2.8459,-2.7919,-2.7502,-2.763,-2.7745,-2.8096,-2.9003,-2.9458,0.0,0.0,0.0,0.0,0.0,0.0,0.0,0.0,0.0,0.0,0.0,0.0,0.0,-4.58,-4.58,-4.58,-4.58,-4.58,-4.58,-4.58,-4.58,-4.58,-4.58,-4.58,-4.58,-4.58,-4.58,-4.58,0.0,0.0,0.0,0.0,-4.58,-4.58,-4.58,-4.58,-4.58,-4.58,-4.58,-4.58,-4.58,-4.58,-4.5819,-4.5858,-4.5858,-4.5877,-4.5877,-4.5877,-4.5984,-4.6102,-4.6125,-4.6158,-4.6158,-4.6158,-4.6198,-4.623,-4.623,-4.6269,-4.6308,-4.6308,-4.6308,-4.6308,-4.6307,-4.6303,-4.6303,-4.6306,-4.63,-4.6309,-4.6303,-4.63,-4.63,-4.63,-4.63,-4.63,-4.63,-4.63,-4.63,-4.63,-4.63,-4.63,-4.63,-4.63,-4.63,-4.63,-4.63,-4.63,-4.63,-4.63,-4.63,-4.63,-4.63,-4.63,-4.63,-4.63,-4.63,0.0,-3.1318,-3.1756,-3.1216,-3.0863,0.0,0.0,0.0,0.0,0.0,0.0,-2.8301,-2.8398,-2.8523,-2.8785,-2.9378,0.0,0.0,0.0,0.0,0.0,0.0,0.0,0.0,0.0,0.0,0.0,0.0,0.0,0.0,-4.58,-4.58,-4.58,-4.58,-4.58,-4.58,-4.58,-4.58,-4.58,-4.58,-4.58,-4.58,-4.58,-4.58,-4.58,0.0,0.0,0.0,0.0,-4.58,-4.58,-4.58,-4.58,-4.58,-4.58,-4.58,-4.58,-4.58,-4.58,-4.58,-4.58,-4.58,-4.58,-4.58,-4.58,-4.593,-4.6054,-4.6065,-4.6076,-4.6095,-4.6095,-4.6123,-4.6158,-4.615,-4.6207,-4.6269,-4.6269,-4.6289,-4.6308,-4.6308,-4.6307,-4.6307,-4.6308,-4.6307,-4.63,-4.6303,-4.63,-4.63,-4.63,-4.63,-4.63,-4.63,-4.63,-4.63,-4.63,-4.63,-4.63,-4.63,-4.63,-4.63,-4.63,-4.63,-4.63,-4.63,-4.63,-4.63,-4.63,-4.63,-4.63,-4.63,-4.63,-4.63,0.0,0.0,0.0,0.0,0.0,0.0,0.0,0.0,0.0,0.0,0.0,0.0,0.0,0.0,-2.9953,-3.0066,0.0,0.0,0.0,0.0,0.0,0.0,0.0,0.0,0.0,0.0,0.0,0.0,0.0,0.0,-4.5766,-4.5786,-4.58,-4.58,-4.58,-4.58,-4.58,-4.58,-4.58,-4.58,-4.58,-4.58,-4.58,-4.58,-4.58,0.0,0.0,0.0,0.0,-4.58,-4.58,-4.58,-4.58,-4.58,-4.58,-4.58,-4.58,-4.58,-4.58,-4.58,-4.58,-4.58,-4.58,-4.58,-4.58,-4.5877,-4.5988,-4.5988,-4.6027,-4.6085,-4.6085,-4.6085,-4.6093,-4.6083,-4.6132,-4.619,-4.619,-4.625,-4.6289,-4.6289,-4.6308,-4.6308,-4.6308,-4.6308,-4.6307,-4.6309,-4.6303,-4.63,-4.63,-4.63,-4.63,-4.63,-4.63,-4.63,-4.63,-4.63,-4.63,-4.63,-4.63,-4.63,-4.63,-4.63,-4.63,-4.63,-4.63,-4.63,-4.63,-4.63,-4.63,-4.63,-4.63,-4.63,-2.792,0.0,-2.9999,0.0,0.0,0.0,0.0,0.0,0.0,0.0,0.0,0.0,0.0,0.0,0.0,0.0,0.0,0.0,0.0,0.0,0.0,0.0,0.0,0.0,0.0,0.0,0.0,0.0,0.0,0.0,-4.5493,-4.5596,-4.5645,-4.5645,-4.5757,-4.58,-4.58,-4.58,-4.58,-4.58,-4.58,-4.58,-4.58,-4.58,-4.58,0.0,0.0,0.0,-4.58,-4.58,-4.58,-4.58,-4.58,-4.58,-4.58,-4.58,-4.58,-4.58,-4.58,-4.58,-4.58,-4.58,-4.58,-4.58,-4.58,-4.5819,-4.5838,-4.5838,-4.5858,-4.5858,-4.5858,-4.5949,-4.6021,-4.6028,-4.6069,-4.6115,-4.6125,-4.6178,-4.6211,-4.6211,-4.6269,-4.6308,-4.6308,-4.6308,-4.6308,-4.6307,-4.6295,-4.6303,-4.6293,-4.6306,-4.63,-4.63,-4.63,-4.63,-4.63,-4.63,-4.63,-4.63,-4.63,-4.63,-4.63,-4.63,-4.63,-4.63,-4.63,-4.63,-4.63,-4.63,-4.63,-4.63,-4.63,-4.63,-2.7133,-2.8352,-2.942,-2.8596,-2.8952,-2.9492,0.0,0.0,0.0,0.0,0.0,0.0,0.0,0.0,0.0,0.0,0.0,0.0,0.0,0.0,0.0,0.0,0.0,0.0,0.0,0.0,0.0,0.0,0.0,0.0,-4.54,-4.5456,-4.551,-4.551,-4.558,-4.5677,-4.58,-4.58,-4.58,-4.58,-4.58,-4.58,-4.58,-4.58,-4.58,0.0,0.0,0.0,-4.58,-4.58,-4.58,-4.58,-4.58,-4.58,-4.58,-4.58,-4.58,-4.58,-4.58,-4.58,-4.58,-4.58,-4.58,-4.58,-4.58,-4.58,-4.58,-4.58,-4.58,-4.58,-4.58,-4.5838,-4.591,-4.591,-4.5988,-4.6048,-4.6044,-4.6119,-4.6156,-4.6144,-4.6186,-4.6206,-4.6206,-4.6226,-4.6249,-4.6258,-4.6289,-4.63,-4.63,-4.6309,-4.63,-4.63,-4.63,-4.63,-4.63,-4.63,-4.63,-4.63,-4.63,-4.63,-4.63,-4.63,-4.63,-4.63,-4.63,-4.63,-4.63,-4.63,-4.63,-4.63,-4.63,-4.63,-2.6965,-2.8334,-2.957,-2.8615,-2.897,-2.9512,0.0,0.0,0.0,0.0,0.0,0.0,0.0,0.0,0.0,0.0,0.0,0.0,0.0,0.0,0.0,0.0,0.0,0.0,0.0,0.0,0.0,0.0,0.0,0.0,-4.5322,-4.5361,-4.5361,-4.5361,-4.54,-4.551,-4.5737,-4.5737,-4.5737,-4.5737,-4.5752,-4.5786,-4.5786,-4.58,-4.58,-4.58,0.0,0.0,-4.58,-4.58,-4.58,-4.58,-4.58,-4.58,-4.58,-4.58,-4.58,-4.58,-4.58,-4.58,-4.58,-4.58,-4.58,-4.58,-4.58,-4.58,-4.58,-4.58,-4.58,-4.58,-4.58,-4.58,-4.58,-4.58,-4.5877,-4.5969,-4.5969,-4.6027,-4.6074,-4.6074,-4.608,-4.6099,-4.6099,-4.6158,-4.6173,-4.6192,-4.6237,-4.6289,-4.6269,-4.6282,-4.6309,-4.6293,-4.629,-4.6303,-4.63,-4.63,-4.63,-4.63,-4.63,-4.63,-4.63,-4.63,-4.63,-4.63,-4.63,-4.63,-4.63,-4.63,-4.63,-4.63,-4.63,-4.63,-2.6324,-2.8333,-3.0263,-2.8764,-2.9045,-2.9664,0.0,0.0,0.0,0.0,0.0,0.0,0.0,0.0,0.0,0.0,0.0,0.0,0.0,0.0,0.0,0.0,0.0,0.0,0.0,0.0,0.0,0.0,0.0,0.0,-4.4991,-4.5129,-4.5235,-4.5235,-4.5341,-4.5419,-4.5456,-4.5456,-4.5456,-4.5456,-4.558,-4.5629,-4.5629,-4.5737,-4.58,-4.58,0.0,-4.58,-4.58,-4.58,-4.58,-4.58,-4.58,-4.58,-4.58,-4.58,-4.58,-4.58,-4.58,-4.58,-4.58,-4.58,-4.58,-4.58,-4.58,-4.58,-4.58,-4.58,-4.58,-4.58,-4.58,-4.58,-4.58,-4.58,-4.5819,-4.5819,-4.5819,-4.593,-4.6021,-4.6022,-4.6074,-4.6113,-4.6113,-4.6099,-4.6133,-4.6111,-4.6173,-4.6186,-4.6144,-4.6237,-4.6289,-4.6226,-4.6268,-4.6295,-4.6303,-4.63,-4.63,-4.63,-4.63,-4.63,-4.63,-4.63,-4.63,-4.63,-4.63,-4.63,-4.63,-4.63,-4.63,-4.63,-4.63,-4.63,-2.6176,-2.7695,-2.942,-2.912,-3.0001,-3.0935,0.0,0.0,0.0,0.0,0.0,0.0,0.0,0.0,0.0,0.0,0.0,0.0,0.0,0.0,0.0,0.0,0.0,0.0,0.0,0.0,0.0,0.0,0.0,0.0,-4.4895,-4.501,-4.5057,-4.5057,-4.5087,-4.5132,-4.5132,-4.5132,-4.5239,-4.54,-4.5456,-4.5493,-4.5493,-4.5563,-4.558,-4.5596,0.0,-4.5692,-4.5692,-4.5786,-4.58,-4.58,-4.58,-4.58,-4.58,-4.58,-4.58,-4.58,-4.58,-4.58,-4.58,-4.58,-4.58,-4.58,-4.58,-4.58,-4.58,-4.58,-4.58,-4.58,-4.58,-4.58,-4.58,-4.58,-4.58,-4.58,-4.58,-4.5838,-4.5877,-4.5877,-4.593,-4.5949,-4.5949,-4.6007,-4.6048,-4.6053,-4.6104,-4.6123,-4.6103,-4.6162,-4.6183,-4.6153,-4.6171,-4.6183,-4.6192,-4.6184,-4.6211,-4.6303,-4.63,-4.63,-4.63,-4.63,-4.63,-4.63,-4.63,-4.63,-4.63,-4.63,-4.63,-4.63,-4.63,-4.63,-2.6609,-2.7696,-2.912,0.0,0.0,0.0,0.0,0.0,0.0,0.0,0.0,0.0,0.0,0.0,0.0,0.0,0.0,0.0,0.0,0.0,0.0,0.0,0.0,0.0,0.0,0.0,0.0,0.0,0.0,0.0,-4.4895,-4.487,-4.487,-4.4895,-4.4821,-4.4821,-4.4895,-4.487,-4.4995,-4.5282,-4.5341,-4.5341,-4.5341,-4.5381,-4.54,-4.5419,-4.551,-4.5545,-4.5563,-4.5661,-4.5708,-4.5708,-4.5708,-4.5723,-4.5771,-4.58,-4.58,-4.58,-4.58,-4.58,-4.58,-4.58,-4.58,-4.58,-4.58,-4.58,-4.58,-4.58,-4.58,-4.58,-4.58,-4.58,-4.58,-4.58,-4.58,-4.58,-4.58,-4.58,-4.58,-4.58,-4.58,-4.58,-4.58,-4.5877,-4.5949,-4.5949,-4.6027,-4.6067,-4.6026,-4.6077,-4.6087,-4.6084,-4.6095,-4.6095,-4.6091,-4.6105,-4.614,-4.6247,-4.6261,-4.6278,-4.6278,-4.6278,-4.6276,-4.6309,-4.6276,-4.6273,-4.63,-4.6273,-4.6273,-4.63,-4.6306,-4.6306,-2.8032,-2.9401,-3.0636,-3.0692,0.0,0.0,0.0,0.0,0.0,0.0,0.0,0.0,0.0,0.0,0.0,0.0,0.0,0.0,0.0,0.0,0.0,0.0,0.0,0.0,0.0,0.0,0.0,0.0,0.0,0.0,-4.4895,-4.477,-4.477,-4.4914,-4.4659,-4.4659,-4.4895,-4.4789,-4.4796,-4.4943,-4.5125,-4.5213,-4.5213,-4.5341,-4.54,-4.54,-4.5419,-4.54,-4.5419,-4.5419,-4.5438,-4.5438,-4.5438,-4.551,-4.5629,-4.5752,-4.58,-4.58,-4.58,-4.58,-4.58,-4.58,-4.58,-4.58,-4.58,-4.58,-4.58,-4.58,-4.58,-4.58,-4.58,-4.58,-4.58,-4.58,-4.58,-4.58,-4.58,-4.58,-4.58,-4.58,-4.58,-4.58,-4.58,-4.58,-4.58,-4.58,-4.593,-4.5949,-4.5827,-4.5982,-4.6085,-4.6015,-4.6073,-4.6092,-4.6102,-4.6099,-4.6098,-4.6099,-4.6175,-4.6207,-4.6207,-4.6207,-4.6249,-4.6306,-4.6249,-4.623,-4.63,-4.623,-4.623,-4.63,-4.6301,-4.63,-2.8163,-2.9214,-3.0168,-3.0673,0.0,0.0,0.0,0.0,0.0,0.0,0.0,0.0,0.0,0.0,0.0,0.0,0.0,0.0,0.0,0.0,0.0,0.0,0.0,0.0,0.0,0.0,0.0,0.0,0.0,0.0,0.0,-4.4605,-4.4605,-4.4659,-4.4551,-4.4578,-4.477,-4.4738,-4.4789,-4.4895,-4.4986,-4.5014,-4.5033,-4.5084,-4.5087,-4.5087,-4.5094,-4.5096,-4.5096,-4.5222,-4.5282,-4.5263,-4.5381,-4.5381,-4.5381,-4.5613,-4.5677,-4.5692,-4.5766,-4.58,-4.58,-4.58,-4.58,-4.58,-4.58,-4.58,-4.58,-4.58,-4.58,-4.58,-4.58,-4.58,-4.58,-4.58,-4.58,-4.58,-4.58,-4.58,-4.58,-4.58,-4.58,-4.58,-4.58,-4.58,-4.58,-4.58,-4.5838,-4.5858,-4.58,-4.5858,-4.5896,-4.5877,-4.5896,-4.5899,-4.591,-4.5944,-4.5988,-4.5979,-4.6092,-4.6136,-4.6136,-4.6147,-4.6158,-4.6184,-4.6184,-4.6208,-4.623,-4.6208,-4.6208,-4.623,-4.6249,-4.6249,-2.8914,-2.9383,-2.985,0.0,0.0,0.0,0.0,0.0,0.0,0.0,0.0,0.0,0.0,0.0,0.0,0.0,0.0,0.0,0.0,0.0,0.0,0.0,0.0,0.0,0.0,0.0,0.0,0.0,0.0,0.0,0.0,-4.4458,-4.4458,-4.4515,-4.4383,-4.444,-4.4632,-4.4632,-4.4685,-4.477,-4.484,-4.4821,-4.4821,-4.4821,-4.4796,-4.477,-4.4783,-4.4764,-4.4789,-4.491,-4.4981,-4.4981,-4.5137,-4.5118,-4.5074,-4.5304,-4.5418,-4.5491,-4.5626,-4.5708,-4.5737,-4.58,-4.58,-4.58,-4.58,-4.58,-4.58,-4.58,-4.58,-4.58,-4.58,-4.58,-4.58,-4.58,-4.58,-4.58,-4.58,-4.58,-4.58,-4.58,-4.58,-4.58,-4.58,-4.58,-4.58,-4.58,-4.58,-4.58,-4.58,-4.58,-4.58,-4.58,-4.58,-4.58,-4.58,-4.5835,-4.588,-4.588,-4.5959,-4.6018,-4.6059,-4.6066,-4.6064,-4.608,-4.6104,-4.616,-4.618,-4.6163,-4.6186,-4.6204,-4.6198,-4.62,-3.0542,-3.0206,0.0,0.0,0.0,0.0,0.0,0.0,0.0,0.0,0.0,0.0,0.0,0.0,0.0,0.0,0.0,0.0,0.0,0.0,0.0,0.0,0.0,0.0,0.0,0.0,0.0,0.0,0.0,0.0,0.0,-4.4373,-4.4373,-4.4487,-4.4158,-4.4158,-4.4487,-4.4515,-4.4515,-4.4515,-4.4632,-4.4712,-4.4712,-4.4712,-4.4632,-4.4515,-4.4515,-4.4515,-4.4515,-4.4515,-4.4515,-4.4496,-4.4636,-4.472,-4.4701,-4.4862,-4.5017,-4.5203,-4.5343,-4.549,-4.5629,-4.5752,-4.58,-4.58,-4.58,-4.58,-4.58,-4.58,-4.58,-4.58,-4.58,-4.58,-4.58,-4.58,-4.58,-4.58,-4.58,-4.58,-4.58,-4.58,-4.58,-4.58,-4.58,-4.58,-4.58,-4.58,-4.58,-4.58,-4.58,-4.58,-4.58,-4.58,-4.58,-4.58,-4.58,-4.58,-4.58,-4.58,-4.58,-4.5867,-4.5997,-4.5997,-4.5998,-4.601,-4.5998,-4.6041,-4.6105,-4.6098,-4.6138,-4.6202,-4.6202,-4.6202,-2.9027,0.0,0.0,0.0,0.0,0.0,0.0,0.0,0.0,0.0,0.0,0.0,0.0,0.0,0.0,0.0,0.0,0.0,0.0,0.0,0.0,0.0,0.0,0.0,0.0,0.0,0.0,0.0,0.0,0.0,0.0,-4.3781,-4.4097,-4.4158,-4.4067,-4.4116,-4.4344,-4.4373,-4.4401,-4.4515,-4.4524,-4.4551,-4.4551,-4.4551,-4.4542,-4.4487,-4.4401,-4.4373,-4.4373,-4.4373,-4.4373,-4.4373,-4.4505,-4.4505,-4.443,-4.4676,-4.48,-4.4872,-4.4998,-4.5227,-4.5472,-4.5507,-4.5658,-4.58,-4.58,-4.58,-4.58,-4.58,-4.58,-4.58,-4.58,-4.58,-4.58,-4.58,-4.58,-4.58,-4.58,-4.58,-4.58,-4.58,-4.58,-4.58,-4.58,-4.58,-4.58,-4.58,-4.58,-4.58,-4.58,-4.58,-4.58,-4.58,-4.58,-4.58,-4.58,-4.58,-4.58,-4.58,-4.58,-4.5827,-4.5867,-4.5898,-4.5933,-4.5936,-4.5977,-4.6008,-4.6033,-4.6027,-4.6036,-4.6068,-4.6123,-4.613,-3.0018,0.0,0.0,0.0,0.0,0.0,0.0,0.0,0.0,0.0,0.0,0.0,0.0,0.0,0.0,0.0,0.0,0.0,0.0,0.0,0.0,0.0,0.0,0.0,0.0,0.0,0.0,0.0,0.0,0.0,0.0,-4.3095,-4.3522,-4.3522,-4.3838,-4.4067,-4.4177,-4.4255,-4.4314,-4.4296,-4.4383,-4.4383,-4.4296,-4.4383,-4.4214,-4.381,-4.3722,-4.3692,-4.3729,-4.4046,-4.4177,-4.4177,-4.4266,-4.4266,-4.4207,-4.4365,-4.4476,-4.4557,-4.4688,-4.4909,-4.5144,-4.5186,-4.5398,-4.5642,-4.5642,-4.5723,-4.58,-4.58,-4.58,-4.58,-4.58,-4.58,-4.58,-4.58,-4.58,-4.58,-4.58,-4.58,-4.58,-4.58,-4.58,-4.58,-4.58,-4.58,-4.58,-4.58,-4.58,-4.58,-4.58,-4.58,-4.58,-4.58,-4.58,-4.58,-4.58,-4.58,-4.58,-4.58,-4.58,-4.58,-4.58,-4.5841,-4.5867,-4.5867,-4.5905,-4.5922,-4.5964,-4.5964,-4.5975,-4.5997,-4.6037,-4.6066,0.0,0.0,0.0,0.0,0.0,0.0,0.0,0.0,0.0,0.0,0.0,0.0,0.0,0.0,0.0,0.0,0.0,0.0,0.0,0.0,0.0,0.0,0.0,0.0,0.0,0.0,0.0,0.0,0.0,0.0,0.0,-4.224,-4.2686,-4.2686,-4.3466,-4.3893,-4.3893,-4.414,-4.4177,-4.4005,-4.4177,-4.4177,-4.4005,-4.4177,-4.3729,-4.2797,-4.2723,-4.2686,-4.2742,-4.3485,-4.3782,-4.3782,-4.3782,-4.3838,-4.3893,-4.3893,-4.4042,-4.4296,-4.4421,-4.4546,-4.4701,-4.4839,-4.5084,-4.5342,-4.538,-4.5574,-4.5766,-4.58,-4.58,-4.58,-4.58,-4.58,-4.58,-4.58,-4.58,-4.58,-4.58,-4.58,-4.58,-4.58,-4.58,-4.58,-4.58,-4.58,-4.58,-4.58,-4.58,-4.58,-4.58,-4.58,-4.58,-4.58,-4.58,-4.58,-4.58,-4.58,-4.58,-4.58,-4.58,-4.58,-4.58,-4.58,-4.58,-4.58,-4.58,-4.5841,-4.5886,-4.5886,-4.591,-4.5986,-4.5986,-4.5997,0.0,0.0,0.0,0.0,0.0,0.0,0.0,0.0,0.0,0.0,0.0,0.0,0.0,0.0,0.0,0.0,0.0,0.0,0.0,0.0,0.0,0.0,0.0,0.0,0.0,0.0,0.0,0.0,0.0,0.0,-4.0661,-4.1423,-4.185,-4.185,-4.263,-4.3058,-4.3058,-4.372,-4.4036,0.0,-4.4036,-4.4036,-4.4005,-4.4036,-4.359,-4.276,-4.2129,-4.185,-4.1869,-4.2036,-4.211,-4.211,-4.211,-4.25,-4.3058,-4.3058,-4.3497,-4.4067,-4.4109,-4.4289,-4.4546,-4.458,-4.4768,-4.5063,-4.5246,-4.5399,-4.5524,-4.5746,-4.5805,-4.58,-4.58,-4.58,-4.58,-4.58,-4.58,-4.58,-4.58,-4.58,-4.58,-4.58,-4.58,-4.58,-4.58,-4.58,-4.58,-4.58,-4.58,-4.58,-4.58,-4.58,-4.58,-4.58,-4.58,-4.58,-4.58,-4.58,-4.58,-4.58,-4.58,-4.58,-4.58,-4.58,-4.58,-4.58,-4.58,-4.5814,-4.5827,-4.5827,-4.5841,-4.5835,-4.5905,-4.591,0.0,0.0,0.0,0.0,0.0,0.0,0.0,0.0,0.0,0.0,0.0,0.0,0.0,0.0,0.0,0.0,0.0,0.0,0.0,0.0,0.0,0.0,0.0,0.0,0.0,0.0,0.0,0.0,0.0,-3.977,-3.977,-4.0568,-4.1033,-4.1033,-4.1813,-4.2222,-4.2222,-4.302,-4.3429,-4.3429,-4.3819,-4.3801,-4.341,-4.302,-4.2612,-4.2184,-4.1367,-4.1033,-4.1051,-4.1441,-4.159,-4.159,-4.159,-4.185,-4.2222,-4.2222,-4.2482,-4.2853,-4.2853,-4.3226,-4.3699,-4.3699,-4.4233,-4.4928,-4.508,-4.5323,-4.556,-4.5715,-4.5781,-4.5791,-4.5791,-4.5786,-4.58,-4.58,-4.58,-4.58,-4.58,-4.58,-4.58,-4.58,-4.58,-4.58,-4.58,-4.58,-4.58,-4.58,-4.58,-4.58,-4.58,-4.58,-4.58,-4.58,-4.58,-4.58,-4.58,-4.58,-4.58,-4.58,-4.58,-4.58,-4.58,-4.58,-4.58,-4.58,-4.58,-4.58,-4.58,-4.58,-4.58,-4.58,-4.5841,-4.5848,0.0,0.0,0.0,0.0,0.0,0.0,0.0,0.0,0.0,0.0,0.0,0.0,0.0,0.0,0.0,0.0,0.0,0.0,0.0,0.0,0.0,0.0,0.0,0.0,0.0,0.0,0.0,0.0,0.0,-3.9101,-3.9101,-3.977,-4.0178,-4.0178,-4.0958,-4.1386,-4.1386,-4.2184,-4.2593,-4.2593,-4.3262,-4.3243,-4.2575,-4.1757,-4.1386,-4.1349,-4.0531,-4.0178,-4.0215,-4.0884,-4.1163,-4.1163,-4.1163,-4.1256,-4.1386,-4.1386,-4.1479,-4.159,-4.159,-4.2036,-4.2593,-4.2593,-4.339,-4.4335,-4.4383,-4.4859,-4.5368,-4.5401,-4.5584,-4.5781,-4.5781,-4.5776,-4.5786,-4.58,-4.58,-4.58,-4.58,-4.58,-4.58,-4.58,-4.58,-4.58,-4.58,-4.58,-4.58,-4.58,-4.58,-4.58,-4.58,-4.58,-4.58,-4.58,-4.58,-4.58,-4.58,-4.58,-4.58,-4.58,-4.58,-4.58,-4.58,-4.58,-4.58,-4.58,-4.58,-4.58,-4.58,-4.58,-4.58,-4.58,-4.58,-4.58,0.0,0.0,0.0,0.0,0.0,0.0,0.0,0.0,0.0,0.0,0.0,0.0,0.0,0.0,0.0,0.0,0.0,0.0,0.0,0.0,0.0,0.0,0.0,0.0,0.0,0.0,0.0,0.0,-3.9101,-3.9101,-3.9101,-3.9212,-3.9268,-3.9268,-4.0104,-4.055,-4.055,-4.1349,-4.1757,-4.1757,-4.1869,-4.185,-4.172,-4.0921,-4.055,-4.0494,-3.964,-3.9268,-3.9287,-3.938,-3.9435,-3.9435,-3.9435,-3.99,-4.055,-4.055,-4.0996,-4.159,-4.159,-4.1664,-4.1757,-4.1757,-4.1872,-4.209,-4.2326,-4.3123,-4.4009,-4.4173,-4.4932,-4.5715,-4.5715,-4.5715,-4.5731,-4.5781,-4.5795,-4.581,-4.58,-4.58,-4.58,-4.58,-4.58,-4.58,-4.58,-4.58,-4.58,-4.58,-4.58,-4.58,-4.58,-4.58,-4.58,-4.58,-4.58,-4.58,-4.58,-4.58,-4.58,-4.58,-4.58,-4.58,-4.58,-4.58,-4.58,-4.58,-4.58,-4.58,-4.58,-4.58,-4.58,-4.58,-4.58,-4.58,0.0,0.0,0.0,0.0,0.0,0.0,0.0,0.0,0.0,0.0,0.0,0.0,0.0,0.0,0.0,0.0,0.0,0.0,0.0,0.0,0.0,0.0,0.0,0.0,0.0,0.0,0.0,0.0,-3.9101,-3.9101,-3.9101,-3.9101,-3.9101,-3.9101,-3.9472,-3.9658,-3.9658,-4.0494,-4.1144,-4.159,-4.159,-4.1349,-4.0921,-4.055,-4.0401,-4.0346,-3.9472,-3.9101,-3.9101,-3.9101,-3.9101,-3.9101,-3.9101,-3.9324,-3.9658,-3.9658,-3.99,-4.0197,-4.0197,-4.0513,-4.0921,-4.0921,-4.1344,-4.194,-4.2506,-4.3114,-4.3798,-4.4473,-4.5074,-4.5493,-4.5671,-4.5703,-4.5715,-4.575,-4.5765,-4.5795,-4.581,-4.5805,-4.58,-4.58,-4.58,-4.58,-4.58,-4.58,-4.58,-4.58,-4.58,-4.58,-4.58,-4.58,-4.58,-4.58,-4.58,-4.58,-4.58,-4.58,-4.58,-4.58,-4.58,-4.58,-4.58,-4.58,-4.58,-4.58,-4.58,-4.58,-4.58,-4.58,-4.58,-4.58,-4.58,-4.58,0.0,0.0,0.0,0.0,0.0,0.0,0.0,0.0,0.0,0.0,0.0,0.0,0.0,0.0,0.0,0.0,0.0,0.0,0.0,0.0,0.0,0.0,0.0,0.0,0.0,0.0,0.0,0.0,-3.9101,-3.9101,-3.9101,-3.9101,-3.9101,-3.9101,-3.9101,-3.9101,-3.9101,-3.9733,-4.0364,-4.0958,-4.0958,-4.0643,-4.0067,-4.0067,-4.0067,-4.003,-3.938,-3.9101,-3.9101,-3.9101,-3.9101,-3.9101,-3.9101,-3.9101,-3.9101,-3.9101,-3.9101,-3.9101,-3.9101,-3.9528,-4.0067,-4.0067,-4.0756,-4.1713,-4.2313,-4.2949,-4.3677,-4.4535,-4.5029,-4.5342,-4.5603,-4.5671,-4.5684,-4.5703,-4.5735,-4.5785,-4.5795,-4.5805,-4.58,-4.58,-4.58,-4.58,-4.58,-4.58,-4.58,-4.58,-4.58,-4.58,-4.58,-4.58,-4.58,-4.58,-4.58,-4.58,-4.58,-4.58,-4.58,-4.58,-4.58,-4.58,-4.58,-4.58,-4.58,-4.58,-4.58,-4.58,-4.58,-4.58,-4.58,-4.58,-4.58,-4.58,0.0,0.0,0.0,0.0,0.0,0.0,0.0,0.0,0.0,0.0,0.0,0.0,0.0,0.0,0.0,0.0,0.0,0.0,0.0,0.0,0.0,0.0,0.0,0.0,0.0,0.0,0.0,0.0,-3.9101,-3.9101,-3.9101,-3.9101,-3.9101,-3.9101,-3.9101,-3.9101,-3.9101,-3.9138,-3.9194,-3.9231,-3.9231,-3.9212,-3.9175,-3.9175,-3.9175,-3.9175,-3.912,-3.9101,-3.9101,-3.9101,-3.9101,-3.9101,-3.9101,-3.9101,-3.9101,-3.9101,-3.9101,-3.9101,-3.9101,-3.912,-3.9175,-3.9175,-3.9779,-4.0486,-4.0523,-4.1791,-4.3288,-4.362,-4.4421,-4.5282,-4.555,-4.5622,-4.5603,-4.5673,-4.5709,-4.5722,-4.5805,-4.58,-4.58,-4.58,-4.58,-4.58,-4.58,-4.58,-4.58,-4.58,-4.58,-4.58,-4.58,-4.58,-4.58,-4.58,-4.58,-4.58,-4.58,-4.58,-4.58,-4.58,-4.58,-4.58,-4.58,-4.58,-4.58,-4.58,-4.58,-4.58,-4.58,-4.58,-4.58,-4.58,-4.58,-4.58,0.0,0.0,0.0,0.0,0.0,0.0,0.0,0.0,0.0,0.0,0.0,0.0,0.0,0.0,0.0,0.0,0.0,0.0,0.0,0.0,0.0,0.0,0.0,0.0,0.0,0.0,0.0,0.0,0.0,-3.9101,-3.9101,-3.9101,-3.9101,-3.9101,-3.9101,-3.9101,-3.9101,-3.9101,-3.9101,-3.9101,-3.9101,-3.9101,-3.9101,-3.9101,-3.9101,-3.9101,-3.9101,-3.9101,-3.9101,-3.9101,-3.9101,-3.9101,-3.9101,-3.9101,-3.9101,-3.9101,-3.9101,-3.9101,-3.9101,-3.9101,-3.9194,-3.9751,-4.0141,-4.0587,-4.1627,-4.2404,-4.309,-4.3882,-4.4398,-4.48,-4.5222,-4.5342,-4.54,-4.564,-4.5693,-4.5726,-4.5781,-4.581,-4.5791,-4.58,-4.58,-4.58,-4.58,-4.58,-4.58,-4.58,-4.58,-4.58,-4.58,-4.58,-4.58,-4.58,-4.58,-4.58,-4.58,-4.58,-4.58,-4.58,-4.58,-4.58,-4.58,-4.58,-4.58,-4.58,-4.58,-4.58,-4.58,-4.58,-4.58,-4.58,-4.58,-4.58,0.0,0.0,0.0,0.0,0.0,0.0,0.0,0.0,0.0,0.0,0.0,0.0,0.0,0.0,0.0,0.0,0.0,0.0,0.0,0.0,0.0,0.0,0.0,0.0,0.0,0.0,0.0,0.0,0.0,0.0,-3.8873,-3.896,-3.9017,-3.9101,-3.9101,-3.9101,-3.9101,-3.9101,-3.9101,-3.9101,-3.9101,-3.9101,-3.9101,-3.9101,-3.9101,-3.9101,-3.9101,-3.9101,-3.9101,-3.9101,-3.9101,-3.9101,-3.9101,-3.9101,-3.9101,-3.9101,-3.9101,-3.9101,-3.9101,-3.9101,-3.9231,-4.0104,-4.0568,-4.1051,-4.2389,-4.2983,-4.336,-4.4168,-4.4383,-4.4493,-4.4943,-4.5074,-4.5118,-4.5342,-4.5476,-4.5549,-4.5618,-4.5735,-4.5795,-4.58,-4.58,-4.58,-4.58,-4.58,-4.58,-4.58,-4.58,-4.58,-4.58,-4.58,-4.58,-4.58,-4.58,-4.58,-4.58,-4.58,-4.58,-4.58,-4.58,-4.58,-4.58,-4.58,-4.58,-4.58,-4.58,-4.58,-4.58,-4.58,-4.58,-4.58,-4.58,-4.58,0.0,0.0,0.0,0.0,0.0,0.0,0.0,0.0,0.0,0.0,0.0,0.0,0.0,0.0,0.0,0.0,0.0,0.0,0.0,0.0,0.0,0.0,0.0,0.0,0.0,0.0,0.0,0.0,-3.8541,-3.8415,-3.8382,-3.8652,-3.8892,-3.9073,-3.9101,-3.9101,-3.9101,-3.9101,-3.9101,-3.9101,-3.9101,-3.9101,-3.9101,-3.9101,-3.9101,-3.9101,-3.9101,-3.9101,-3.9101,-3.9101,-3.9101,-3.9101,-3.9101,-3.9101,-3.9101,-3.9101,-3.9101,-3.9101,-3.9101,-3.9101,-3.925,-4.0141,-4.0958,-4.1739,-4.2575,-4.3373,-4.4048,-4.4318,-4.4402,-4.4438,-4.4726,-4.4776,-4.48,-4.48,-4.5007,-4.5201,-4.5263,-4.5547,-4.5781,-4.58,-4.58,-4.58,-4.58,-4.58,-4.58,-4.58,-4.58,-4.58,-4.58,-4.58,-4.58,-4.58,-4.58,-4.58,-4.58,-4.58,-4.58,-4.58,-4.58,-4.58,-4.58,-4.58,-4.58,-4.58,-4.58,-4.58,-4.58,-4.58,-4.58,-4.58,-4.58,-4.58,-2.7537,0.0,0.0,0.0,0.0,0.0,0.0,0.0,0.0,0.0,0.0,0.0,0.0,0.0,0.0,0.0,0.0,0.0,0.0,0.0,0.0,0.0,0.0,0.0,0.0,0.0,0.0,0.0,-3.8621,-3.8621,-3.8415,-3.8652,-3.8822,-3.8892,-3.9017,-3.9101,-3.9101,-3.9101,-3.9101,-3.9101,-3.9101,-3.9101,-3.9101,-3.9101,-3.9101,-3.9101,-3.9101,-3.9101,-3.9101,-3.9101,-3.9101,-3.9101,-3.9101,-3.9101,-3.9101,-3.9101,-3.9101,-3.9101,-3.9101,-3.9101,-3.9342,-4.0791,-4.1423,-4.185,-4.3243,-4.3819,-4.4036,-4.4109,-4.4091,-4.4162,-4.4438,-4.465,-4.48,-4.48,-4.4868,-4.4938,-4.5007,-4.5077,-4.5284,-4.5731,-4.581,-4.5791,-4.58,-4.58,-4.58,-4.58,-4.58,-4.58,-4.58,-4.58,-4.58,-4.58,-4.58,-4.58,-4.58,-4.58,-4.58,-4.58,-4.58,-4.58,-4.58,-4.58,-4.58,-4.58,-4.58,-4.58,-4.58,-4.58,-4.58,-4.58,-4.58,-4.58,0.0,0.0,0.0,0.0,0.0,0.0,-2.9722,-3.0639,0.0,0.0,0.0,0.0,0.0,0.0,0.0,0.0,0.0,0.0,0.0,0.0,0.0,0.0,0.0,0.0,0.0,-3.8186,-3.8285,-3.8252,-3.8285,-3.8285,-3.8252,-3.8382,-3.8559,-3.8792,-3.8921,-3.9017,-3.9101,-3.9101,-3.9101,-3.9101,-3.9101,-3.9101,-3.9101,-3.9101,-3.9101,-3.9101,-3.9101,-3.9101,-3.9101,-3.9101,-3.9101,-3.9101,-3.9101,-3.9101,-3.9101,-3.9101,-3.9101,-3.9101,-3.9101,-3.9101,-3.938,-4.1051,-4.159,-4.1887,-4.3503,-4.4005,-4.4005,-4.4005,-4.4005,-4.4036,-4.4192,-4.4346,-4.4457,-4.4457,-4.4546,-4.465,-4.4676,-4.4776,-4.5011,-4.5526,-4.5629,-4.568,-4.5786,-4.58,-4.5786,-4.5723,-4.5708,-4.5692,-4.5645,-4.5629,-4.5629,-4.5629,-4.5629,-4.5629,-4.5629,-4.5629,-4.5629,-4.5629,-4.5629,-4.5661,-4.5708,-4.5708,-4.5737,-4.58,-4.58,-4.58,-4.58,-4.58,-4.58,-4.58,-4.58,-4.58,0.0,0.0,0.0,0.0,0.0,0.0,-3.0104,-3.0326,-3.064,0.0,0.0,0.0,0.0,0.0,0.0,0.0,0.0,0.0,0.0,0.0,0.0,0.0,0.0,0.0,-3.788,-3.7739,-3.7721,-3.7949,-3.7721,-3.7721,-3.7949,-3.7984,-3.8219,-3.8683,-3.8762,-3.8892,-3.9073,-3.9101,-3.9101,-3.9101,-3.9101,-3.9101,-3.9101,-3.9101,-3.9101,-3.9101,-3.9101,-3.9101,-3.9101,-3.9101,-3.9101,-3.9101,-3.9101,-3.9101,-3.9101,-3.9101,-3.9101,-3.9101,-3.9101,-3.9101,-3.938,-4.1051,-4.159,-4.1887,-4.3503,-4.4005,-4.4005,-4.4005,-4.4005,-4.4005,-4.4005,-4.4005,-4.4005,-4.4005,-4.4162,-4.4346,-4.4346,-4.4546,-4.4849,-4.5226,-4.5323,-4.5417,-4.5673,-4.5723,-4.5692,-4.556,-4.558,-4.5528,-4.5419,-4.54,-4.54,-4.54,-4.54,-4.54,-4.54,-4.54,-4.54,-4.54,-4.54,-4.5438,-4.558,-4.558,-4.5629,-4.5752,-4.5786,-4.5786,-4.58,-4.58,-4.58,-4.58,-4.58,-4.58,0.0,0.0,0.0,0.0,0.0,0.0,-2.8217,-2.871,-2.9303,0.0,0.0,0.0,0.0,0.0,0.0,0.0,0.0,0.0,0.0,0.0,0.0,0.0,0.0,0.0,-3.7447,-3.7721,-3.7845,-3.7685,-3.7613,-3.7613,-3.7685,-3.788,-3.8052,-3.8153,-3.8572,-3.8822,-3.8862,-3.9017,-3.9101,-3.9101,-3.9101,-3.9101,-3.9101,-3.9101,-3.9101,-3.9101,-3.9101,-3.9101,-3.9101,-3.9101,-3.9101,-3.9101,-3.9101,-3.9101,-3.9101,-3.9101,-3.9101,-3.9101,-3.9101,-3.9101,-3.938,-4.1051,-4.159,-4.1887,-4.3503,-4.4005,-4.4005,-4.4005,-4.4005,-4.4005,-4.4005,-4.4005,-4.4005,-4.4005,-4.4048,-4.4079,-4.4079,-4.4121,-4.425,-4.4606,-4.4853,-4.5014,-4.5065,-4.5206,-4.5304,-4.5283,-4.5381,-4.5438,-4.54,-4.54,-4.54,-4.54,-4.54,-4.54,-4.54,-4.54,-4.54,-4.54,-4.54,-4.5419,-4.5457,-4.5457,-4.5438,-4.5475,-4.558,-4.5692,-4.58,-4.58,-4.58,-4.58,-4.58,-4.58,0.0,0.0,0.0,-2.76,0.0,0.0,0.0,-2.8644,-2.9004,-2.9745,0.0,0.0,0.0,0.0,0.0,0.0,0.0,0.0,0.0,0.0,0.0,0.0,0.0,0.0,-3.7297,-3.7503,-3.7649,-3.7613,-3.7577,-3.7577,-3.7577,-3.7721,-3.7845,-3.7984,-3.8252,-3.8465,-3.859,-3.8695,-3.8737,-3.8737,-3.8737,-3.8737,-3.8755,-3.8873,-3.895,-3.895,-3.9045,-3.9101,-3.9101,-3.9101,-3.9101,-3.9101,-3.9101,-3.9101,-3.9101,-3.9101,-3.9101,-3.9101,-3.9101,-3.9101,-3.938,-4.1051,-4.159,-4.1887,-4.3503,-4.4005,-4.4005,-4.4005,-4.4005,-4.4005,-4.4005,-4.4005,-4.4005,-4.4005,-4.4005,-4.4005,-4.4005,-4.4005,-4.4048,-4.4221,-4.4346,-4.4553,-4.4843,-4.4976,-4.5014,-4.4943,-4.5074,-4.5137,-4.5068,-4.509,-4.5154,-4.5154,-4.5154,-4.5154,-4.5154,-4.5154,-4.5154,-4.5154,-4.5154,-4.5197,-4.53,-4.53,-4.5321,-4.54,-4.54,-4.5418,-4.549,-4.5398,-4.5503,-4.58,-4.58,-4.58,0.0,0.0,0.0,0.0,0.0,-2.7906,0.0,0.0,0.0,-2.9503,0.0,0.0,0.0,0.0,0.0,0.0,0.0,0.0,0.0,0.0,0.0,0.0,0.0,0.0,0.0,-3.6905,-3.7053,-3.7559,-3.7291,-3.7255,-3.7559,-3.7577,-3.7685,-3.7915,-3.7984,-3.8119,-3.8318,-3.8382,-3.8382,-3.8382,-3.8382,-3.8382,-3.8415,-3.8621,-3.8713,-3.8713,-3.8902,-3.897,-3.9045,-3.9045,-3.9073,-3.9101,-3.9101,-3.9101,-3.9101,-3.9101,-3.9101,-3.9101,-3.9101,-3.9101,-3.938,-4.1051,-4.1813,-4.2296,-4.3615,-4.4005,-4.4005,-4.4005,-4.4005,-4.4005,-4.4005,-4.4005,-4.4005,-4.4005,-4.4005,-4.4005,-4.4005,-4.4005,-4.4005,-4.4005,-4.4005,-4.4162,-4.4625,-4.4768,-4.4738,-4.4643,-4.472,-4.4789,-4.4685,-4.4764,-4.4821,-4.4821,-4.4821,-4.4821,-4.4821,-4.4821,-4.4821,-4.4821,-4.4821,-4.4914,-4.5057,-4.508,-4.5132,-4.5263,-4.5159,-4.5118,-4.514,-4.4976,-4.5168,-4.5703,-4.5703,-4.5737,0.0,0.0,0.0,0.0,-2.7557,0.0,0.0,0.0,-2.6979,-2.7095,0.0,0.0,0.0,0.0,0.0,0.0,0.0,0.0,0.0,0.0,0.0,0.0,0.0,0.0,0.0,-3.5412,-3.5774,-3.747,-3.6239,-3.6025,-3.7505,-3.7577,-3.7613,-3.7649,-3.7898,-3.8018,-3.8052,-3.8285,-3.8382,-3.8382,-3.8382,-3.8382,-3.8382,-3.8415,-3.8465,-3.8446,-3.8478,-3.8603,-3.8833,-3.8833,-3.895,-3.9101,-3.9101,-3.9101,-3.9101,-3.9101,-3.9101,-3.9101,-3.9101,-3.9101,-3.938,-4.1051,-4.2556,-4.3763,-4.3949,-4.4005,-4.4005,-4.4005,-4.4005,-4.4005,-4.4005,-4.4005,-4.4005,-4.4005,-4.4005,-4.4005,-4.4005,-4.4005,-4.4005,-4.4005,-4.4005,-4.4017,-4.4091,-4.4258,-4.4364,-4.4354,-4.4468,-4.4551,-4.4524,-4.4542,-4.4542,-4.4542,-4.4542,-4.4542,-4.4542,-4.4542,-4.4542,-4.4542,-4.4542,-4.457,-4.4578,-4.4578,-4.4648,-4.4795,-4.4751,-4.4806,-4.4935,-4.4912,-4.5063,-4.5361,-4.5361,-4.547,0.0,0.0,0.0,0.0,0.0,0.0,-2.7692,0.0,-2.728,0.0,0.0,0.0,0.0,0.0,0.0,0.0,0.0,0.0,0.0,0.0,0.0,0.0,0.0,0.0,0.0,0.0,0.0,0.0,-3.6788,-3.6736,-3.7559,-3.7577,-3.7577,-3.7577,-3.7721,-3.7757,-3.7757,-3.788,-3.7949,-3.7949,-3.7949,-3.7949,-3.7949,-3.8086,-3.8153,-3.8186,-3.8318,-3.8446,-3.859,-3.8762,-3.8833,-3.895,-3.9045,-3.9101,-3.9101,-3.9101,-3.9101,-3.9101,-3.9101,-3.9101,-3.938,-4.1051,-4.2686,-4.4005,-4.4005,-4.4005,-4.4005,-4.4005,-4.4005,-4.4005,-4.4005,-4.4005,-4.4005,-4.4005,-4.4005,-4.4005,-4.4005,-4.4005,-4.4005,-4.4005,-4.4005,-4.4005,-4.4005,-4.4067,-4.4147,-4.4147,-4.4266,-4.4373,-4.4373,-4.4458,-4.4515,-4.4515,-4.4515,-4.4515,-4.4515,-4.4515,-4.4515,-4.4515,-4.4515,-4.4515,-4.4515,-4.4515,-4.4524,-4.4595,-4.4513,-4.4495,-4.4538,-4.4419,-4.4508,-4.4768,-4.4976,-4.5126,-2.8168,0.0,0.0,0.0,0.0,0.0,0.0,0.0,0.0,0.0,0.0,0.0,0.0,0.0,0.0,0.0,0.0,0.0,0.0,0.0,0.0,0.0,0.0,0.0,0.0,0.0,0.0,-3.6643,-3.6659,-3.6911,-3.7559,-3.7577,-3.7577,-3.7521,-3.7594,-3.7577,-3.7521,-3.7577,-3.7577,-3.7577,-3.7577,-3.7577,-3.7631,-3.7792,-3.7845,-3.781,-3.8018,-3.8119,-3.8135,-3.8332,-3.846,-3.8504,-3.8748,-3.8865,-3.8923,-3.9055,-3.9101,-3.9101,-3.9101,-3.9398,-3.9993,-4.12,-4.2686,-4.4005,-4.4005,-4.4005,-4.4005,-4.4005,-4.4005,-4.4005,-4.4005,-4.4005,-4.4005,-4.4005,-4.4005,-4.4005,-4.4005,-4.4005,-4.4005,-4.4005,-4.4005,-4.4005,-4.4005,-4.4005,-4.4005,-4.4005,-4.4097,-4.4226,-4.4226,-4.4296,-4.4354,-4.4354,-4.4354,-4.4354,-4.4354,-4.4354,-4.4354,-4.4354,-4.4354,-4.4354,-4.4354,-4.4354,-4.4354,-4.4354,-4.4266,-4.4226,-4.4226,-4.4067,-4.4091,-4.4289,-4.4638,-4.4796,0.0,0.0,0.0,-2.9471,0.0,0.0,0.0,0.0,-2.6254,0.0,0.0,0.0,0.0,0.0,0.0,0.0,0.0,0.0,0.0,0.0,0.0,0.0,0.0,0.0,0.0,0.0,0.0,-3.503,-3.4977,-3.5686,-3.7505,-3.7577,-3.7521,-3.7297,-3.7521,-3.7521,-3.7297,-3.7521,-3.7577,-3.7577,-3.7577,-3.7577,-3.7577,-3.7631,-3.7521,-3.7334,-3.7334,-3.7392,-3.7413,-3.745,-3.756,-3.7754,-3.8032,-3.8263,-3.848,-3.8923,-3.9101,-3.9101,-3.9101,-4.016,-4.1534,-4.1571,-4.2686,-4.4005,-4.4005,-4.4005,-4.4005,-4.4005,-4.4005,-4.4005,-4.4005,-4.4005,-4.4005,-4.4005,-4.4005,-4.4005,-4.4005,-4.4005,-4.4005,-4.4005,-4.4005,-4.4005,-4.4005,-4.4005,-4.4005,-4.4005,-4.4005,-4.4005,-4.4005,-4.4005,-4.4005,-4.4005,-4.4005,-4.4005,-4.4005,-4.4005,-4.4005,-4.4005,-4.4005,-4.4005,-4.4005,-4.4005,-4.4005,-4.4005,-4.4005,-4.4005,-4.4005,-4.4005,-4.3986,-4.4036,-4.4289,-4.4546,0.0,0.0,-3.0199,-2.9732,0.0,0.0,0.0,0.0,0.0,0.0,0.0,0.0,0.0,0.0,0.0,0.0,0.0,0.0,0.0,0.0,0.0,0.0,0.0,0.0,0.0,0.0,0.0,-3.4818,-3.5879,-3.6805,-3.7559,-3.7466,-3.7372,-3.7297,-3.7372,-3.7372,-3.7297,-3.7521,-3.7521,-3.741,-3.741,-3.7334,-3.7203,-3.7203,-3.7182,-3.7105,-3.7105,-3.7126,-3.7147,-3.7319,-3.745,-3.7524,-3.7755,-3.798,-3.8281,-3.8725,-3.9007,-3.9101,-3.9101,-3.9844,-4.0884,-4.1423,-4.2333,-4.3318,-4.3838,-4.4005,-4.4005,-4.4005,-4.4005,-4.4005,-4.4005,-4.4005,-4.4005,-4.4005,-4.4005,-4.4005,-4.4005,-4.4005,-4.4005,-4.4005,-4.4005,-4.4005,-4.4005,-4.4005,-4.4005,-4.4005,-4.4005,-4.4005,-4.4005,-4.4005,-4.4005,-4.4005,-4.4005,-4.4005,-4.4005,-4.4005,-4.4005,-4.4005,-4.4005,-4.4005,-4.4005,-4.4005,-4.4005,-4.4005,-4.4005,-4.4005,-4.4005,-4.4005,-4.4005,-4.4005,-4.4091,-4.4162,-3.0482,-3.0688,0.0,-3.058,-3.0591,0.0,-3.0142,0.0,0.0,0.0,0.0,0.0,0.0,0.0,0.0,0.0,0.0,0.0,0.0,-2.572,0.0,0.0,0.0,0.0,0.0,0.0,-3.3405,-3.4711,-3.5807,-3.675,0.0,0.0,-3.722,-3.7066,-3.7143,-3.7182,-3.7182,-3.7317,-3.7372,-3.7297,-3.722,-3.7143,-3.6987,-3.6987,-3.6948,-3.6869,-3.6869,-3.6829,-3.6753,-3.6935,-3.6995,-3.7034,-3.7266,-3.747,-3.7791,-3.841,-3.8855,-3.9101,-3.9101,-3.9658,-4.0513,-4.133,-4.2129,-4.2946,-4.3763,-4.4005,-4.4061,-4.4376,-4.4246,-4.4079,-4.4376,-4.4228,-4.4005,-4.4005,-4.4005,-4.4005,-4.4005,-4.4005,-4.4005,-4.4005,-4.4005,-4.4005,-4.4005,-4.4005,-4.4005,-4.4005,-4.4005,-4.4005,-4.4005,-4.4005,-4.4005,-4.4005,-4.4005,-4.4005,-4.4005,-4.4005,-4.4005,-4.4005,-4.4005,-4.4005,-4.4005,-4.4005,-4.4153,-4.4451,-4.4153,-4.4153,-4.4451,-4.4153,-4.4005,-4.4005,-4.4005,-4.4005]}]]